[[{"header":{"parameterUnit":"m.s-1","parameterCategory":1,"la1":30.6,"la2":29.2853,"lo1":-89.7004,"lo2":-87.6739,"dy":0.0162,"dx":0.0183,"nx":112,"ny":82,"refTime":"2024-08-13T18:00:00:Z","depth":0,"parameterNumber":2,"parameterNumberName":"U-component_of_WINDS"},"data":[0.0,0.0,0.0,0.0,0.0,0.0,0.0,0.0,0.0,0.0,0.0,0.0,0.0,0.0,0.0,0.0,0.0,0.0,0.0,0.0,0.0,0.0,0.0,0.0,0.0,0.0,0.0,0.0,0.0,0.0,0.0,0.0,0.0,0.0,0.0,0.0,0.0,0.0,0.0,0.0,0.0,0.0,0.0,0.0,0.0,0.0,0.0,0.0,0.0,0.0,0.0,0.0,0.0,0.0,0.0,0.0,0.0,0.0,0.0,0.0,0.0,0.0,0.0,0.0,0.0,0.0,0.0,0.0,0.0,0.0,0.0,0.0,0.0,0.0,0.0,0.0,0.0,0.0,0.0,0.0,0.0,0.0,0.0,0.0,0.0,0.0,0.0,0.0,0.0,0.0,-2.8228,-2.8448,-2.8036,-2.8018,-2.8828,-2.8343,-2.8372,-2.923,0.0,0.0,0.0,0.0,0.0,0.0,0.0,0.0,0.0,0.0,0.0,0.0,0.0,0.0,0.0,0.0,0.0,0.0,0.0,0.0,0.0,0.0,0.0,0.0,0.0,0.0,0.0,0.0,0.0,0.0,0.0,0.0,0.0,0.0,0.0,0.0,0.0,0.0,0.0,0.0,0.0,0.0,0.0,0.0,0.0,0.0,0.0,0.0,0.0,0.0,0.0,0.0,0.0,0.0,0.0,0.0,0.0,0.0,0.0,0.0,0.0,0.0,0.0,0.0,0.0,0.0,0.0,0.0,0.0,0.0,0.0,0.0,0.0,0.0,0.0,0.0,0.0,0.0,0.0,0.0,0.0,0.0,0.0,0.0,0.0,0.0,0.0,0.0,0.0,0.0,0.0,0.0,0.0,0.0,0.0,0.0,0.0,0.0,0.0,0.0,0.0,0.0,0.0,0.0,-2.85,-2.8881,-2.7655,-2.7108,-2.7938,-2.7449,-2.7214,-2.7486,0.0,0.0,0.0,0.0,0.0,0.0,0.0,0.0,0.0,0.0,0.0,0.0,0.0,0.0,0.0,0.0,0.0,0.0,0.0,0.0,0.0,0.0,0.0,0.0,0.0,0.0,0.0,0.0,0.0,0.0,0.0,0.0,0.0,0.0,0.0,0.0,0.0,0.0,0.0,0.0,0.0,0.0,0.0,0.0,0.0,0.0,0.0,0.0,0.0,0.0,0.0,0.0,0.0,0.0,0.0,0.0,0.0,0.0,0.0,0.0,0.0,0.0,0.0,0.0,0.0,0.0,0.0,0.0,0.0,0.0,0.0,0.0,0.0,0.0,0.0,0.0,0.0,0.0,0.0,0.0,0.0,0.0,0.0,0.0,0.0,0.0,0.0,0.0,0.0,0.0,0.0,0.0,0.0,0.0,0.0,0.0,0.0,0.0,0.0,0.0,0.0,0.0,0.0,-2.7806,-2.843,-2.8947,-2.7567,-2.7108,-2.8338,-2.7398,-2.7006,-2.7606,-2.739,0.0,0.0,0.0,0.0,0.0,0.0,0.0,0.0,0.0,0.0,0.0,0.0,0.0,0.0,0.0,0.0,0.0,0.0,0.0,0.0,0.0,0.0,0.0,0.0,0.0,0.0,0.0,0.0,0.0,0.0,0.0,0.0,0.0,0.0,0.0,0.0,0.0,0.0,0.0,0.0,0.0,0.0,0.0,0.0,0.0,0.0,0.0,0.0,0.0,0.0,0.0,0.0,0.0,0.0,0.0,0.0,0.0,0.0,0.0,0.0,0.0,0.0,0.0,0.0,0.0,0.0,0.0,0.0,0.0,0.0,0.0,0.0,0.0,0.0,0.0,0.0,0.0,0.0,0.0,0.0,0.0,0.0,0.0,0.0,0.0,0.0,0.0,0.0,0.0,0.0,0.0,0.0,0.0,0.0,0.0,0.0,0.0,0.0,0.0,0.0,0.0,0.0,-2.8263,-2.855,-2.8965,-2.7732,-2.7383,-2.8613,-2.742,-2.6843,-2.7472,-2.7064,0.0,0.0,0.0,0.0,0.0,0.0,0.0,0.0,0.0,0.0,0.0,0.0,0.0,0.0,0.0,0.0,0.0,0.0,0.0,0.0,0.0,0.0,0.0,0.0,0.0,0.0,0.0,0.0,0.0,0.0,0.0,0.0,0.0,0.0,0.0,0.0,0.0,0.0,0.0,0.0,0.0,0.0,0.0,0.0,0.0,0.0,0.0,0.0,0.0,0.0,0.0,0.0,0.0,0.0,0.0,0.0,0.0,0.0,0.0,0.0,0.0,0.0,0.0,0.0,0.0,0.0,0.0,0.0,0.0,0.0,0.0,0.0,0.0,0.0,0.0,0.0,0.0,0.0,0.0,0.0,0.0,0.0,0.0,0.0,0.0,0.0,0.0,0.0,0.0,0.0,0.0,0.0,0.0,0.0,0.0,0.0,0.0,0.0,0.0,0.0,0.0,0.0,-2.8762,-2.9152,-2.902,-2.8227,-2.775,-2.786,-2.7108,-2.6364,-2.5801,-2.5905,0.0,0.0,0.0,0.0,0.0,0.0,0.0,0.0,0.0,0.0,0.0,0.0,0.0,0.0,0.0,0.0,0.0,0.0,0.0,0.0,0.0,0.0,0.0,0.0,0.0,0.0,0.0,0.0,0.0,0.0,0.0,0.0,0.0,0.0,0.0,0.0,0.0,0.0,0.0,0.0,0.0,0.0,0.0,0.0,0.0,0.0,0.0,0.0,0.0,0.0,0.0,0.0,0.0,0.0,0.0,0.0,0.0,0.0,0.0,0.0,0.0,0.0,0.0,0.0,0.0,0.0,0.0,0.0,0.0,0.0,0.0,0.0,0.0,0.0,0.0,0.0,0.0,0.0,0.0,0.0,0.0,0.0,0.0,0.0,0.0,0.0,0.0,0.0,0.0,0.0,0.0,0.0,0.0,0.0,0.0,0.0,0.0,0.0,0.0,0.0,0.0,0.0,-2.8703,-2.9151,-2.8809,-2.8173,-2.7989,-2.8521,-2.7805,-2.704,-2.6274,0.0,0.0,0.0,0.0,0.0,0.0,0.0,0.0,0.0,0.0,0.0,0.0,0.0,0.0,0.0,0.0,0.0,0.0,0.0,0.0,0.0,0.0,0.0,0.0,0.0,0.0,0.0,0.0,0.0,0.0,0.0,0.0,0.0,0.0,0.0,0.0,0.0,0.0,0.0,0.0,0.0,0.0,0.0,0.0,0.0,0.0,0.0,0.0,0.0,0.0,0.0,0.0,0.0,0.0,0.0,0.0,0.0,0.0,0.0,0.0,0.0,0.0,0.0,0.0,0.0,0.0,0.0,0.0,0.0,0.0,0.0,0.0,0.0,0.0,0.0,0.0,0.0,0.0,0.0,0.0,0.0,0.0,0.0,0.0,0.0,0.0,0.0,0.0,0.0,0.0,0.0,0.0,0.0,0.0,0.0,0.0,0.0,0.0,0.0,0.0,0.0,0.0,-2.7672,-2.8529,-2.8994,-2.8641,-2.8275,-2.8301,-2.8938,-2.8264,-2.7457,-2.6649,0.0,0.0,0.0,0.0,0.0,0.0,0.0,0.0,0.0,0.0,0.0,0.0,0.0,0.0,0.0,0.0,0.0,0.0,0.0,0.0,0.0,0.0,0.0,0.0,0.0,0.0,0.0,0.0,0.0,0.0,0.0,0.0,0.0,0.0,0.0,0.0,0.0,0.0,0.0,0.0,0.0,0.0,0.0,0.0,0.0,0.0,0.0,0.0,0.0,0.0,0.0,0.0,0.0,0.0,0.0,0.0,0.0,0.0,0.0,0.0,0.0,0.0,0.0,0.0,0.0,0.0,0.0,0.0,0.0,0.0,0.0,0.0,0.0,0.0,0.0,0.0,0.0,0.0,0.0,0.0,0.0,0.0,0.0,0.0,0.0,0.0,0.0,0.0,0.0,0.0,0.0,0.0,0.0,0.0,0.0,0.0,0.0,0.0,0.0,0.0,0.0,0.0,-2.7672,-2.8351,-2.8765,-2.8598,-2.8576,-2.8694,-2.8952,-2.8282,-2.7457,0.0,0.0,0.0,0.0,0.0,0.0,0.0,0.0,0.0,0.0,0.0,0.0,0.0,0.0,0.0,0.0,0.0,0.0,0.0,0.0,0.0,0.0,0.0,0.0,0.0,0.0,0.0,0.0,0.0,0.0,0.0,0.0,0.0,0.0,0.0,0.0,0.0,0.0,0.0,0.0,0.0,0.0,0.0,0.0,0.0,0.0,0.0,0.0,0.0,0.0,0.0,0.0,0.0,0.0,0.0,0.0,0.0,0.0,0.0,0.0,0.0,0.0,0.0,0.0,0.0,0.0,0.0,0.0,0.0,0.0,0.0,0.0,0.0,0.0,0.0,0.0,0.0,0.0,0.0,0.0,0.0,0.0,0.0,0.0,0.0,0.0,0.0,0.0,0.0,0.0,0.0,0.0,0.0,0.0,0.0,0.0,0.0,0.0,0.0,0.0,0.0,0.0,0.0,-2.7421,-2.8233,-2.8587,-2.8032,-2.812,-2.836,-2.8694,-2.85,-2.7861,-2.6664,0.0,0.0,0.0,0.0,0.0,0.0,0.0,0.0,0.0,0.0,0.0,0.0,0.0,0.0,0.0,0.0,0.0,0.0,0.0,0.0,0.0,0.0,0.0,0.0,0.0,0.0,0.0,0.0,0.0,0.0,0.0,0.0,0.0,0.0,0.0,0.0,0.0,0.0,0.0,0.0,0.0,0.0,0.0,0.0,0.0,0.0,0.0,0.0,0.0,0.0,0.0,0.0,0.0,0.0,0.0,0.0,0.0,0.0,0.0,0.0,0.0,0.0,0.0,0.0,0.0,0.0,0.0,0.0,0.0,0.0,0.0,0.0,0.0,0.0,0.0,0.0,0.0,0.0,0.0,0.0,0.0,0.0,0.0,0.0,0.0,0.0,0.0,0.0,0.0,0.0,0.0,0.0,0.0,0.0,0.0,0.0,0.0,0.0,0.0,0.0,0.0,0.0,-2.7247,-2.7834,-2.8058,-2.7754,-2.7811,-2.8037,-2.8326,-2.8352,-2.772,-2.6235,0.0,0.0,0.0,0.0,0.0,0.0,0.0,0.0,0.0,0.0,0.0,0.0,0.0,0.0,0.0,0.0,0.0,0.0,0.0,0.0,0.0,0.0,0.0,0.0,0.0,0.0,0.0,0.0,0.0,0.0,0.0,0.0,0.0,0.0,0.0,0.0,0.0,0.0,0.0,0.0,0.0,0.0,0.0,0.0,0.0,0.0,0.0,0.0,0.0,0.0,0.0,0.0,0.0,0.0,0.0,0.0,0.0,0.0,0.0,0.0,0.0,0.0,0.0,0.0,0.0,0.0,0.0,0.0,0.0,0.0,0.0,0.0,0.0,0.0,0.0,0.0,0.0,0.0,0.0,0.0,0.0,0.0,0.0,0.0,0.0,0.0,0.0,0.0,0.0,0.0,0.0,0.0,0.0,0.0,0.0,0.0,0.0,0.0,0.0,0.0,0.0,0.0,-2.7282,-2.7333,-2.7359,-2.7612,-2.7582,-2.7654,-2.7943,-2.7954,-2.7315,-2.5746,0.0,0.0,0.0,0.0,0.0,0.0,0.0,0.0,0.0,0.0,0.0,0.0,0.0,0.0,0.0,0.0,0.0,0.0,0.0,0.0,0.0,0.0,0.0,0.0,0.0,0.0,0.0,0.0,0.0,0.0,0.0,0.0,0.0,0.0,0.0,0.0,0.0,0.0,0.0,0.0,0.0,0.0,0.0,0.0,0.0,0.0,0.0,0.0,0.0,0.0,0.0,0.0,0.0,0.0,0.0,0.0,0.0,0.0,0.0,0.0,-2.2371,-2.2536,0.0,0.0,0.0,0.0,0.0,0.0,0.0,0.0,0.0,0.0,0.0,0.0,0.0,0.0,0.0,0.0,0.0,0.0,0.0,0.0,0.0,0.0,0.0,0.0,0.0,0.0,0.0,0.0,0.0,0.0,0.0,0.0,0.0,0.0,0.0,0.0,0.0,0.0,0.0,0.0,-2.7891,-2.753,-2.7135,-2.7152,-2.7137,-2.7293,-2.7654,-2.7683,-2.7395,-2.6641,-2.6165,0.0,0.0,0.0,0.0,0.0,0.0,0.0,0.0,0.0,0.0,0.0,0.0,0.0,0.0,0.0,0.0,0.0,0.0,0.0,0.0,0.0,0.0,0.0,0.0,0.0,0.0,0.0,0.0,0.0,0.0,0.0,0.0,0.0,0.0,0.0,0.0,0.0,0.0,0.0,0.0,0.0,0.0,0.0,0.0,0.0,0.0,0.0,0.0,0.0,0.0,0.0,0.0,0.0,0.0,0.0,0.0,0.0,0.0,0.0,-2.3754,-2.3874,0.0,0.0,0.0,0.0,0.0,0.0,0.0,0.0,0.0,0.0,0.0,0.0,0.0,0.0,0.0,0.0,0.0,0.0,0.0,0.0,0.0,0.0,0.0,0.0,0.0,0.0,0.0,0.0,0.0,0.0,0.0,0.0,0.0,0.0,0.0,0.0,0.0,0.0,0.0,0.0,-2.7862,-2.7301,-2.6758,-2.6725,-2.6876,-2.704,-2.723,-2.7293,-2.7039,-2.6359,-2.6212,0.0,0.0,0.0,0.0,0.0,0.0,0.0,0.0,0.0,0.0,0.0,0.0,0.0,0.0,0.0,0.0,0.0,0.0,0.0,0.0,0.0,0.0,0.0,0.0,0.0,0.0,0.0,0.0,0.0,0.0,0.0,0.0,0.0,0.0,0.0,0.0,0.0,0.0,0.0,0.0,0.0,0.0,0.0,0.0,0.0,0.0,0.0,0.0,0.0,0.0,0.0,0.0,0.0,-2.6863,-2.6666,-2.6823,-2.5985,-2.5872,-2.6212,-2.509,-2.5292,-2.6286,-2.5869,0.0,0.0,0.0,0.0,0.0,0.0,0.0,0.0,0.0,0.0,0.0,0.0,0.0,0.0,0.0,0.0,0.0,0.0,0.0,0.0,0.0,0.0,-2.4487,-2.4487,-2.5493,-2.6255,-2.5493,0.0,0.0,0.0,0.0,0.0,0.0,0.0,0.0,0.0,0.0,0.0,-2.749,-2.6783,-2.6279,-2.6262,-2.6504,-2.6657,-2.6708,-2.6759,-2.6521,-2.5779,-2.6052,-2.5833,0.0,0.0,0.0,0.0,0.0,0.0,0.0,0.0,0.0,0.0,0.0,0.0,0.0,0.0,0.0,0.0,0.0,0.0,0.0,0.0,0.0,0.0,0.0,0.0,0.0,0.0,0.0,0.0,0.0,0.0,0.0,0.0,-1.9702,-2.0742,0.0,0.0,0.0,0.0,0.0,0.0,0.0,0.0,0.0,0.0,0.0,0.0,0.0,-2.7593,-2.743,-2.7699,-2.7754,-2.7581,-2.7601,-2.7553,-2.749,-2.7065,-2.6781,-2.6605,-2.6403,0.0,-2.6821,-2.6796,0.0,0.0,0.0,0.0,0.0,0.0,0.0,0.0,0.0,0.0,0.0,0.0,0.0,0.0,0.0,0.0,0.0,0.0,0.0,0.0,0.0,0.0,-2.5179,-2.5179,-2.5318,-2.5777,-2.6826,-2.6904,-2.6693,-2.6598,-2.6198,-2.571,0.0,0.0,0.0,0.0,0.0,0.0,-2.688,-2.6274,-2.5758,-2.5615,-2.5652,-2.5742,-2.5848,-2.6013,-2.6035,-2.5796,-2.5427,-2.5362,-2.565,-2.4361,0.0,0.0,0.0,0.0,0.0,0.0,0.0,0.0,0.0,0.0,0.0,0.0,0.0,0.0,0.0,0.0,0.0,0.0,0.0,0.0,0.0,0.0,0.0,0.0,0.0,0.0,0.0,0.0,0.0,-2.015,-2.1909,-2.22,-2.2996,-2.3297,0.0,0.0,0.0,0.0,0.0,0.0,0.0,0.0,0.0,-2.7927,-2.8215,-2.8396,-2.8483,-2.8312,-2.7994,-2.7602,-2.7624,-2.7417,-2.7055,-2.707,-2.6891,-2.6538,-2.7027,-2.6976,-2.6555,-2.6674,-2.6657,-2.6552,0.0,0.0,0.0,0.0,-2.7238,-2.7636,-2.7745,-2.7297,-2.6623,-2.6455,0.0,0.0,0.0,0.0,0.0,0.0,0.0,-2.4683,0.0,0.0,-2.5318,-2.5318,-2.5626,-2.6087,-2.6688,-2.7025,-2.7207,-2.7207,-2.7344,-2.7306,-2.6702,-2.6887,0.0,0.0,0.0,-2.6671,-2.6985,-2.6318,-2.5662,-2.5208,-2.5351,-2.5503,-2.5594,-2.5758,-2.5795,-2.5742,-2.554,-2.5543,-2.5726,-2.5105,-2.4623,0.0,0.0,0.0,0.0,0.0,0.0,0.0,0.0,0.0,0.0,0.0,0.0,0.0,0.0,0.0,0.0,0.0,0.0,0.0,0.0,0.0,0.0,0.0,0.0,0.0,0.0,0.0,0.0,-2.1973,-2.3612,-2.3359,-2.4418,-2.483,0.0,0.0,0.0,0.0,0.0,0.0,-2.7804,-2.8199,-2.8701,-2.9334,-2.8592,-2.8485,-2.9063,-2.813,-2.7518,-2.7299,-2.7321,-2.707,-2.6555,-2.6691,-2.6607,-2.6399,-2.6985,-2.6847,-2.6206,-2.6564,-2.6864,-2.7092,-2.7055,-2.7644,-2.8461,-2.7981,-2.8155,-2.8615,-2.8592,-2.8084,-2.7375,-2.7169,-2.6604,-2.5859,-2.4955,0.0,0.0,0.0,0.0,-2.504,-2.506,-2.5152,-2.5244,-2.506,-2.5385,-2.5814,-2.6072,-2.6596,-2.7133,-2.758,-2.8324,-2.8808,-2.8561,-2.8466,0.0,-2.9284,-2.7973,-2.6829,-2.6725,-2.6152,-2.5472,-2.4838,-2.502,-2.5198,-2.5198,-2.5346,-2.54,-2.5346,-2.5427,-2.5465,-2.5346,-2.5389,-2.4981,-2.4121,0.0,0.0,0.0,0.0,0.0,0.0,0.0,0.0,0.0,0.0,0.0,0.0,0.0,0.0,0.0,0.0,0.0,0.0,0.0,0.0,0.0,0.0,0.0,0.0,0.0,0.0,0.0,0.0,0.0,-2.35,-2.5391,0.0,0.0,0.0,0.0,-2.7048,-2.8004,-2.8703,-2.9,-2.98,-3.0283,-3.0331,-2.8025,-2.733,-2.8427,-2.6523,-2.5845,-2.6438,-2.6788,-2.674,-2.6419,-2.6033,-2.5994,-2.6203,-2.6132,-2.6023,-2.5983,-2.6895,-2.6869,-2.6234,-2.6056,-2.6052,-2.6184,-2.6354,-2.6399,-2.6446,-2.6368,-2.5933,-2.5372,-2.5621,-2.5227,-2.4822,-2.55,-2.4762,0.0,0.0,-2.4998,-2.4714,-2.4434,-2.4771,-2.505,-2.4476,-2.4128,-2.4197,-2.5139,-2.562,-2.6396,-2.8056,-2.8904,-2.9651,-3.0491,0.0,-2.9187,-2.8826,-2.7969,-2.6918,-2.5577,-2.5376,-2.5056,-2.4421,-2.4343,-2.4343,-2.4343,-2.4549,-2.4589,-2.4385,-2.4549,-2.4574,-2.4385,-2.4385,-2.4451,-2.4583,-2.4379,0.0,0.0,0.0,0.0,0.0,0.0,0.0,0.0,0.0,0.0,0.0,0.0,0.0,0.0,0.0,0.0,0.0,0.0,0.0,0.0,0.0,0.0,0.0,0.0,0.0,0.0,0.0,0.0,-2.586,-2.6971,0.0,-2.6654,-2.7398,-2.7955,-2.8086,-2.8944,-2.9528,-2.9658,-3.0011,-3.0153,-3.0024,-2.7768,-2.6575,-2.6599,-2.527,-2.4608,-2.4665,-2.5144,-2.5236,-2.4951,-2.4531,-2.4281,-2.424,-2.4765,-2.4887,-2.4788,-2.5573,-2.6184,-2.6714,-2.6526,-2.6842,-2.7306,-2.6985,-2.6926,-2.6958,-2.662,-2.6163,-2.5667,-2.5478,-2.5263,-2.5072,-2.5,-2.5241,-2.548,-2.5099,-2.5241,-2.5379,-2.5017,-2.4447,-2.3923,-2.397,-2.361,-2.3467,-2.4403,-2.5014,-2.583,-2.729,-2.8571,-2.9627,-3.0392,-2.9539,-2.8827,-2.911,-2.8151,-2.7211,-2.6718,-2.6272,-2.5733,-2.5025,-2.4564,-2.4302,-2.4302,-2.4385,-2.4385,-2.4302,-2.4385,-2.4385,-2.4302,-2.4302,-2.4219,-2.4094,-2.4009,-2.3387,0.0,0.0,0.0,0.0,0.0,0.0,0.0,0.0,0.0,0.0,0.0,0.0,0.0,0.0,0.0,0.0,0.0,0.0,0.0,0.0,0.0,0.0,0.0,0.0,0.0,-2.6321,-2.7213,-2.7082,-2.7883,-2.8157,-2.7438,-2.8166,-2.8763,-2.902,-2.9599,-2.9981,-3.0066,-3.0113,-3.0047,-2.9877,-2.7605,-2.6047,-2.5338,-2.3903,-2.2959,-2.256,-2.3057,-2.3333,-2.3353,-2.3115,-2.2961,-2.2972,-2.338,-2.3512,-2.3431,-2.3717,-2.4382,-2.5301,-2.5947,-2.6509,-2.6913,-2.6319,-2.6094,-2.6052,-2.5623,-2.5331,-2.5048,-2.4712,-2.4665,-2.4667,-2.4535,-2.5163,-2.5741,-2.5106,-2.5143,-2.5349,-2.5018,-2.4072,-2.3316,-2.3659,-2.339,-2.3247,-2.4038,-2.4817,-2.5692,-2.6865,-2.815,-2.9204,-2.9871,-2.9067,-2.854,-2.9083,-2.8134,-2.7294,-2.7161,-2.664,-2.6,-2.5319,-2.4652,-2.4258,-2.4258,-2.4173,-2.4094,-2.3967,-2.4051,-2.4185,-2.4243,-2.4073,-2.393,-2.3939,-2.3419,-2.3083,-2.3053,0.0,0.0,0.0,0.0,0.0,0.0,0.0,0.0,0.0,0.0,0.0,0.0,0.0,0.0,0.0,0.0,0.0,0.0,0.0,0.0,0.0,0.0,0.0,-2.5727,-2.6958,-2.761,-2.6967,-2.8092,-2.8668,-2.8015,-2.8688,-2.9359,-2.9832,-2.9889,-2.9975,-3.0094,-3.0107,-3.0041,-2.9901,-2.7433,-2.5648,-2.4659,-2.2433,-2.0939,-2.021,-2.072,-2.1168,-2.1633,-2.1834,-2.2125,-2.2452,-2.2079,-2.1927,-2.1889,-2.1515,-2.1491,-2.1877,-2.4061,-2.4808,-2.4632,-2.4044,-2.3736,-2.3508,-2.3201,-2.3157,-2.3275,-2.3305,-2.3305,-2.3467,-2.4267,-2.4535,-2.4576,-2.4805,-2.482,-2.4609,-2.4298,-2.3681,-2.3277,-2.3626,-2.3498,-2.3464,-2.406,-2.4941,-2.585,-2.685,-2.7653,-2.8385,-2.9104,-2.8621,-2.8299,-2.8718,-2.7824,0.0,-2.6759,-2.6362,-2.5864,-2.5184,-2.4599,-2.4217,-2.4217,-2.3985,-2.3683,-2.3349,-2.364,-2.3924,-2.4204,-2.3658,-2.3614,-2.4172,-2.2686,-2.2795,-2.4517,0.0,0.0,0.0,0.0,0.0,0.0,0.0,0.0,0.0,0.0,0.0,0.0,0.0,0.0,0.0,0.0,0.0,0.0,0.0,0.0,0.0,-2.6062,-2.7235,-2.755,-2.8346,-2.8857,-2.8763,-2.9114,-2.9258,-2.9077,-2.8839,-2.8797,-2.9014,-2.8514,-2.8169,-2.8101,-2.8036,-2.7924,-2.768,-2.535,-2.327,-2.1546,-2.033,-1.9228,-1.8261,-1.9138,-1.9755,-2.0164,-1.9991,-1.9847,-1.9742,-2.0201,-2.0421,-2.041,-2.0796,-2.1,-2.1152,-2.2218,-2.2685,-2.2762,-2.2765,-2.279,-2.2873,-2.2872,-2.2931,-2.3035,-2.3577,-2.3814,-2.4024,-2.4764,-2.5039,-2.5034,-2.4938,-2.4747,-2.4577,-2.4277,-2.3692,-2.3238,-2.3593,-2.3442,-2.3375,-2.3986,-2.4661,-2.5307,-2.5835,-2.6252,-2.709,-2.8906,-2.8621,-2.8246,-2.8352,-2.7669,-2.7049,-2.6973,-2.6444,-2.6041,-2.5864,-2.5261,-2.4831,-2.4831,-2.4382,-2.4059,-2.3968,-2.4059,-2.4133,-2.4187,-2.4467,-2.4341,-2.3829,-2.4448,-2.412,0.0,0.0,0.0,0.0,0.0,0.0,0.0,0.0,0.0,0.0,0.0,0.0,0.0,0.0,0.0,0.0,0.0,0.0,0.0,0.0,0.0,0.0,-2.6874,-2.7941,-2.855,-2.8973,-2.927,-2.9397,-2.9038,-2.8812,-2.8871,-2.8203,-2.7864,-2.8016,-2.7598,-2.7301,-2.7217,-2.715,-2.7176,-2.7301,-2.5609,-2.3452,-2.0877,-1.9815,-1.8387,-1.6586,-1.7194,-1.7862,-1.8535,-1.8562,-1.8433,-1.8212,-1.8837,-1.9073,-1.9128,-1.9608,-1.9913,0.0,0.0,0.0,0.0,0.0,-2.2302,-2.2477,-2.2629,-2.2735,-2.2747,-2.3044,-2.3331,-2.366,-2.4261,-2.4623,-2.4861,-2.4804,-2.475,-2.4587,-2.424,-2.3472,-2.2897,-2.3253,-2.3011,-2.2906,-2.3554,-2.4188,-2.4775,-2.537,-2.5647,0.0,-2.7559,-2.7494,-2.7287,-2.7448,-2.6968,-2.6669,-2.6811,-2.6335,-2.6015,-2.6015,-2.5452,-2.5063,-2.5063,-2.4631,0.0,0.0,0.0,-2.4432,-2.4514,-2.512,0.0,0.0,0.0,0.0,0.0,0.0,0.0,0.0,-2.5053,-2.4804,0.0,0.0,0.0,0.0,0.0,0.0,0.0,0.0,0.0,0.0,0.0,0.0,0.0,0.0,0.0,0.0,-2.7086,-2.7949,-2.8934,-2.8953,-2.8966,-2.9254,-2.8445,-2.7883,-2.7985,-2.719,-2.6749,-2.6929,-2.6853,-2.6798,-2.6801,-2.6729,0.0,0.0,0.0,-2.4878,-2.1696,-2.0263,-1.8217,-1.5498,-1.5357,-1.5828,-1.6824,-1.7368,-1.749,-1.7366,-1.7791,-1.7996,-1.8004,-1.8311,-1.8639,-1.9041,-2.0715,-2.1264,-2.1285,-2.1815,-2.2067,-2.2137,-2.237,0.0,0.0,-2.2113,-2.2297,-2.2801,-2.3255,-2.3685,-2.4096,-2.4375,-2.4423,-2.4323,-2.3961,-2.3171,-2.2454,-2.2711,-2.2418,-2.2282,-2.2974,-2.3662,-2.4354,-2.5163,-2.5397,-2.5605,-2.5798,-2.5893,-2.6002,-2.6351,-2.615,-2.6056,-2.6404,-2.6096,-2.5893,-2.5893,0.0,0.0,-2.5078,-2.481,-2.449,-2.4216,-2.4505,-2.4804,-2.5216,-2.5781,-2.6076,-2.5992,-2.5669,-2.5893,-2.6595,-2.5714,-2.5702,-2.6452,-2.4848,-2.4657,0.0,0.0,0.0,0.0,0.0,0.0,0.0,0.0,0.0,0.0,0.0,0.0,0.0,0.0,0.0,-2.694,-2.7367,-2.7894,-2.8745,-2.8077,-2.7922,-2.9177,-2.8645,-2.8144,-2.8005,-2.6767,-2.6002,-2.6054,-2.5385,-2.4995,-2.4995,-2.4892,-2.5134,-2.5807,-2.5488,-2.4245,-2.2019,-2.0246,-1.8482,-1.6745,-1.522,0.0,-1.5732,-1.6089,-1.6089,-1.5888,-1.6883,-1.73,-1.735,-1.7928,-1.8621,-1.9339,-1.9672,-2.0198,-2.068,-2.0803,-2.1158,-2.1568,-2.1479,-2.1479,-2.1499,-2.1812,-2.2042,-2.2373,-2.3125,-2.307,0.0,-2.3098,-2.2813,-2.2454,-2.2535,-2.2489,-2.2428,-2.2482,-2.2538,-2.2644,-2.255,-2.3393,-2.4123,-2.4052,-2.4818,-2.5494,-2.555,-2.5743,-2.5948,-2.5988,-2.5948,-2.5948,-2.6002,-2.5948,-2.5893,-2.5893,-2.5795,-2.5725,-2.5725,-2.5254,-2.4902,-2.485,-2.4902,-2.5396,-2.6413,-2.7074,-2.7172,-2.6652,-2.8001,-2.7611,-2.5351,-2.6508,-2.6452,-2.5161,-2.5333,-2.5488,0.0,0.0,0.0,0.0,0.0,0.0,0.0,0.0,0.0,0.0,0.0,-2.3894,-2.5183,0.0,-2.6325,-2.6572,-2.69,-2.7233,-2.7565,-2.7221,-2.74,-2.8606,-2.7717,-2.6935,-2.6801,-2.5746,-2.504,-2.5004,-2.4596,-2.4338,-2.4339,-2.4596,-2.5164,-2.6033,-2.4279,-2.2687,-2.1307,-1.8446,-1.6367,-1.5139,-1.4378,-1.4507,-1.5293,-1.5631,-1.5833,-1.5913,-1.6858,-1.7436,-1.7726,-1.8511,-1.9158,-1.9622,-1.9649,-1.9943,-2.0276,-2.0386,-2.0522,-2.061,-2.0696,-2.0733,-2.0822,-2.086,-2.1146,-2.1498,-2.1799,-2.1885,-2.1898,-2.2159,-2.2008,-2.1856,-2.2143,-2.2057,-2.189,-2.1943,-2.1865,-2.1785,-2.193,-2.2644,-2.3365,-2.363,-2.4375,-2.5061,-2.5244,-2.5355,-2.5564,-2.5839,-2.5798,-2.5743,-2.5893,-2.5893,-2.5893,-2.5893,-2.5893,-2.5893,-2.5893,-2.5612,-2.5322,-2.4997,-2.4997,-2.5398,-2.6282,-2.6394,-2.653,-2.6755,-2.7339,-2.708,-2.5754,-2.6339,-2.6096,-2.5129,-2.5458,-2.5768,0.0,0.0,0.0,0.0,0.0,0.0,0.0,-2.1489,-2.2605,-2.362,-2.4479,-2.5272,-2.6032,-2.6284,-2.6291,-2.6033,-2.6217,-2.6397,-2.6392,-2.6344,-2.6654,-2.7567,-2.647,-2.5634,-2.5597,-2.4801,-2.4284,-2.421,-2.421,-2.4191,-2.419,-2.4801,-2.5625,-2.6618,-2.3507,-2.1529,-2.0894,-1.6863,-1.4402,-1.3568,-1.3585,-1.4053,-1.4893,-1.5288,-1.5709,-1.6193,-1.71,-1.7843,-1.8398,-1.9004,-1.9384,-1.954,-1.9592,-1.9579,-1.9606,-2.0105,-2.0016,-1.9708,-1.9888,-2.0029,-2.008,-1.9747,-1.9995,-2.0464,-2.03,-2.061,-2.1014,-2.1209,-2.1319,-2.1428,-2.1712,-2.1483,-2.1199,-2.129,-2.0925,-2.0666,-2.1134,-2.1705,-2.2341,-2.3031,-2.3774,-2.4337,-2.458,-2.4637,-2.4878,-2.5605,-2.5522,-2.5425,-2.555,-2.5605,-2.5605,-2.5425,-2.5481,-2.5481,-2.5481,-2.555,-2.5314,-2.4821,-2.4821,-2.5131,-2.5864,-2.5442,-2.5677,-2.683,-2.6411,-2.6205,-2.6336,-2.5923,-2.5626,-2.5344,-2.5443,-2.5661,-1.6964,-1.7864,-1.9028,-1.9801,-2.0365,-2.0985,0.0,-2.2989,-2.412,-2.5428,-2.5799,-2.6201,-2.7287,-2.685,-2.6295,-2.6259,-2.5765,-2.5609,-2.6301,-2.5349,-2.4875,-2.5707,-2.5633,-2.5522,-2.5503,-2.4783,-2.4284,-2.4284,-2.4228,-2.419,-2.419,-2.4717,-2.5384,-2.6157,-2.3619,-2.2252,-2.2275,-1.7655,-1.5192,-1.489,-1.3462,-1.3177,-1.3869,-1.4387,-1.4924,-1.5579,-1.7008,-1.8014,-1.8715,-1.8405,-1.8417,-1.8632,-1.8221,-1.7993,-1.8004,-1.9359,-1.9552,-1.9093,-1.9146,-1.9239,-1.9279,-1.8999,-1.91,-1.9361,-1.9373,-1.9556,-1.9803,-1.9855,-2.0012,-2.0232,-2.0374,-2.0489,-2.0602,-2.0753,-2.0423,-2.0118,-2.0131,-2.0673,-2.1168,-2.1274,-2.2326,-2.3267,-2.3327,-2.3327,-2.3741,-2.4935,-2.5061,-2.4948,-2.4523,-2.4567,-2.4439,-2.3833,-2.3904,-2.4034,-2.4034,-2.4137,-2.4195,-2.415,-2.4079,-2.4636,-2.5752,-2.5743,-2.6216,-2.7366,-2.7314,-2.6802,-2.5719,-2.608,-2.5741,-2.4599,-2.5069,-2.5322,-1.8014,-1.9249,-2.0114,-2.095,-2.1479,-2.1958,-2.2634,-2.3678,-2.4688,-2.5443,-2.5901,-2.6172,-2.6246,-2.5993,-2.5564,-2.4889,-2.4712,-2.4739,-2.4967,-2.4557,-2.4358,-2.469,-2.482,-2.4838,-2.4745,-2.4505,-2.4374,-2.4374,-2.4426,-2.4462,-2.4429,-2.5041,-2.4891,-2.3752,-2.1316,-1.9442,-1.8215,-1.4472,-1.2776,-1.3063,-1.2655,-1.2915,-1.3784,-1.4251,-1.4863,-1.5532,-1.6261,-1.684,-1.7379,-1.7424,-1.7578,-1.7754,-1.7611,-1.7457,-1.7368,-1.8232,-1.8298,-1.7952,-1.8182,-1.8387,-1.8578,-1.8667,-1.8893,-1.9105,-1.917,-1.9328,-1.9512,-1.9565,-1.9512,-1.9534,-1.9896,-1.997,-1.999,-2.0165,-2.036,-2.0481,-2.0251,-2.0876,-2.144,-2.144,-2.2219,-2.2834,-2.2834,-2.2834,-2.3015,-2.3492,-2.3741,-2.3859,-2.3846,-2.3904,-2.3833,-2.3539,-2.3598,-2.3479,-2.3135,-2.3551,-2.3741,-2.3386,-2.3433,-2.3803,-2.4494,-2.4154,-2.4484,-2.5629,-2.5654,-2.5568,-2.546,-2.5611,-2.5472,-2.4859,-2.5075,-2.5111,-1.9072,-2.0503,-2.1197,-2.1845,-2.2388,-2.2848,-2.3165,-2.4127,-2.5027,-2.5241,-2.5695,-2.5874,-2.5356,-2.5161,-2.4831,-2.4071,-2.4173,-2.4321,-2.4211,-2.4266,-2.4302,-2.4302,-2.4373,-2.4391,-2.4321,-2.4408,-2.4493,-2.4493,-2.4594,-2.4629,-2.4564,-2.5224,-2.441,-2.1834,-1.9411,-1.7038,-1.4691,-1.182,-1.0684,-1.1305,-1.195,-1.2789,-1.37,-1.4341,-1.4923,-1.5497,-1.5583,-1.5871,-1.6177,-1.6461,-1.6687,-1.681,-1.68,-1.6698,-1.6606,-1.6989,-1.7112,-1.7134,-1.7423,-1.7799,-1.8104,-1.8387,-1.8667,-1.8946,-1.9105,-1.9105,-1.9146,-1.9303,-1.9083,-1.897,-1.9359,-1.9535,-1.9571,-1.9668,-2.0062,-2.0411,-2.025,-2.0795,-2.1296,-2.1415,-2.1837,-2.2237,-2.2237,-2.2237,-2.2237,-2.2237,-2.2421,-2.2713,-2.3002,-2.2942,-2.2882,-2.2942,-2.2942,-2.2761,-2.2298,-2.2983,-2.3205,-2.2776,-2.3047,-2.3367,-2.3729,-2.3311,-2.3566,-2.44,-2.4423,-2.4671,-2.5241,-2.5241,-2.5182,-2.5123,-2.5123,-2.4992,-1.9943,-2.1395,-2.2175,-2.2275,-2.2972,-2.3649,-2.3606,-2.4517,-2.5366,-2.5307,-2.5305,-2.5344,-2.5404,-2.4762,-2.4321,-2.4549,-2.453,-2.4526,-2.4666,-2.4626,-2.4599,-2.4599,-2.4478,-2.4442,-2.4582,-2.4645,-2.4692,-2.4692,-2.4578,-2.4512,-2.4512,-2.5023,-2.4028,-2.1218,-1.8793,-1.6256,-1.3559,-1.1132,-1.0073,-1.0437,-1.1714,-1.2666,-1.3329,-1.4382,-1.4972,-1.5148,-1.5235,-1.5515,-1.5803,-1.5565,-1.5642,-1.5874,-1.543,-1.5313,-1.5468,-1.5846,-1.6306,-1.6864,-1.7134,-1.7523,-1.7952,-1.805,-1.8441,-1.8851,-1.8946,-1.8721,-1.8387,-1.856,-1.8548,-1.851,-1.8383,-1.8997,-1.9622,-1.9294,-1.9264,-1.9349,-1.9749,-1.9901,-2.0081,-2.04,-2.0876,-2.1221,-2.1221,-2.1221,-2.1221,-2.1221,-2.1221,-2.14,-2.1877,-2.1526,-2.1336,-2.1451,-2.1451,-2.1451,-2.1451,-2.2046,-2.2403,-2.2415,-2.3084,-2.3673,-2.3977,-2.4151,-2.4412,-2.4754,-2.4766,-2.4909,-2.5111,-2.5111,-2.5123,-2.5123,-2.5123,-2.4992,-1.4171,-1.8671,-2.3084,-2.352,-2.3823,-2.4063,-2.4118,-2.4555,-2.4897,-2.4745,-2.4813,-2.4914,-2.4939,-2.4713,-2.4556,-2.4654,-2.461,-2.458,-2.4645,-2.2547,-2.1875,-2.4185,-2.2949,-2.2829,-2.5227,-2.4992,-2.4929,-2.5518,-2.5608,-2.5612,-2.5565,-2.5729,-2.3489,-1.8348,-1.74,-1.4886,-1.0537,-0.9778,-0.9643,-1.0062,-1.1137,-1.2075,-1.2839,-1.2586,-1.2755,-1.3108,-1.3234,-1.3608,-1.4195,-1.4538,-1.4775,-1.5001,-1.5029,-1.5196,-1.541,-1.5672,-1.6019,-1.64,-1.6807,-1.7245,-1.7634,-1.7446,-1.7733,-1.8127,-1.7776,-1.7667,-1.7722,-1.7776,-1.7901,-1.8024,-1.8317,-1.8786,-1.9179,-1.9133,-1.9484,-1.9794,-1.9701,-2.0012,-2.0389,-2.0516,-2.0917,-2.1221,-2.1221,-2.1221,-2.1221,-2.1221,-2.1221,-2.1285,-2.1411,-2.1285,-2.1221,-2.1285,-2.1285,-2.1285,-2.1285,-2.1888,-2.2255,-2.2255,-2.2932,-2.345,-2.377,-2.3863,-2.4108,-2.4562,-2.4574,-2.4718,-2.4921,-2.4288,-2.3986,-2.3925,-2.3316,-2.2947,-0.6768,-1.1351,-1.6074,-1.7051,-1.7713,-1.8786,-2.1261,-2.1966,-2.2573,-2.4293,-2.4733,-2.4807,-2.4804,-2.4771,-2.4771,-2.4831,-2.478,-2.4314,-2.309,-2.0896,-1.9778,-2.0718,-1.937,-1.9259,-2.1621,-2.1364,-2.2567,-2.6218,-2.6552,-2.6458,-2.611,-2.5122,-2.2109,-1.673,-1.558,-1.2889,-0.8369,-0.8604,-0.9099,-0.9724,-1.0558,-1.1356,-1.2102,-1.1472,-1.1356,-1.1763,-1.1953,-1.2388,-1.3015,-1.3679,-1.4182,-1.4488,-1.4784,-1.502,-1.5245,-1.5254,-1.542,-1.5642,-1.6114,-1.6627,-1.6955,-1.6662,-1.6933,-1.7279,-1.7067,-1.6944,-1.6944,-1.7056,-1.7301,-1.7596,-1.7793,-1.8427,-1.8921,-1.8861,-1.9336,-1.9726,-1.9605,-1.9933,-2.0248,-2.0248,-2.0442,-2.0571,-2.0431,-2.0624,-2.0828,-2.0828,-2.0828,-2.0892,-2.1158,-2.1221,-2.1221,-2.1221,-2.1221,-2.1238,-2.1422,-2.2035,-2.2483,-2.2601,-2.328,-2.3711,-2.3849,-2.3931,-2.4082,-2.4418,-2.4418,-2.4502,-2.4718,-2.3852,-2.339,-2.3254,-2.2414,-2.1962,0.1584,-0.0519,-0.2674,-0.4291,-0.5947,-0.8835,-1.5223,-1.6822,-1.8439,-2.3605,-2.4639,-2.4722,-2.4949,-2.4777,-2.4626,-2.4821,-2.4639,-2.3353,-2.0067,-1.9403,-1.8031,-1.4786,-1.4217,-1.4234,-1.463,-1.4632,-1.8038,-2.6266,-2.6782,-2.6398,-2.5601,-2.2987,-1.9827,-1.6126,-1.3412,-1.0429,-0.7074,-0.7644,-0.8387,-0.9273,-0.9914,-1.055,-1.111,-1.0884,-1.0891,-1.102,-1.1295,-1.1727,-1.2297,-1.3053,-1.3696,-1.424,-1.4529,-1.4715,-1.4852,-1.4538,-1.4529,-1.4706,-1.5118,-1.5584,-1.5989,-1.5796,-1.5968,-1.6312,-1.6775,-1.6503,-1.6114,-1.6457,-1.6886,-1.7245,-1.694,-1.7934,-1.8961,-1.8516,-1.8754,-1.9142,-1.9473,-1.9539,-1.9539,-1.9539,-1.9539,-1.9462,-1.9044,-1.9573,-2.0031,-2.0031,-2.0053,-2.0335,-2.1001,-2.1129,-2.114,-2.1163,-2.1163,-2.1305,-2.1784,-2.2353,-2.2846,-2.3338,-2.4068,-2.4418,-2.42,-2.4345,-2.4345,-2.4116,-2.4116,-2.4189,-2.4345,-2.3559,-2.318,-2.3169,-2.2264,-2.1811,0.6541,0.1606,-0.3607,-0.4481,-0.5742,-0.7237,-0.9095,-1.0443,-1.2706,-1.7668,-1.9205,-2.0779,-2.4469,-2.3168,-2.1471,-2.1262,-1.903,-1.6959,-1.5887,-1.3385,-1.2321,-1.4052,-1.2512,-1.2384,-1.5082,-1.5951,-1.7318,-1.9641,-1.923,-1.8749,-1.8435,-1.7872,-1.5828,-1.2024,-1.1222,-0.9444,-0.6588,-0.7296,-0.8105,-0.8983,-0.8996,-0.9444,-1.0159,-0.9674,-0.9681,-1.007,-1.0504,-1.1082,-1.176,-1.2596,-1.2947,-1.3016,-1.3579,-1.3623,-1.3381,-1.3494,-1.3666,-1.3777,-1.3666,-1.4323,-1.5157,-1.505,-1.5284,-1.5633,-1.5536,-1.5488,-1.5498,-1.5642,-1.6347,-1.7066,-1.7143,-1.8053,-1.8911,-1.892,-1.8716,-1.8539,-1.8607,-1.8529,-1.8375,-1.8375,-1.871,-1.8967,-1.8834,-1.91,-1.9243,-1.9166,-1.9448,-1.9813,-2.0005,-2.0005,-2.0143,-2.0403,-2.0445,-2.0498,-2.0614,-2.1637,-2.2402,-2.2535,-2.3614,-2.4261,-2.42,-2.3666,-2.3372,-2.3298,-2.2756,-2.2446,-2.2521,-2.1603,-2.1211,-2.1211,-2.0372,-1.9982,1.3922,0.9968,0.5593,0.4688,0.3118,0.1028,-0.1865,-0.4029,-0.6846,-1.186,-1.4021,-1.5846,-1.8677,-1.7938,-1.6864,-1.6803,-1.5122,-1.3236,-1.1603,-0.9531,-0.8476,-0.9165,-0.7946,-0.7944,-1.0251,-1.1025,-1.1418,-1.1479,-1.457,-1.6301,-1.5956,-1.4764,-1.2997,-1.0473,-0.9182,-0.7758,-0.6154,-0.6588,-0.7187,-0.7868,-0.805,-0.844,-0.9086,-0.8936,-0.8991,-0.9315,-0.9685,-1.0245,-1.0908,-1.1565,-1.1919,-1.2102,-1.2748,-1.2826,-1.2642,-1.2642,-1.2818,-1.2931,-1.2712,-1.313,-1.3906,-1.4103,-1.4469,-1.4775,-1.4843,-1.497,-1.5147,-1.5254,-1.6115,-1.7034,-1.7159,-1.781,-1.8472,-1.8607,-1.8269,-1.793,-1.793,-1.7852,-1.7706,-1.7569,-1.7628,-1.7823,-1.824,-1.8297,-1.8357,-1.8556,-1.8854,-1.9013,-1.9049,-1.9565,-1.9949,-2.0206,-2.0226,-2.0309,-2.0524,-2.1219,-2.1754,-2.2029,-2.2752,-2.3128,-2.3128,-2.2681,-2.2456,-2.2456,-2.1993,-2.1832,-2.1832,-2.0924,-2.0459,-2.0459,-1.9687,-1.9301,2.0752,1.9504,1.7815,1.6689,1.4582,1.1354,0.5831,0.2624,-0.0645,-0.5961,-0.8646,-1.031,-1.1123,-1.1455,-1.1671,-1.1882,-1.1554,-1.0232,-0.7232,-0.6702,-0.562,-0.3069,-0.2765,-0.3045,-0.3618,-0.3875,-0.4,-0.4,-1.0903,-1.4932,-1.4584,-1.2094,-1.0361,-0.9628,-0.7272,-0.5937,-0.5664,-0.5887,-0.6213,-0.6588,-0.7133,-0.7628,-0.8109,-0.8256,-0.8415,-0.8586,-0.8896,-0.9312,-0.9857,-1.0311,-1.0747,-1.1256,-1.1829,-1.2104,-1.2143,-1.1856,-1.1911,-1.2089,-1.1919,-1.205,-1.2482,-1.3208,-1.37,-1.407,-1.4538,-1.4725,-1.4852,-1.5029,-1.5811,-1.6646,-1.6709,-1.7222,-1.7725,-1.7862,-1.752,-1.7235,-1.7304,-1.7245,-1.7107,-1.6839,-1.6482,-1.6551,-1.7364,-1.7354,-1.7417,-1.7981,-1.8166,-1.8199,-1.8326,-1.9338,-2.0052,-2.004,-2.005,-2.0285,-2.069,-2.0879,-2.1118,-2.1583,-2.1766,-2.1832,-2.1832,-2.169,-2.1614,-2.1614,-2.1527,-2.1451,-2.1451,-2.0692,-2.0304,-2.0304,-1.9608,-1.9301,1.9234,1.8647,1.7996,1.7604,1.5951,1.4041,1.2584,1.0274,0.673,0.0771,-0.1839,-0.4482,-0.9152,-0.8607,-0.7412,-0.7368,-0.5366,-0.3613,-0.2878,-0.2749,-0.2536,-0.2023,-0.2084,-0.2266,-0.2463,-0.2646,-0.2828,-0.3075,-0.4369,-0.5496,-0.6359,-0.61,-0.5784,-0.5514,-0.5251,-0.5117,-0.5062,-0.5773,-0.6317,-0.6588,-0.6696,-0.702,-0.745,-0.7128,-0.7122,-0.7439,-0.7771,0.0,-0.8911,-0.9494,-0.9869,-1.0117,-1.0668,-1.0821,-1.0674,-1.0618,-1.0933,-1.124,-1.0591,-1.0968,-1.1856,-1.2964,-1.364,-1.407,-1.4419,-1.4231,-1.3992,-1.4282,-1.4604,-1.4885,-1.5201,-1.5771,-1.6507,-1.6941,-1.6664,-1.6324,-1.6673,-1.6412,-1.614,-1.6211,-1.6202,-1.6202,-1.6342,-1.6403,-1.6607,-1.6865,-1.7349,-1.7725,-1.8113,-1.8641,-1.9097,-1.9434,-1.9472,-1.95,-1.9575,-2.0198,-2.0613,-2.0682,-2.1385,-2.1832,-2.1832,-2.1078,-2.0692,-2.0692,-2.007,-1.9766,-1.9766,-1.9608,-1.9539,-1.9529,-1.9381,-1.9301,1.8663,1.8286,1.8031,1.8402,1.7186,1.582,1.5615,1.3258,1.0116,0.6499,0.3965,0.1461,-0.1769,-0.1821,-0.1477,-0.1789,-0.0682,0.0185,0.0126,0.0186,0.0124,-0.0126,-0.0612,-0.09,-0.0958,-0.1592,-0.1929,-0.1754,-0.2075,-0.2705,-0.3571,-0.3634,-0.386,-0.4245,-0.4181,-0.4177,-0.4346,-0.5007,-0.5445,-0.5719,-0.5932,-0.6253,-0.6632,-0.6529,-0.6632,-0.6848,-0.7176,-0.7551,-0.7937,-0.8441,-0.86,-0.8687,-0.9259,-0.9283,-0.9128,-0.939,-0.9779,-1.0098,-0.9837,-1.0338,-1.1219,-1.1834,-1.2451,-1.3009,-1.3243,-1.3312,-1.326,-1.3494,-1.397,-1.4427,-1.4681,-1.518,-1.5675,-1.5965,-1.5754,-1.5692,-1.6132,-1.6008,-1.5797,-1.5938,-1.5929,-1.606,-1.6331,-1.6366,-1.6567,-1.7159,-1.748,-1.781,-1.8189,-1.8487,-1.8795,-1.9134,-1.9222,-1.9301,-1.9301,-1.9687,-1.9844,-1.9844,-2.0304,-2.0527,-2.0527,-2.007,-1.9844,-1.9844,-1.9539,-1.9301,-1.9301,-1.9301,-1.9301,-1.9301,-1.9301,-1.9301,1.8678,1.8287,1.808,1.8952,1.8204,1.718,1.7076,1.4673,1.2053,1.0547,0.8195,0.6103,0.5148,0.4307,0.3477,0.2771,0.2596,0.2368,0.208,0.2106,0.2026,0.1564,0.0994,0.0596,0.0531,-0.0344,-0.0729,-0.0279,-0.1059,-0.1918,-0.2785,-0.2776,-0.3016,-0.3799,-0.3514,-0.3514,-0.3796,-0.4294,-0.468,-0.4897,-0.5218,-0.5433,-0.5647,-0.576,-0.5869,-0.5928,-0.6199,-0.6524,-0.6815,-0.7112,-0.7234,-0.7379,-0.7923,-0.8043,-0.8027,-0.842,-0.8877,-0.9274,-0.9204,-0.9767,-1.0591,-1.0458,-1.1142,-1.2012,-1.2205,-1.2336,-1.252,-1.2704,-1.3283,-1.39,-1.4098,-1.4445,-1.4848,-1.4919,-1.5062,-1.5275,-1.5576,-1.5726,-1.5805,-1.5805,-1.5805,-1.5962,-1.6327,-1.6439,-1.665,-1.7501,-1.7666,-1.7856,-1.823,-1.8523,-1.8692,-1.8843,-1.9073,-1.9222,-1.9222,-1.9301,-1.9301,-1.9301,-1.9301,-1.9301,-1.9301,-1.9301,-1.9301,-1.9301,-1.9301,-1.9301,-1.9301,-1.9301,-1.9301,-1.9301,-1.9301,-1.9301,1.9282,1.8711,1.8381,1.9256,1.8869,1.819,1.7875,1.6031,1.3782,1.1777,0.9614,0.7853,0.702,0.5882,0.4938,0.4285,0.3787,0.3281,0.2602,0.2438,0.2354,0.2214,0.2047,0.183,0.1598,0.149,0.1327,0.112,0.0447,-0.0782,-0.2637,-0.2685,-0.285,-0.3186,-0.3292,-0.3458,-0.3796,-0.4398,-0.4732,-0.4897,-0.4952,-0.4725,-0.4381,-0.4119,-0.3901,-0.3729,-0.4229,-0.4728,0.0,-0.5563,-0.6119,-0.6699,-0.7081,-0.7526,-0.8027,-0.8042,-0.8565,-0.921,-0.8436,-0.8888,-0.9798,-0.9338,-1.0395,-1.1826,-1.2012,-1.1779,-1.149,-1.1802,-1.2086,-1.2248,-1.2458,-1.3079,-1.3783,-1.4129,-1.4697,-1.5204,-1.5275,-1.5505,-1.5805,-1.5805,-1.5805,-1.5814,-1.5848,-1.6203,-1.6564,-1.691,-1.7252,-1.7682,-1.7989,-1.8282,-1.8442,-1.8434,-1.8843,-1.9002,-1.9002,-1.9222,-1.9301,-1.9301,-1.9301,-1.9301,-1.9301,-1.9301,-1.9301,-1.9301,-1.9301,-1.9301,-1.9301,-1.9301,-1.9301,-1.9301,-1.9301,-1.9301,1.997,1.9624,1.9425,2.0003,1.956,1.8755,1.8049,1.6267,1.4124,1.1923,1.025,0.8758,0.7348,0.6902,0.6389,0.5312,0.4896,0.4556,0.4088,0.3996,0.3908,0.3682,0.3343,0.3065,0.3168,0.2543,0.2031,0.1738,0.1454,0.0838,-0.0223,-0.1118,-0.179,-0.2179,-0.1956,-0.2179,-0.2852,-0.2565,-0.273,-0.3292,-0.3012,-0.2954,-0.3012,-0.3012,-0.3123,-0.3345,-0.3785,-0.4229,0.0,-0.5109,-0.5425,-0.5747,-0.6048,-0.6399,-0.6732,-0.6868,-0.733,-0.7852,-0.7722,-0.8301,-0.9011,-0.9017,-0.9652,-1.0471,-1.0724,-1.073,-1.0744,-1.1115,-1.1565,-1.2044,-1.2255,-1.265,-1.3039,-1.3462,-1.397,-1.4474,-1.5054,-1.5125,-1.5054,-1.5054,-1.4697,-1.4624,-1.5348,-1.5585,-1.5873,-1.637,-1.6575,-1.6636,-1.6421,-1.6952,-1.7359,-1.7359,-1.8273,-1.8851,-1.8851,-1.9002,-1.9152,-1.9152,-1.9222,-1.9301,-1.9301,-1.9301,-1.9301,-1.9301,-1.9301,-1.9301,-1.9301,-1.9301,-1.9301,-1.9301,-1.9301,-1.9301,2.0739,2.0396,2.0093,2.0517,1.9903,1.9004,1.812,1.6267,1.4124,1.1923,1.0519,0.9138,0.7622,0.7557,0.7361,0.0,0.5872,0.5666,0.5107,0.5113,0.5089,0.487,0.4488,0.4201,0.4248,0.3369,0.2667,0.2355,0.2237,0.2014,0.1734,0.0448,-0.045,-0.0964,-0.0789,-0.1013,-0.1703,-0.1236,-0.1285,-0.1958,-0.1734,-0.1744,-0.1988,-0.2156,-0.2391,-0.2756,-0.3156,-0.354,0.0,-0.4409,-0.4704,-0.4787,-0.5193,-0.5568,-0.5886,-0.6129,-0.6412,-0.6745,-0.7068,-0.7451,-0.7902,-0.8296,-0.856,-0.8888,-0.9204,-0.9594,-0.9977,-1.0295,-1.0903,-1.1512,-1.2012,-1.2216,-1.2445,-1.2879,-1.3164,-1.3448,-1.4178,-1.4243,-1.4171,-1.4171,-1.3818,-1.3747,-1.4576,-1.4782,-1.5008,-1.5413,-1.5568,-1.5602,-1.5286,-1.5807,-1.6254,-1.6281,-1.7367,-1.8282,-1.8612,-1.8603,-1.8674,-1.9002,-1.9152,-1.9222,-1.9301,-1.9301,-1.9301,-1.9301,-1.9301,-1.9301,-1.9301,-1.9301,-1.9301,-1.9301,-1.9301,-1.9301,2.1591,2.0823,2.0093,2.0517,1.984,1.8891,1.8068,1.6212,1.4022,1.1923,1.0273,0.8949,0.8062,0.7901,0.7546,0.6549,0.6578,0.6361,0.5443,0.5303,0.5339,0.547,0.538,0.5118,0.4648,0.4089,0.359,0.3137,0.2736,0.2571,0.2691,0.179,0.1021,0.0469,0.0057,-0.0341,-0.0587,-0.0909,-0.1174,-0.1285,-0.1621,-0.165,-0.141,-0.1527,-0.1554,-0.1476,-0.197,-0.236,0.0,-0.3233,-0.3701,-0.4063,-0.4553,-0.5126,-0.5724,-0.6086,-0.6145,-0.6145,-0.635,-0.6408,-0.6461,-0.6793,-0.7051,-0.7312,-0.7637,-0.8361,-0.9081,-0.9274,-0.9704,-1.0369,-1.141,-1.1708,-1.1855,-1.2452,-1.2439,-1.2345,-1.2345,-1.2792,-1.323,-1.323,-1.3382,-1.3535,-1.3542,-1.3807,-1.4021,-1.4035,-1.4377,-1.4687,-1.4933,-1.4969,-1.5102,-1.5357,-1.6206,-1.7196,-1.8273,-1.7772,-1.7844,-1.8922,-1.9002,-1.9073,-1.9301,-1.9301,-1.9301,-1.9301,-1.9301,-1.9301,-1.9301,-1.9301,-1.9301,-1.9301,-1.9301,-1.9301,2.1454,2.0996,2.0521,2.016,1.9271,1.8266,1.7411,1.5417,1.3403,1.2164,1.0679,0.9354,0.8521,0.8368,0.8197,0.7644,0.7614,0.0,0.7324,0.7174,0.6921,0.6647,0.6073,0.5582,0.5262,0.4857,0.4321,0.3644,0.3461,0.3352,0.3304,0.2796,0.2133,0.1306,0.0956,0.045,-0.0341,0.0169,0.0056,-0.056,-0.0401,-0.0408,-0.0648,-0.0783,-0.1039,-0.1417,-0.1848,-0.2181,-0.2354,-0.2648,-0.288,-0.3119,-0.3157,-0.3501,-0.4051,-0.4501,-0.4749,-0.4951,-0.5617,-0.5943,-0.6133,-0.6593,-0.6981,-0.7246,-0.7312,-0.7832,-0.8452,-0.9079,-0.9429,-0.9816,-1.0348,-1.0539,-1.0812,-1.126,-1.1552,-1.1768,-1.2198,-1.2204,-1.2218,-1.2365,-1.1996,-1.1842,-1.2586,-1.2742,-1.2879,-1.3086,-1.3189,-1.3206,-1.2955,-1.3568,-1.4137,-1.4241,-1.4587,-1.5289,-1.6296,-1.687,-1.7277,-1.761,-1.7772,-1.8184,-1.8843,-1.8922,-1.8922,-1.9073,-1.9073,-1.9152,-1.9301,-1.9301,-1.8975,-1.8407,-1.9054,-1.8975,2.1053,2.083,2.0369,1.9897,1.8734,1.7464,1.6532,1.471,1.2849,1.176,1.0501,0.9354,0.8732,0.8468,0.8245,0.7903,0.7886,0.8001,0.8069,0.7994,0.7848,0.7597,0.6802,0.6165,0.5755,0.5483,0.5006,0.4144,0.4239,0.4294,0.4076,0.3855,0.3405,0.2734,0.2178,0.163,0.1081,0.152,0.1455,0.0839,0.1041,0.0946,0.0539,0.0309,-0.0063,-0.0509,-0.1083,-0.1431,0.0,-0.1854,-0.2078,-0.2296,-0.2308,-0.2627,-0.3219,-0.3708,-0.3951,-0.4087,-0.4951,-0.515,-0.5213,-0.5738,-0.6133,-0.6396,-0.6264,-0.6854,-0.7666,-0.8067,-0.847,-0.8886,-0.9301,-0.959,-0.9992,-1.0438,-1.0738,-1.0956,-1.1316,-1.1254,-1.1186,-1.1335,-1.0962,-1.0887,-1.1632,-1.1706,-1.1838,-1.2086,-1.2037,-1.1916,-1.1739,-1.2313,-1.2898,-1.311,-1.3616,-1.4011,-1.4378,-1.5296,-1.6041,-1.6453,-1.6698,-1.7025,-1.7683,-1.7683,-1.7934,-1.8425,-1.8496,-1.8745,-1.9152,-1.9152,-1.8736,-1.7925,-1.8416,-1.8247,0.0,2.019,1.9672,1.9602,1.8187,1.6528,1.5528,1.3946,0.0,1.0965,0.9865,0.9113,0.8758,0.824,0.7858,0.7694,0.7773,0.7917,0.7966,0.8077,0.8269,0.8379,0.7591,0.6832,0.6195,0.6032,0.5575,0.4691,0.5062,0.5226,0.4952,0.4794,0.4688,0.4574,0.3572,0.3119,0.3217,0.3008,0.2796,0.2521,0.2427,0.2205,0.1906,0.1457,0.1241,0.1075,0.0134,-0.0259,-0.0246,-0.0862,-0.1269,-0.1532,-0.1766,-0.2256,-0.2898,-0.3377,-0.3482,-0.342,-0.4156,-0.409,-0.3756,-0.4359,-0.4755,-0.4954,-0.4691,-0.5613,-0.6798,-0.6482,-0.6954,-0.7664,-0.8277,-0.8827,-0.9397,-0.9992,-0.9992,-0.9846,-0.9922,-1.0067,-1.0143,-1.0218,-1.0368,-1.0519,-1.0738,-1.0812,-1.0887,-1.1037,-1.0887,-1.0906,-1.139,-1.1289,-1.1485,-1.2122,-1.3028,-1.3322,-1.2741,-1.3529,-1.4455,-1.553,-1.5613,-1.5688,-1.5921,-1.5921,-1.6347,-1.7269,-1.7504,-1.7997,-1.8754,-1.8754,-1.8345,-1.7529,-1.7529,-1.7196,1.8416,0.0,1.8373,1.7505,1.6625,1.5648,0.0,1.3062,1.199,1.1259,1.0079,0.9228,0.935,0.8741,0.836,0.8965,0.9227,0.946,0.9691,0.9354,0.9089,0.9086,0.8354,0.7757,0.7461,0.7021,0.6435,0.5723,0.5555,0.5449,0.5226,0.4956,0.4901,0.4959,0.4736,0.4303,0.368,0.3237,0.3056,0.3011,0.2628,0.2325,0.2027,0.1549,0.1217,0.1073,0.0192,-0.0187,-0.0185,-0.0308,-0.0484,-0.0651,-0.05,-0.0705,-0.1099,-0.1395,-0.1544,-0.1745,-0.2146,-0.2211,-0.228,-0.3418,-0.3889,-0.4156,-0.4289,-0.5219,-0.6148,-0.6214,-0.6676,-0.7237,-0.7664,-0.8107,-0.856,-0.9322,-0.9473,-0.9544,-0.9846,-0.9922,-0.9992,-1.0143,-1.0218,-1.0293,-1.0519,-1.0594,-1.0663,-1.0812,-1.0663,-1.0692,-1.0901,-1.0941,-1.1114,-1.1388,-1.199,-1.2419,-1.2397,-1.3419,-1.4126,-1.4371,-1.4378,-1.4713,-1.5545,-1.5545,-1.5711,-1.6116,-1.6257,-1.6503,-1.6748,-1.6748,-1.6257,-1.5448,-1.6101,-1.6018,1.6557,1.6995,1.7259,1.6672,1.5596,1.4459,1.3443,1.2423,1.1519,1.1023,0.9991,0.9302,0.9555,0.9114,0.8837,0.9415,0.9746,0.9959,1.0233,1.0019,0.9747,0.9574,0.8902,0.83,0.7761,0.7531,0.7109,0.6317,0.6372,0.6322,0.5937,0.5723,0.5618,0.5622,0.5403,0.5053,0.4402,0.4104,0.394,0.3894,0.3548,0.3252,0.3069,0.2444,0.2068,0.1934,0.1061,0.0611,0.0543,0.049,0.0305,0.0,0.019,0.0065,-0.0198,-0.0535,-0.0672,-0.0806,-0.1274,-0.1609,-0.1811,-0.2415,-0.2952,-0.3288,-0.3284,-0.4018,-0.4885,-0.5216,-0.5703,-0.6233,-0.6448,-0.6841,-0.7399,-0.8165,-0.8318,-0.847,-0.8998,-0.8922,-0.8922,-0.9382,-0.9533,-0.9685,-1.0288,-1.0368,-1.0438,-1.0663,-1.0513,-1.0443,-1.0663,-1.0644,-1.0704,-1.1057,-1.1311,-1.1647,-1.2129,-1.2773,-1.3155,-1.3366,-1.3372,-1.3626,-1.4132,-1.4132,-1.4461,-1.5115,-1.5606,-1.5846,-1.5846,-1.5846,-1.544,-1.4545,-1.5039,-1.4873,1.5006,1.5513,1.6069,1.6071,1.4835,1.3426,1.2735,0.0,0.0,1.0514,0.9874,0.9425,0.957,0.9478,0.946,0.9615,0.9781,0.9989,1.0195,1.0255,1.0105,0.9767,0.9284,0.8625,0.7796,0.7882,0.7729,0.7074,0.7456,0.7515,0.7025,0.6756,0.6598,0.6445,0.6055,0.5723,0.5449,0.5175,0.4971,0.4782,0.4713,0.4602,0.4345,0.3781,0.3413,0.3256,0.0,0.0,0.1653,0.1583,0.1234,0.0743,0.0834,0.0725,0.047,0.0067,-0.0067,-0.0134,-0.0738,-0.1341,-0.1677,-0.1546,-0.1949,-0.2485,-0.2149,-0.2549,-0.3288,-0.3773,-0.4474,-0.5156,-0.518,-0.5663,-0.624,-0.6934,-0.7084,-0.7238,-0.7851,-0.7698,-0.7693,-0.8389,-0.8546,-0.8775,-0.9604,-0.976,-0.9836,-1.0056,-0.9986,-1.0067,-1.0212,-1.0212,-1.0301,-1.0755,-1.0812,-1.1174,-1.1805,-1.1958,-1.2176,-1.2601,-1.2705,-1.2705,-1.2705,-1.2705,-1.3118,-1.4112,-1.4866,-1.5199,-1.5199,-1.5199,-1.4873,-1.4139,-1.4139,-1.3893,1.4549,1.4296,1.4199,1.4067,1.3794,1.3236,1.185,1.1418,1.1065,1.0079,1.0045,1.0079,0.9552,1.0246,1.0718,1.0149,1.0102,1.0182,1.0293,0.9886,0.9506,0.9228,0.892,0.874,0.8745,0.8581,0.8573,0.8784,0.8672,0.8514,0.8309,0.8031,0.7711,0.7456,0.7283,0.7117,0.6961,0.6213,0.5588,0.5113,0.5763,0.578,0.5135,0.4904,0.4711,0.4572,0.0,0.3273,0.2936,0.3032,0.2703,0.2102,0.2287,0.2074,0.1677,0.1546,0.1344,0.1008,0.0606,-0.0135,-0.0941,-0.0941,-0.1277,-0.1748,-0.168,-0.1748,-0.1891,-0.2075,-0.3405,-0.4882,-0.5294,-0.5512,-0.5777,-0.624,-0.6468,-0.6773,-0.7238,-0.7387,-0.754,-0.7693,-0.7693,-0.777,-0.7918,-0.7923,-0.7999,-0.8219,-0.8613,-0.9003,-0.9231,-0.9614,-1.0008,-1.0273,-1.0533,-1.0858,-1.1393,-1.1611,-1.1925,-1.2431,-1.2619,-1.2705,-1.2705,-1.2705,-1.279,-1.2954,-1.3118,-1.3124,-1.3124,-1.3124,-1.3124,-1.296,-1.296,-1.3045,1.307,1.2939,1.2757,1.2544,1.261,1.2565,1.1774,1.1467,1.128,1.0786,1.0699,1.0639,1.0441,1.1041,1.1515,1.1335,1.1049,1.0821,1.0844,1.0518,1.0194,0.984,0.9548,0.9312,0.9126,0.8971,0.9001,0.9211,0.9099,0.889,0.8626,0.8461,0.8196,0.7824,0.7605,0.7492,0.7391,0.7176,0.6693,0.5965,0.6246,0.6137,0.5669,0.5254,0.4968,0.4758,0.0,0.3548,0.3154,0.3311,0.307,0.2597,0.2692,0.275,0.2878,0.3147,0.2882,0.2484,0.2216,0.1678,0.1074,0.0805,0.0403,-0.0067,-0.0134,-0.047,-0.095,-0.1274,-0.2522,-0.3801,-0.4052,-0.4382,-0.4771,-0.524,-0.5315,-0.5389,-0.5928,-0.6005,-0.6083,-0.6538,-0.6696,-0.693,-0.7387,-0.7464,-0.754,-0.7613,-0.7846,-0.808,-0.8156,-0.8846,-0.9155,-0.8765,-0.9621,-1.0252,-1.0248,-1.0897,-1.1615,-1.2339,-1.2619,-1.2705,-1.2705,-1.2705,-1.2705,-1.2705,-1.2705,-1.2705,-1.2705,-1.2705,-1.2705,-1.2705,-1.2705,-1.279,1.1683,1.1801,1.1787,1.1383,1.1589,1.1873,1.1726,1.1524,1.1392,1.1359,1.1226,1.1125,1.1145,1.1515,1.1948,1.2362,1.1819,1.1329,1.1248,1.1024,1.0739,1.0294,0.998,0.971,0.9396,0.9361,0.9368,0.9472,0.9524,0.9413,0.9152,0.8995,0.883,0.8652,0.8336,0.8171,0.8277,0.8442,0.7913,0.6696,0.6794,0.6681,0.6303,0.5814,0.5437,0.5167,0.4567,0.4018,0.3646,0.3741,0.3539,0.3213,0.3322,0.3597,0.4079,0.4342,0.4079,0.3553,0.3351,0.3017,0.2684,0.2348,0.1879,0.1479,0.1344,0.0672,-0.0068,-0.0431,-0.1382,-0.2419,-0.2877,-0.3403,-0.3919,-0.4389,-0.4311,-0.4233,-0.4696,-0.4696,-0.4774,-0.5464,-0.5696,-0.6086,-0.6696,-0.685,-0.693,-0.693,-0.708,-0.7234,-0.7234,-0.7927,-0.8237,-0.7851,-0.8689,-0.9336,-0.9365,-1.0246,-1.1222,-1.2169,-1.2448,-1.2619,-1.2619,-1.2705,-1.2705,-1.2705,-1.2705,-1.2705,-1.2705,-1.2705,-1.2705,-1.2705,-1.2705,-1.2705,1.0911,1.1141,1.1389,1.0729,1.098,1.1326,1.1344,1.1202,1.1013,1.0933,1.1468,1.1634,1.083,1.1199,1.1905,1.2557,1.2115,1.1488,1.1024,1.0711,1.03,0.9709,0.9625,0.9648,0.9747,0.9762,0.9925,1.036,1.0419,1.0514,1.071,1.0198,1.0249,1.0947,1.032,1.0167,1.0541,1.0466,0.9207,0.6907,0.7824,0.7883,0.7176,0.7025,0.6869,0.6712,0.5955,0.5462,0.5144,0.5037,0.4904,0.4748,0.5091,0.5104,0.4954,0.4815,0.435,0.3756,0.3553,0.3215,0.2882,0.2684,0.235,0.2013,0.1878,0.1477,0.102,0.0932,0.0363,-0.0661,-0.2629,-0.3446,-0.3841,-0.3841,-0.3999,-0.4079,-0.4157,-0.4309,-0.4462,-0.446,-0.4696,-0.4854,-0.4854,-0.509,-0.5171,-0.5171,-0.5783,-0.6318,-0.6318,-0.7084,-0.7851,-0.8546,-0.808,-0.8147,-0.9328,-0.9897,-1.0642,-1.1682,-1.2198,-1.2448,-1.2448,-1.2619,-1.2705,-1.2705,-1.2705,-1.2705,-1.2705,-1.2705,-1.2705,-1.2705,-1.2705,-1.2705,1.0617,1.1141,1.1623,1.1627,1.1809,1.1913,1.1408,1.1469,1.1676,1.1727,1.2085,1.2303,1.2212,1.2067,1.2203,1.2868,1.227,1.1674,1.1594,1.1148,1.0829,1.0949,1.0772,1.0788,1.115,1.1191,1.1242,1.141,1.1368,1.1368,1.136,1.1065,1.1006,1.12,1.088,1.0728,1.0804,1.0677,1.0092,0.9058,0.9384,0.9235,0.8712,0.8501,0.8184,0.7765,0.723,0.6745,0.6381,0.6257,0.6098,0.5969,0.6339,0.6185,0.5749,0.6013,0.5683,0.509,0.502,0.4686,0.4217,0.409,0.3689,0.3288,0.3153,0.2415,0.1556,0.1544,0.0789,-0.0147,-0.1006,-0.1957,-0.2818,-0.2818,-0.3368,-0.3921,-0.3921,-0.4077,-0.4233,-0.4233,-0.4387,-0.454,-0.454,-0.4698,-0.4779,-0.4779,-0.5168,-0.5476,-0.5476,-0.6163,-0.6626,-0.6402,-0.6638,-0.7497,-0.9127,-0.959,-1.0059,-1.0544,-1.1596,-1.2203,-1.2363,-1.2448,-1.2534,-1.2705,-1.2705,-1.2705,-1.2705,-1.2705,-1.2705,-1.2705,-1.2705,-1.2705,1.0297,1.1071,1.1774,1.2192,1.2384,1.2299,1.1822,1.1938,1.2217,1.2633,1.286,1.2984,1.2924,1.2531,1.2352,1.2672,1.2257,1.1897,1.1914,1.1666,1.1578,1.1826,1.1676,1.171,1.2178,1.2187,1.2236,1.2404,1.2325,1.2286,1.2267,1.208,1.203,1.2169,1.1855,1.1706,1.1724,1.1566,1.1416,1.1266,1.1216,1.0712,0.9909,0.9681,0.9356,0.8894,0.8416,0.8047,0.7694,0.7384,0.7175,0.7068,0.7223,0.7039,0.6651,0.6854,0.6482,0.5954,0.5888,0.5624,0.5156,0.4894,0.4561,0.4228,0.4028,0.3286,0.2496,0.229,0.1639,0.0881,0.0766,-0.0467,-0.1721,-0.18,-0.2348,-0.2899,-0.2978,-0.3292,-0.3608,-0.3608,-0.3997,-0.4309,-0.4309,-0.4465,-0.4621,-0.4701,-0.4779,-0.4937,-0.5018,-0.5476,-0.5643,-0.5145,-0.5854,-0.695,-0.84,-0.8703,-0.9119,-0.9845,-1.0819,-1.1602,-1.2198,-1.2198,-1.2369,-1.2619,-1.2619,-1.2619,-1.2705,-1.2705,-1.2705,-1.2705,-1.2705,-1.2705,0.991,1.0789,1.1817,1.22,1.2298,1.2343,1.2569,1.2511,1.2609,1.3399,1.3684,1.358,1.2724,1.2431,1.2212,1.2065,1.2167,1.2189,1.1893,1.2289,1.2437,1.2045,1.2008,1.2236,1.2773,1.2696,1.2831,1.3297,1.3175,1.3301,1.37,1.3195,1.3348,1.4247,1.3616,1.3416,1.3815,1.3552,1.3314,1.3218,1.3218,1.2316,1.0618,1.0554,1.0394,1.0179,0.96,0.9231,0.9082,0.841,0.8057,0.7977,0.7804,0.7685,0.7669,0.7131,0.6613,0.621,0.602,0.5693,0.5362,0.4964,0.4831,0.4764,0.4434,0.4097,0.3713,0.3403,0.3139,0.2857,0.2478,0.0922,-0.0627,-0.0862,-0.0862,-0.094,-0.1254,-0.196,-0.251,-0.251,-0.3374,-0.4079,-0.4079,-0.4231,-0.4462,-0.4698,-0.4701,-0.4779,-0.4937,-0.5018,-0.5061,-0.5173,-0.591,-0.6593,-0.6973,-0.7001,-0.7838,-0.9758,-0.9859,-1.0472,-1.1613,-1.1871,-1.2123,-1.2363,-1.2363,-1.2534,-1.2705,-1.2705,-1.2705,-1.2705,-1.2705,-1.2705,1.075,1.1702,1.2596,1.2868,1.3111,1.3253,1.2989,1.2878,1.2878,1.3213,1.3212,1.3137,1.2972,1.2917,1.2949,1.3204,1.3101,1.3101,1.3326,1.3283,1.3337,1.3616,1.3595,1.3841,1.4376,1.4283,1.4283,1.44,1.4226,1.4143,1.4247,1.4003,1.3993,1.4294,1.3967,1.3768,1.3815,1.3552,1.3314,1.3218,1.3467,1.3064,1.2012,1.1994,1.1697,1.1174,1.0797,1.0501,1.0261,0.9592,0.9038,0.8633,0.8808,0.871,0.8477,0.8398,0.8161,0.7772,0.7512,0.7251,0.699,0.6597,0.6338,0.6079,0.5877,0.5084,0.4298,0.3926,0.3326,0.278,0.2418,0.1951,0.1304,0.039,-0.0392,-0.094,-0.1254,-0.1489,-0.1646,-0.1646,-0.2352,-0.2981,-0.2981,-0.3684,-0.4233,-0.4233,-0.4387,-0.4543,-0.4779,-0.5004,-0.5388,-0.5984,-0.5918,-0.606,-0.6816,-0.701,-0.7355,-0.7925,-0.8544,-0.9772,-1.1613,-1.1785,-1.1952,-1.2363,-1.2363,-1.2534,-1.2705,-1.2705,-1.2705,-1.2705,-1.2705,-1.2705,1.1422,1.2358,1.3153,1.3461,1.3889,1.4181,1.3972,1.3608,1.3243,1.303,1.333,1.3527,1.3312,1.338,1.3562,1.376,1.3731,1.3795,1.4077,1.4131,1.425,1.4595,1.4755,1.5073,1.5611,1.5599,1.5664,1.5852,1.5599,1.5433,1.5433,1.5389,1.5344,1.5344,1.5062,1.4869,1.4767,1.4503,1.4318,1.4226,1.4444,1.4236,1.369,1.3341,1.2822,1.2236,1.1891,1.1443,1.0956,1.0541,1.0038,0.9451,0.9415,0.9369,0.918,0.8879,0.8717,0.8549,0.8156,0.7897,0.7642,0.7312,0.699,0.6671,0.6465,0.5811,0.5024,0.4613,0.4167,0.3587,0.3036,0.2819,0.2509,0.1403,0.0627,0.0157,-0.0235,-0.0549,-0.0784,-0.0784,-0.1489,-0.2038,-0.2038,-0.2823,-0.3528,-0.3604,-0.4073,-0.4462,-0.4543,-0.4795,-0.5203,-0.5819,-0.56,-0.5653,-0.6306,-0.6477,-0.67,-0.7054,-0.7669,-0.8719,-1.0381,-1.0819,-1.1343,-1.2118,-1.2118,-1.2283,-1.2619,-1.2619,-1.2619,-1.2705,-1.2705,-1.2705,1.1969,1.2819,1.356,1.3979,1.4518,1.4958,1.5066,1.439,1.3599,1.309,1.3872,1.4485,1.3729,1.3899,1.4136,1.4035,1.4264,1.4527,1.4607,1.5062,1.5367,1.5367,1.5652,1.6065,1.6587,1.6689,1.6886,1.734,1.7131,1.7031,1.7031,1.6989,1.6989,1.6989,1.6612,1.6429,1.6429,1.6083,1.5908,1.5908,1.5788,1.5656,1.5466,1.4547,1.381,1.3266,1.2803,1.2166,1.1418,1.1418,1.1015,1.0391,0.9857,0.9771,0.9833,0.8999,0.876,0.8832,0.8345,0.8091,0.7837,0.7507,0.719,0.6802,0.6662,0.6276,0.5885,0.5477,0.5312,0.4969,0.4032,0.3693,0.341,0.2418,0.2043,0.1807,0.1415,0.0706,0.0157,0.0157,-0.0548,-0.1175,-0.1175,-0.1882,-0.2508,-0.274,-0.3679,-0.4384,-0.4384,-0.4477,-0.4663,-0.502,-0.5132,-0.5333,-0.5633,-0.5733,-0.6086,-0.6877,-0.6966,-0.7404,-0.8368,-0.9331,-1.0472,-1.1527,-1.1699,-1.1952,-1.2363,-1.2363,-1.2448,-1.2705,-1.2705,-1.2705,1.2775,1.3468,1.3905,1.401,1.4221,1.4457,1.4504,1.4316,1.4174,1.4247,1.441,1.4537,1.446,1.4507,1.4846,1.5626,1.5832,1.6164,1.6954,1.7146,1.7242,1.7242,1.7312,1.7394,1.7489,1.7666,1.7814,1.7907,1.792,1.7906,1.7906,1.7854,1.7827,1.7827,1.745,1.722,1.722,1.6918,1.6722,1.6663,1.6621,1.6536,1.6293,1.5344,1.449,1.3826,1.3589,1.3102,1.2482,1.2374,1.203,1.1619,1.1242,1.0949,1.0801,1.0425,1.0255,1.0104,0.9705,0.953,0.9466,0.9081,0.8571,0.8122,0.8052,0.733,0.6478,0.6009,0.5634,0.5184,0.4728,0.4589,0.4515,0.4178,0.2979,0.1808,0.1572,0.1257,0.1021,0.1021,0.0314,-0.0313,-0.0313,-0.1019,-0.1803,-0.243,-0.345,-0.4155,-0.4155,-0.44,-0.4666,-0.4775,-0.5049,-0.5247,-0.5453,-0.5644,-0.5822,-0.5997,-0.5997,-0.6438,-0.7404,-0.8982,-1.012,-1.0559,-1.1348,-1.1871,-1.2123,-1.2283,-1.2448,-1.2448,-1.2619,-1.2705,1.319,1.3868,1.4329,1.4744,1.4983,1.5164,1.5421,1.5511,1.5567,1.57,1.522,1.4869,1.5107,1.5454,1.594,1.6659,1.6912,1.7175,1.7747,1.7787,1.7868,1.7987,1.8198,1.8394,1.8496,1.865,1.8826,1.9022,1.8933,1.8858,1.8858,1.8835,1.8797,1.8797,1.8503,1.8373,1.8373,1.8087,1.7825,1.7558,1.7504,1.7218,1.6659,1.5676,1.4835,1.4165,1.4025,1.3589,1.2967,1.2909,1.256,1.2089,1.1754,1.1644,1.1531,1.1145,1.1206,1.1383,1.0948,1.0864,1.08,1.0288,0.9652,0.9081,0.8829,0.8047,0.7265,0.7064,0.6601,0.6133,0.562,0.5525,0.5416,0.4947,0.3726,0.2511,0.2275,0.1805,0.1415,0.1335,0.0942,0.0628,0.0628,-0.0078,-0.094,-0.1803,-0.2744,-0.3372,-0.3372,-0.3879,-0.4394,-0.4527,-0.4839,-0.5041,-0.5186,-0.546,-0.5552,-0.5552,-0.5644,-0.5908,-0.6438,-0.7841,-0.9069,-1.012,-1.0559,-1.117,-1.1871,-1.2037,-1.2198,-1.2363,-1.2534,-1.2619,1.3487,1.4227,1.4846,1.572,1.5976,1.6207,1.6595,1.6778,1.6876,1.6876,1.6132,1.5501,1.5776,1.6355,1.6921,1.7325,1.7652,1.7908,1.7988,1.8068,1.8198,1.8416,1.8788,1.9155,1.9419,1.9594,1.9808,2.0078,1.9939,1.9834,1.9834,1.9798,1.9814,1.9814,1.9671,1.9528,1.9434,1.9273,1.8991,1.85,1.8355,1.7827,1.6993,1.6219,1.5342,1.4479,1.4444,1.4071,1.3457,1.3457,1.3054,1.2463,1.211,1.2031,1.2096,1.1587,1.1765,1.2274,1.187,1.176,1.1677,1.1024,1.0338,0.9709,0.9145,0.8565,0.8052,0.7987,0.7661,0.7179,0.6551,0.6522,0.6342,0.5612,0.4683,0.3754,0.3207,0.2585,0.1962,0.1649,0.1414,0.1335,0.1335,0.0549,-0.0235,-0.094,-0.1803,-0.2353,-0.251,-0.3256,-0.3932,-0.4281,-0.4526,-0.4727,-0.4921,-0.5191,-0.5371,-0.5371,-0.5552,-0.5644,-0.5733,-0.6438,-0.7665,-0.9419,-0.9593,-1.0207,-1.1348,-1.1435,-1.1774,-1.2283,-1.2363,-1.2448,1.3789,1.4759,1.5477,1.6213,1.6423,1.6466,1.668,1.671,1.6765,1.6876,1.6791,1.665,1.6735,1.682,1.7031,1.7544,1.7988,1.8383,1.886,1.9236,1.9457,1.9515,1.9566,1.9732,2.007,2.0311,2.0481,2.0514,2.0648,2.0714,2.0714,2.0663,2.0646,2.0646,2.0731,2.0499,1.9904,2.0015,1.9788,1.9265,1.9064,1.8577,1.7828,1.7733,1.6799,1.5322,1.5334,1.5006,1.4512,1.443,1.415,1.3668,1.2957,1.255,1.2299,1.18,1.1764,1.1938,1.19,1.182,1.1677,1.1024,1.0338,0.9709,0.9145,0.8765,0.8382,0.8052,0.7922,0.7775,0.7455,0.7442,0.7494,0.7245,0.6587,0.5767,0.4686,0.4219,0.375,0.2817,0.1883,0.1335,0.1335,0.0549,-0.0078,-0.0157,-0.094,-0.1724,-0.2431,-0.2647,-0.3121,-0.3942,-0.4295,-0.4566,-0.4741,-0.4924,-0.5191,-0.5371,-0.546,-0.5552,-0.5733,-0.5822,-0.6349,-0.7489,-0.8281,-0.9157,-1.012,-1.0381,-1.0906,-1.1785,-1.2198,-1.2448,1.4239,1.5181,1.5868,1.6373,1.6552,1.668,1.7002,1.7323,1.7557,1.7679,1.7828,1.7868,1.7557,1.7774,1.8159,1.8588,1.8921,1.9161,1.9384,1.9581,1.9818,2.0154,2.0189,2.0379,2.0862,2.1007,2.1119,2.1323,2.1339,2.1355,2.1355,2.1261,2.1182,2.1182,2.1214,2.1087,2.0778,2.0811,2.053,1.9975,1.953,1.8959,1.8198,1.8054,1.738,1.6262,1.6207,1.58,1.5187,1.5108,1.4662,1.3973,1.3515,1.316,1.2793,1.251,1.2477,1.2717,1.2779,1.2655,1.2454,1.202,1.1469,1.0793,1.0288,0.9716,0.9145,0.8823,0.8371,0.7942,0.7579,0.7702,0.7895,0.7699,0.7501,0.7246,0.6553,0.5461,0.4217,0.3051,0.2429,0.196,0.1414,0.1021,0.0706,0.0706,0.0,-0.0705,-0.1019,-0.1537,-0.2242,-0.3188,-0.3464,-0.3813,-0.4387,-0.4656,-0.4926,-0.5018,-0.5282,-0.546,-0.5552,-0.5644,-0.5911,-0.6349,-0.7228,-0.8193,-0.9157,-0.9772,-1.0381,-1.0906,-1.1688,-1.2118,1.459,1.5536,1.6163,1.6612,1.6892,1.7131,1.7461,1.7949,1.8333,1.8397,1.8707,1.8822,1.8422,1.864,1.9006,1.9339,1.966,1.9839,1.9929,2.005,2.0277,2.0714,2.0795,2.0975,2.1524,2.154,2.1601,2.184,2.1768,2.1694,2.1648,2.1554,2.1493,2.1493,2.1524,2.1448,2.1293,2.1135,2.0811,2.0308,1.9854,1.9281,1.865,1.8486,1.7988,1.7282,1.6892,1.638,1.5756,1.5724,1.5187,1.4326,1.4222,1.3931,1.3589,1.3238,1.3273,1.3555,1.3525,1.3432,1.3188,1.2893,1.2405,1.1802,1.1178,1.0604,1.0028,0.9709,0.9134,0.8495,0.7972,0.8063,0.8224,0.7858,0.7924,0.7964,0.7791,0.6318,0.4763,0.375,0.3363,0.2895,0.1883,0.1649,0.157,0.1335,0.0785,0.0236,0.0,-0.0574,-0.1347,-0.2285,-0.2716,-0.3224,-0.3851,-0.4389,-0.4659,-0.4661,-0.5104,-0.5371,-0.5371,-0.5552,-0.5733,-0.5733,-0.6349,-0.7228,-0.8105,-0.8807,-0.9506,-1.0207,-1.0997,-1.1516,1.4854,1.5672,1.6452,1.7177,1.7666,1.7948,1.7948,1.8279,1.863,1.8745,1.9101,1.9376,1.9339,1.9109,1.9029,1.9353,1.9849,2.0296,2.0585,2.0975,2.1229,2.1276,2.126,2.1401,2.1751,2.1781,2.1768,2.1708,2.1708,2.1648,2.1524,2.1493,2.1493,2.1493,2.1735,2.1584,2.0926,2.0613,2.0342,2.01,2.0025,1.9797,1.9442,1.9406,1.9072,1.8344,1.731,1.665,1.6269,1.6269,1.5876,1.5287,1.5186,1.5017,1.472,1.4014,1.3928,1.4094,1.3792,1.3654,1.346,1.2953,1.2536,1.2112,1.1233,1.0982,1.0856,1.0521,1.0332,0.9952,0.893,0.8678,0.8591,0.7967,0.7816,0.7794,0.7524,0.6623,0.5844,0.5767,0.4991,0.3984,0.2895,0.274,0.2429,0.1414,0.1257,0.095,0.0081,-0.0083,-0.0508,-0.1298,-0.2299,-0.2957,-0.2957,-0.3762,-0.4389,-0.4661,-0.4924,-0.5099,-0.5371,-0.5552,-0.5733,-0.5733,-0.5733,-0.6263,-0.7139,-0.7228,-0.8193,-0.9946,-1.0207,-1.0381,1.4929,1.6032,1.7134,1.7652,1.8082,1.8383,1.8344,1.863,1.9011,1.9325,1.9666,2.0015,2.0326,2.0104,1.9965,2.0089,2.0465,2.0764,2.0878,2.1023,2.1229,2.1509,2.1462,2.1584,2.2007,2.1974,2.1911,2.1882,2.184,2.1811,2.1764,2.1721,2.1691,2.1691,2.1781,2.1661,2.134,2.1023,2.0827,2.0761,2.0357,2.003,1.9737,1.9536,1.9109,1.8461,1.7988,1.7338,1.6625,1.6582,1.6095,1.5389,1.5332,1.5164,1.4812,1.4154,1.3931,1.3941,1.3748,1.3542,1.3365,1.3551,1.3216,1.2674,1.2359,1.1926,1.1421,1.1087,1.0647,1.0148,0.9576,0.945,0.9276,0.876,0.8291,0.7942,0.7706,0.7249,0.6703,0.6002,0.5613,0.4838,0.3287,0.2896,0.2507,0.1649,0.1415,0.1189,0.0892,0.083,0.0509,-0.0347,-0.0796,-0.1523,-0.2777,-0.3226,-0.3673,-0.4389,-0.4659,-0.4924,-0.5099,-0.5371,-0.5552,-0.5733,-0.5733,-0.5908,-0.6171,-0.6789,-0.7404,-0.8105,-0.9419,-1.012,1.4891,1.6,1.7139,1.7836,1.8268,1.8564,1.8703,1.9011,1.942,1.9793,2.0054,2.0345,2.0763,2.0811,2.0794,2.0811,2.1023,2.1229,2.1306,2.1337,2.1446,2.1751,2.1705,2.1794,2.2106,2.2044,2.1998,2.1969,2.1928,2.1899,2.1869,2.1811,2.1797,2.1797,2.1768,2.1664,2.1481,2.123,2.1071,2.099,2.061,2.0323,2.0089,1.9839,1.9369,1.8693,1.8577,1.7921,1.7005,1.6934,1.6552,1.5876,1.5876,1.57,1.5355,1.4709,1.4422,1.432,1.4182,1.4014,1.3933,1.4329,1.3992,1.339,1.3268,1.2666,1.1988,1.1787,1.1344,1.078,1.0338,1.0099,0.9849,0.9488,0.8936,0.8475,0.8255,0.7868,0.7326,0.6546,0.6468,0.5925,0.4297,0.3906,0.3441,0.2196,0.1883,0.1663,0.138,0.1329,0.1104,0.052,0.0177,-0.0627,-0.2239,-0.2688,-0.3314,-0.4208,-0.4569,-0.4748,-0.4924,-0.5193,-0.5463,-0.5555,-0.5644,-0.5733,-0.5733,-0.6349,-0.6789,-0.7139,-0.8368,-0.9069,0.0,0.0,0.0,1.7673,1.8238,1.8561,1.903,1.9435,1.9818,2.0154,2.0208,2.0345,2.0761,2.1087,2.134,2.1386,2.1462,2.1598,2.194,2.1982,2.1998,2.2027,2.2027,2.1982,2.2027,2.2027,2.1969,2.1899,2.1882,2.1869,2.1797,2.1797,2.1797,2.1797,2.1664,2.1481,2.1294,2.1167,2.099,2.0794,2.0711,2.061,2.0494,2.0441,1.994,1.9101,1.8983,1.8394,1.7516,1.7432,1.7225,1.6918,1.6918,1.6748,1.6423,1.5656,1.5389,1.5393,1.515,1.5081,1.5143,1.5335,1.4855,1.4145,1.3837,1.3191,1.2621,1.2629,1.2375,1.1926,1.1212,1.0679,1.029,1.0095,0.969,0.9291,0.9074,0.8241,0.7561,0.7484,0.7484,0.7169,0.6079,0.5925,0.5226,0.3129,0.2818,0.245,0.1461,0.1328,0.1357,0.1386,0.0619,-0.0358,-0.1252,-0.2238,-0.3224,-0.421,-0.4478,-0.4659,-0.4661,-0.5102,-0.5369,-0.5371,-0.5644,-0.5733,-0.5733,-0.5733,-0.6174,-0.7051,-0.7051,-0.7224,1.4432,0.0,0.0,0.0,0.0,0.0,1.9536,1.9803,2.0189,2.0545,2.0844,2.1103,2.1448,2.1601,2.1678,2.1691,2.1691,2.1751,2.184,2.1869,2.1957,2.2203,2.2141,2.2113,2.2231,2.2141,2.1982,0.0,2.1738,2.1664,2.1664,2.1526,2.1433,2.1433,2.1325,2.123,2.1167,2.0958,2.0843,2.0726,2.061,2.0509,2.0423,2.0339,2.0045,1.953,1.9332,1.8945,1.8422,1.8002,1.7639,1.7323,1.7323,1.7199,1.6892,1.5788,1.5389,1.5347,1.498,1.4972,1.5133,1.541,1.5318,1.4932,1.4264,1.3726,1.3312,1.2736,1.2436,1.2112,1.167,1.1139,1.0747,1.0885,1.0485,1.0047,1.0077,0.9296,0.8394,0.7633,0.7484,0.7173,0.624,0.6002,0.5535,0.4375,0.3363,0.2685,0.2509,0.1799,0.1326,0.1356,0.1125,0.0613,-0.035,-0.0622,-0.1523,-0.3224,-0.3266,-0.3701,-0.4659,-0.4946,-0.5117,-0.5371,-0.5644,-0.5733,-0.5733,-0.5733,-0.5822,-0.6086,-0.6789,-0.7224,1.4323,1.5828,1.7387,1.8389,0.0,0.0,1.9733,1.9782,1.9866,2.0483,2.0909,2.1261,2.1556,2.1708,2.1797,2.1724,2.1724,2.1724,2.1724,2.1915,2.2061,2.2147,2.2158,2.2231,2.236,2.226,2.2147,2.2061,2.1827,2.1634,2.1481,2.1356,2.1309,2.1309,2.1167,2.1055,2.1023,2.0827,2.0711,2.061,2.0509,2.0441,2.0388,2.0339,2.0045,1.9603,1.9442,1.9147,1.8707,1.8447,1.8028,1.7475,1.7421,1.7214,1.6808,1.602,1.5712,1.5706,1.547,1.5527,1.5745,1.5978,1.5894,1.5565,1.5099,1.456,1.3957,1.3208,1.2674,1.2243,1.1872,1.166,1.1518,1.1757,1.1281,1.084,1.1101,1.0265,0.9221,0.8165,0.771,0.7326,0.6861,0.6626,0.6237,0.5306,0.4606,0.3847,0.311,0.2421,0.1798,0.1493,0.1355,0.0943,0.0,0.0,-0.0698,-0.2182,-0.2585,-0.3099,-0.3836,-0.4435,-0.4802,-0.5036,-0.5349,-0.5644,-0.5733,-0.5733,-0.5733,-0.5733,-0.626,-0.6612,1.4358,1.5336,1.6525,1.8809,1.8736,0.0,1.9699,1.955,1.9341,2.0102,2.059,2.0925,2.1194,2.1516,2.1665,2.1579,2.1645,2.1694,2.1634,2.2049,2.2248,2.2015,2.2192,2.2394,2.2515,2.2405,2.2366,2.2394,2.2003,2.1648,2.1371,2.1277,2.1246,2.1309,2.1135,2.099,2.0877,2.0744,2.061,2.0494,2.0441,2.0388,2.0388,2.0339,2.0045,1.9566,1.9479,1.9184,1.8731,1.8907,1.8447,1.7639,1.7449,1.7076,1.6595,1.6318,1.62,1.6174,1.6194,1.6334,1.6519,1.6789,1.658,1.6197,1.5989,1.5391,1.4678,1.3743,1.2964,1.2297,1.1934,1.2026,1.2275,1.2438,1.204,1.1676,1.2058,1.1236,1.0115,0.915,0.8241,0.7633,0.7484,0.7484,0.7169,0.6234,0.6002,0.5303,0.3597,0.311,0.2587,0.1783,0.1491,0.1006,0.0167,0.0084,-0.0336,-0.126,-0.2093,-0.2595,-0.2769,-0.3755,-0.4402,-0.4513,-0.5049,-0.5463,-0.5733,-0.5733,-0.5733,-0.5733,-0.5733,-0.5733,1.4089,1.5893,1.7692,1.8012,1.9011,0.0,1.9403,1.9656,1.9871,1.9452,1.9634,2.0124,2.09,2.1111,2.121,2.1346,2.2007,2.2343,2.1986,2.1899,2.2061,2.2415,2.2497,2.2569,2.2579,2.2569,2.2487,2.2338,2.1857,2.1584,2.1708,2.1198,2.1023,2.1277,2.0974,2.076,2.0744,2.061,2.0509,2.0423,2.0423,2.0388,2.0304,2.0304,2.0185,1.9995,1.9904,1.9762,1.953,1.9362,1.9011,1.85,1.8014,1.7747,1.7421,1.6522,1.62,1.6169,1.5957,1.6127,1.6512,1.6564,1.6802,1.692,1.6161,1.5806,1.5332,1.3923,1.3329,1.2964,1.2243,1.1979,1.1992,1.238,1.2434,1.2422,1.2846,1.2285,1.1533,1.095,0.9604,0.8246,0.7633,0.7484,0.7403,0.7249,0.6468,0.5767,0.5381,0.4001,0.2917,0.2603,0.1937,0.1393,0.1065,0.1,0.0589,-0.0336,-0.0495,-0.1235,-0.2768,-0.3147,-0.368,-0.4508,-0.5049,-0.5463,-0.5733,-0.5733,-0.5733,-0.5733,-0.5733,-0.5733,1.4521,1.6309,1.8101,1.8788,1.9531,0.0,0.0,2.0004,2.012,2.0013,2.0078,2.0312,2.081,2.0726,2.0738,2.1216,2.1617,2.201,2.2451,2.2375,2.2326,2.2446,2.2561,2.2685,2.2738,2.2685,2.2552,2.2287,2.1899,2.1601,2.1509,2.1023,2.081,2.0893,2.0711,2.0577,2.0559,2.0475,2.0407,2.0354,2.0354,2.0339,2.0304,2.022,2.015,2.0045,1.9955,1.9848,1.9726,1.9487,1.9302,1.9026,1.8461,1.8068,1.7707,1.6808,1.6522,1.6436,1.5957,1.602,1.6365,1.6459,1.6766,1.7005,1.661,1.6151,1.5565,1.4688,1.3923,1.3268,1.285,1.2359,1.21,1.2572,1.2593,1.2633,1.3208,1.2966,1.2432,1.1842,1.0801,0.9604,0.8318,0.7787,0.7484,0.7484,0.7015,0.6546,0.6083,0.5151,0.4297,0.383,0.285,0.2156,0.2075,0.1616,0.1139,0.065,0.0241,-0.0401,-0.1378,-0.227,-0.3149,-0.3903,-0.4736,-0.5142,-0.5015,-0.5466,-0.5733,-0.5733,-0.5733,-0.5733,1.4971,1.6415,1.7947,1.9642,2.0042,2.0099,0.0,0.0,0.0,2.0667,2.0655,2.0644,2.0972,2.0637,2.0594,2.142,2.1395,2.1678,2.2752,2.2919,2.2867,2.2565,2.2634,2.2747,2.291,2.2799,2.2561,2.2192,2.1911,2.1615,2.1293,2.086,2.0644,2.0579,2.0527,2.0441,2.0388,2.0388,2.0354,2.0304,2.0304,2.0304,2.0304,2.015,2.0045,2.0005,1.9848,1.9762,1.969,1.9487,1.9413,1.9339,1.8745,1.8266,1.7868,1.716,1.6879,1.671,1.6132,1.6037,1.622,1.6325,1.657,1.6795,1.6926,1.6425,1.5738,1.5459,1.4638,1.3803,1.339,1.285,1.2414,1.2706,1.2661,1.2701,1.3353,1.3346,1.3039,1.2352,1.1835,1.095,0.9074,0.8169,0.7714,0.7557,0.7484,0.7249,0.6553,0.616,0.5693,0.4996,0.3908,0.3051,0.2818,0.2038,0.1492,0.1335,0.0628,0.0157,0.0,-0.1681,-0.2723,-0.3083,-0.4062,-0.4465,-0.4273,-0.5006,-0.5555,-0.5733,-0.5733,-0.5733,1.4867,1.5966,1.7142,1.9141,2.0181,2.059,2.0315,0.0,2.0539,2.018,0.0,2.0467,2.1639,0.0,0.0,2.226,2.238,2.2374,2.2551,2.3117,2.35,2.3477,2.3017,2.2807,2.3038,2.2841,2.2535,2.2153,2.179,2.1568,2.1462,2.0877,2.0646,2.0942,2.0595,2.0423,2.0388,2.0339,2.0304,2.0304,2.0304,2.0304,2.0304,2.015,2.0045,2.0005,1.9848,1.9762,1.969,1.9487,1.9413,1.9339,1.8745,1.8461,1.8305,1.7517,1.7076,1.6752,1.6355,1.6239,1.6162,1.5934,1.6098,1.6429,1.6725,1.6694,1.6332,1.5584,1.5294,1.4874,1.3623,1.3208,1.3083,1.2838,1.2803,1.2914,1.3353,1.3499,1.3419,1.3119,1.2432,1.1304,0.9296,0.8775,0.8318,0.7633,0.7484,0.7484,0.7326,0.663,0.6083,0.577,0.4996,0.4064,0.2895,0.2662,0.2272,0.1335,0.1178,0.0785,0.0,-0.1681,-0.2356,-0.1878,-0.2977,-0.3736,-0.4004,-0.4347,-0.4926,-0.5733,-0.5733,-0.5733,1.2806,1.532,1.7818,1.9295,2.0548,2.1243,2.0671,2.0961,2.1349,2.1426,0.0,0.0,0.0,0.0,0.0,0.0,2.2221,2.2018,2.2646,2.2897,2.3159,2.3556,2.3382,2.3177,2.3117,2.2867,2.2517,2.2124,2.179,2.1477,2.1182,2.0679,2.0494,2.0613,2.0426,2.0339,2.0339,2.0304,2.0304,2.0304,2.0304,2.027,2.0185,2.0096,1.999,1.9884,1.9762,1.9726,1.969,1.9487,1.9413,1.9376,1.8988,1.886,1.8745,1.7974,1.7612,1.7407,1.685,1.6629,1.6618,1.6586,1.648,1.6461,1.6815,1.6797,1.6637,1.6228,1.5758,1.5235,1.4697,1.4154,1.3692,1.3284,1.3302,1.3315,1.3253,1.336,1.3499,1.3419,1.3039,1.2285,1.0932,1.0115,0.9296,0.8318,0.8169,0.8016,0.7557,0.7173,0.6938,0.6857,0.6002,0.5148,0.4681,0.3517,0.2584,0.2194,0.1649,0.0942,0.0,-0.0711,-0.104,-0.0892,-0.2066,-0.2536,-0.2342,-0.3676,-0.4513,-0.4926,-0.5466,-0.5733,1.3334,1.6101,1.8819,1.9854,2.091,2.1601,2.1323,2.1642,2.2136,2.2669,2.2419,0.0,0.0,0.0,2.2281,2.3283,0.0,2.2263,2.3302,2.3103,2.2997,2.3442,2.3632,2.3588,2.3259,2.2975,2.259,2.2074,2.1744,2.1323,2.0778,2.0494,2.0354,2.0304,2.0304,2.0304,2.0304,2.0304,2.0304,2.0304,2.0304,2.022,2.01,2.0025,1.9919,1.9797,1.9726,1.969,1.9654,1.9487,1.9376,1.9339,1.9176,1.9101,1.9026,1.8358,1.8082,1.7908,1.7282,1.6905,1.6827,1.7051,1.6853,1.6596,1.6938,1.6909,1.6751,1.6637,1.6171,1.5652,1.5478,1.4991,1.4432,1.3964,1.3834,1.3731,1.3408,1.3401,1.3492,1.3492,1.3346,1.3112,1.2432,1.1391,1.0271,0.9301,0.8927,0.8546,0.794,0.7638,0.7484,0.7484,0.678,0.6234,0.5925,0.445,0.3285,0.274,0.1805,0.1021,0.0392,0.0157,0.0079,0.0161,-0.1051,-0.1484,-0.1024,-0.2657,-0.3727,-0.4226,-0.5257,-0.5733,1.8448,0.0,1.9741,2.0943,2.1277,2.1493,2.2269,2.2459,2.2669,2.3346,2.3441,2.3602,2.4154,2.3592,2.3428,2.4643,2.4044,0.0,0.0,2.3997,2.3329,2.324,2.3658,2.3883,2.361,2.3277,2.277,2.1967,2.1652,2.115,2.0373,2.0304,2.0304,2.0304,2.0304,2.0304,2.0304,2.0304,2.0304,2.0304,2.0304,2.022,2.01,2.0025,1.9919,1.9797,1.9726,1.9654,1.9574,1.9465,1.9376,1.9302,1.9139,1.9101,1.9064,1.862,1.8293,1.7948,1.7516,1.6993,1.6573,1.6944,1.6921,1.6717,1.694,1.6909,1.6751,1.6637,1.6477,1.6202,1.5594,1.5352,1.5214,1.4771,1.435,1.4006,1.4159,1.3821,1.3492,1.3492,1.3492,1.3419,1.32,1.2298,1.1323,1.0271,0.9523,0.8927,0.8699,0.8016,0.7484,0.7484,0.748,0.7015,0.6002,0.5696,0.4688,0.2666,0.1727,0.1257,0.1257,0.047,0.0392,0.1258,0.0,-0.0731,-0.0814,-0.1248,-0.2354,-0.4122,-0.5185,-0.5733,0.0,0.0,1.8876,2.0194,0.0,0.0,2.1349,2.1704,2.2157,2.3054,2.3657,2.4193,2.4676,2.4542,2.4466,2.4845,2.4193,2.3542,0.0,2.2469,2.209,2.2671,2.31,2.3398,2.3577,2.3058,2.2407,2.1681,2.1713,0.0,2.0354,2.0736,2.0767,2.032,2.0304,2.0304,2.0304,2.0304,2.0304,2.0304,2.022,2.0115,2.0025,1.9919,1.9797,1.9726,1.9726,1.969,1.9654,1.9487,1.9376,1.9339,1.9176,1.9101,1.9064,1.8673,1.8439,1.8254,1.7868,1.7352,1.6897,1.735,1.7372,1.7312,1.7704,1.769,1.7512,1.7401,1.6965,1.6467,1.6134,1.6077,1.5876,1.5231,1.5026,1.4979,1.4718,1.4287,1.3995,1.4212,1.384,1.3499,1.3419,1.3119,1.2519,1.1323,1.0875,1.0207,0.9074,0.8546,0.8093,0.7561,0.7484,0.7326,0.7011,0.6086,0.4766,0.282,0.2353,0.1884,0.1335,0.1021,0.1021,0.1257,0.0712,0.032,0.0163,-0.0737,-0.1573,-0.2351,-0.3919,-0.5016,1.5344,1.737,0.0,2.0178,2.0347,0.0,2.1498,0.0,2.2238,2.3133,2.3909,2.444,2.4555,2.4793,2.4984,2.5043,2.4598,2.3824,0.0,2.203,2.1878,2.2367,2.2828,2.3106,2.3136,2.2959,2.252,2.1833,2.1972,2.1779,0.0,2.1178,2.1121,2.0674,2.0393,2.022,2.022,2.02,2.02,2.02,2.0131,2.0025,1.9919,1.9848,1.9762,1.969,1.969,1.9654,1.9581,1.945,1.9376,1.9302,1.9139,1.9101,1.9064,1.8673,1.84,1.8242,1.8003,1.7666,1.7348,1.7622,1.7642,1.7649,1.8165,1.8111,1.7886,1.772,1.7335,1.6797,1.6488,1.6384,1.6259,1.5768,1.5613,1.559,1.5433,1.4964,1.4596,1.468,1.4258,1.384,1.3564,1.3492,1.32,1.2378,1.1855,1.1105,0.9981,0.9155,0.8475,0.8016,0.7638,0.7484,0.7407,0.6318,0.5151,0.375,0.2974,0.2352,0.1727,0.1414,0.1335,0.1335,0.1021,0.0792,0.0563,-0.0241,-0.0889,-0.1394,-0.254,-0.3647]},{"header":{"parameterUnit":"m.s-1","parameterCategory":1,"la1":30.6,"la2":29.2853,"lo1":-89.7004,"lo2":-87.6739,"dy":0.0162,"dx":0.0183,"nx":112,"ny":82,"refTime":"2024-08-13T18:00:00:Z","depth":0,"parameterNumber":3,"parameterNumberName":"V-component_of_WINDS"},"data":[0.0,0.0,0.0,0.0,0.0,0.0,0.0,0.0,0.0,0.0,0.0,0.0,0.0,0.0,0.0,0.0,0.0,0.0,0.0,0.0,0.0,0.0,0.0,0.0,0.0,0.0,0.0,0.0,0.0,0.0,0.0,0.0,0.0,0.0,0.0,0.0,0.0,0.0,0.0,0.0,0.0,0.0,0.0,0.0,0.0,0.0,0.0,0.0,0.0,0.0,0.0,0.0,0.0,0.0,0.0,0.0,0.0,0.0,0.0,0.0,0.0,0.0,0.0,0.0,0.0,0.0,0.0,0.0,0.0,0.0,0.0,0.0,0.0,0.0,0.0,0.0,0.0,0.0,0.0,0.0,0.0,0.0,0.0,0.0,0.0,0.0,0.0,0.0,0.0,0.0,1.2274,1.1856,1.0622,0.9991,1.0279,0.9346,0.8606,0.8175,0.0,0.0,0.0,0.0,0.0,0.0,0.0,0.0,0.0,0.0,0.0,0.0,0.0,0.0,0.0,0.0,0.0,0.0,0.0,0.0,0.0,0.0,0.0,0.0,0.0,0.0,0.0,0.0,0.0,0.0,0.0,0.0,0.0,0.0,0.0,0.0,0.0,0.0,0.0,0.0,0.0,0.0,0.0,0.0,0.0,0.0,0.0,0.0,0.0,0.0,0.0,0.0,0.0,0.0,0.0,0.0,0.0,0.0,0.0,0.0,0.0,0.0,0.0,0.0,0.0,0.0,0.0,0.0,0.0,0.0,0.0,0.0,0.0,0.0,0.0,0.0,0.0,0.0,0.0,0.0,0.0,0.0,0.0,0.0,0.0,0.0,0.0,0.0,0.0,0.0,0.0,0.0,0.0,0.0,0.0,0.0,0.0,0.0,0.0,0.0,0.0,0.0,0.0,0.0,1.1732,1.087,1.0134,0.9866,1.0099,0.9184,0.8385,0.7881,0.0,0.0,0.0,0.0,0.0,0.0,0.0,0.0,0.0,0.0,0.0,0.0,0.0,0.0,0.0,0.0,0.0,0.0,0.0,0.0,0.0,0.0,0.0,0.0,0.0,0.0,0.0,0.0,0.0,0.0,0.0,0.0,0.0,0.0,0.0,0.0,0.0,0.0,0.0,0.0,0.0,0.0,0.0,0.0,0.0,0.0,0.0,0.0,0.0,0.0,0.0,0.0,0.0,0.0,0.0,0.0,0.0,0.0,0.0,0.0,0.0,0.0,0.0,0.0,0.0,0.0,0.0,0.0,0.0,0.0,0.0,0.0,0.0,0.0,0.0,0.0,0.0,0.0,0.0,0.0,0.0,0.0,0.0,0.0,0.0,0.0,0.0,0.0,0.0,0.0,0.0,0.0,0.0,0.0,0.0,0.0,0.0,0.0,0.0,0.0,0.0,0.0,0.0,1.2599,1.1849,1.0751,1.0033,0.9866,1.0314,0.9635,0.8971,0.8506,0.7789,0.0,0.0,0.0,0.0,0.0,0.0,0.0,0.0,0.0,0.0,0.0,0.0,0.0,0.0,0.0,0.0,0.0,0.0,0.0,0.0,0.0,0.0,0.0,0.0,0.0,0.0,0.0,0.0,0.0,0.0,0.0,0.0,0.0,0.0,0.0,0.0,0.0,0.0,0.0,0.0,0.0,0.0,0.0,0.0,0.0,0.0,0.0,0.0,0.0,0.0,0.0,0.0,0.0,0.0,0.0,0.0,0.0,0.0,0.0,0.0,0.0,0.0,0.0,0.0,0.0,0.0,0.0,0.0,0.0,0.0,0.0,0.0,0.0,0.0,0.0,0.0,0.0,0.0,0.0,0.0,0.0,0.0,0.0,0.0,0.0,0.0,0.0,0.0,0.0,0.0,0.0,0.0,0.0,0.0,0.0,0.0,0.0,0.0,0.0,0.0,0.0,0.0,1.2583,1.2119,1.0758,1.0094,0.9967,1.0414,0.998,0.9506,0.8992,0.8274,0.0,0.0,0.0,0.0,0.0,0.0,0.0,0.0,0.0,0.0,0.0,0.0,0.0,0.0,0.0,0.0,0.0,0.0,0.0,0.0,0.0,0.0,0.0,0.0,0.0,0.0,0.0,0.0,0.0,0.0,0.0,0.0,0.0,0.0,0.0,0.0,0.0,0.0,0.0,0.0,0.0,0.0,0.0,0.0,0.0,0.0,0.0,0.0,0.0,0.0,0.0,0.0,0.0,0.0,0.0,0.0,0.0,0.0,0.0,0.0,0.0,0.0,0.0,0.0,0.0,0.0,0.0,0.0,0.0,0.0,0.0,0.0,0.0,0.0,0.0,0.0,0.0,0.0,0.0,0.0,0.0,0.0,0.0,0.0,0.0,0.0,0.0,0.0,0.0,0.0,0.0,0.0,0.0,0.0,0.0,0.0,0.0,0.0,0.0,0.0,0.0,0.0,1.2806,1.2449,1.0778,1.0274,1.01,1.014,0.9866,0.9336,0.8508,0.7858,0.0,0.0,0.0,0.0,0.0,0.0,0.0,0.0,0.0,0.0,0.0,0.0,0.0,0.0,0.0,0.0,0.0,0.0,0.0,0.0,0.0,0.0,0.0,0.0,0.0,0.0,0.0,0.0,0.0,0.0,0.0,0.0,0.0,0.0,0.0,0.0,0.0,0.0,0.0,0.0,0.0,0.0,0.0,0.0,0.0,0.0,0.0,0.0,0.0,0.0,0.0,0.0,0.0,0.0,0.0,0.0,0.0,0.0,0.0,0.0,0.0,0.0,0.0,0.0,0.0,0.0,0.0,0.0,0.0,0.0,0.0,0.0,0.0,0.0,0.0,0.0,0.0,0.0,0.0,0.0,0.0,0.0,0.0,0.0,0.0,0.0,0.0,0.0,0.0,0.0,0.0,0.0,0.0,0.0,0.0,0.0,0.0,0.0,0.0,0.0,0.0,0.0,1.3081,1.26,1.1276,1.0534,1.0187,1.0381,1.012,0.9708,0.924,0.0,0.0,0.0,0.0,0.0,0.0,0.0,0.0,0.0,0.0,0.0,0.0,0.0,0.0,0.0,0.0,0.0,0.0,0.0,0.0,0.0,0.0,0.0,0.0,0.0,0.0,0.0,0.0,0.0,0.0,0.0,0.0,0.0,0.0,0.0,0.0,0.0,0.0,0.0,0.0,0.0,0.0,0.0,0.0,0.0,0.0,0.0,0.0,0.0,0.0,0.0,0.0,0.0,0.0,0.0,0.0,0.0,0.0,0.0,0.0,0.0,0.0,0.0,0.0,0.0,0.0,0.0,0.0,0.0,0.0,0.0,0.0,0.0,0.0,0.0,0.0,0.0,0.0,0.0,0.0,0.0,0.0,0.0,0.0,0.0,0.0,0.0,0.0,0.0,0.0,0.0,0.0,0.0,0.0,0.0,0.0,0.0,0.0,0.0,0.0,0.0,0.0,1.3571,1.3455,1.2909,1.1645,1.0925,1.0581,1.0604,1.0287,0.9993,0.9699,0.0,0.0,0.0,0.0,0.0,0.0,0.0,0.0,0.0,0.0,0.0,0.0,0.0,0.0,0.0,0.0,0.0,0.0,0.0,0.0,0.0,0.0,0.0,0.0,0.0,0.0,0.0,0.0,0.0,0.0,0.0,0.0,0.0,0.0,0.0,0.0,0.0,0.0,0.0,0.0,0.0,0.0,0.0,0.0,0.0,0.0,0.0,0.0,0.0,0.0,0.0,0.0,0.0,0.0,0.0,0.0,0.0,0.0,0.0,0.0,0.0,0.0,0.0,0.0,0.0,0.0,0.0,0.0,0.0,0.0,0.0,0.0,0.0,0.0,0.0,0.0,0.0,0.0,0.0,0.0,0.0,0.0,0.0,0.0,0.0,0.0,0.0,0.0,0.0,0.0,0.0,0.0,0.0,0.0,0.0,0.0,0.0,0.0,0.0,0.0,0.0,0.0,1.3571,1.3827,1.3413,1.17,1.1545,1.1303,1.0681,1.0294,0.9993,0.0,0.0,0.0,0.0,0.0,0.0,0.0,0.0,0.0,0.0,0.0,0.0,0.0,0.0,0.0,0.0,0.0,0.0,0.0,0.0,0.0,0.0,0.0,0.0,0.0,0.0,0.0,0.0,0.0,0.0,0.0,0.0,0.0,0.0,0.0,0.0,0.0,0.0,0.0,0.0,0.0,0.0,0.0,0.0,0.0,0.0,0.0,0.0,0.0,0.0,0.0,0.0,0.0,0.0,0.0,0.0,0.0,0.0,0.0,0.0,0.0,0.0,0.0,0.0,0.0,0.0,0.0,0.0,0.0,0.0,0.0,0.0,0.0,0.0,0.0,0.0,0.0,0.0,0.0,0.0,0.0,0.0,0.0,0.0,0.0,0.0,0.0,0.0,0.0,0.0,0.0,0.0,0.0,0.0,0.0,0.0,0.0,0.0,0.0,0.0,0.0,0.0,0.0,1.4198,1.4153,1.3789,1.2997,1.252,1.1965,1.1303,1.1155,1.0695,0.9771,0.0,0.0,0.0,0.0,0.0,0.0,0.0,0.0,0.0,0.0,0.0,0.0,0.0,0.0,0.0,0.0,0.0,0.0,0.0,0.0,0.0,0.0,0.0,0.0,0.0,0.0,0.0,0.0,0.0,0.0,0.0,0.0,0.0,0.0,0.0,0.0,0.0,0.0,0.0,0.0,0.0,0.0,0.0,0.0,0.0,0.0,0.0,0.0,0.0,0.0,0.0,0.0,0.0,0.0,0.0,0.0,0.0,0.0,0.0,0.0,0.0,0.0,0.0,0.0,0.0,0.0,0.0,0.0,0.0,0.0,0.0,0.0,0.0,0.0,0.0,0.0,0.0,0.0,0.0,0.0,0.0,0.0,0.0,0.0,0.0,0.0,0.0,0.0,0.0,0.0,0.0,0.0,0.0,0.0,0.0,0.0,0.0,0.0,0.0,0.0,0.0,0.0,1.4488,1.4335,1.4066,1.3536,1.3191,1.2704,1.2097,1.2035,1.1624,1.0666,0.0,0.0,0.0,0.0,0.0,0.0,0.0,0.0,0.0,0.0,0.0,0.0,0.0,0.0,0.0,0.0,0.0,0.0,0.0,0.0,0.0,0.0,0.0,0.0,0.0,0.0,0.0,0.0,0.0,0.0,0.0,0.0,0.0,0.0,0.0,0.0,0.0,0.0,0.0,0.0,0.0,0.0,0.0,0.0,0.0,0.0,0.0,0.0,0.0,0.0,0.0,0.0,0.0,0.0,0.0,0.0,0.0,0.0,0.0,0.0,0.0,0.0,0.0,0.0,0.0,0.0,0.0,0.0,0.0,0.0,0.0,0.0,0.0,0.0,0.0,0.0,0.0,0.0,0.0,0.0,0.0,0.0,0.0,0.0,0.0,0.0,0.0,0.0,0.0,0.0,0.0,0.0,0.0,0.0,0.0,0.0,0.0,0.0,0.0,0.0,0.0,0.0,1.4506,1.4533,1.4318,1.3692,1.3752,1.3563,1.2956,1.2887,1.2592,1.1937,0.0,0.0,0.0,0.0,0.0,0.0,0.0,0.0,0.0,0.0,0.0,0.0,0.0,0.0,0.0,0.0,0.0,0.0,0.0,0.0,0.0,0.0,0.0,0.0,0.0,0.0,0.0,0.0,0.0,0.0,0.0,0.0,0.0,0.0,0.0,0.0,0.0,0.0,0.0,0.0,0.0,0.0,0.0,0.0,0.0,0.0,0.0,0.0,0.0,0.0,0.0,0.0,0.0,0.0,0.0,0.0,0.0,0.0,0.0,0.0,1.067,1.027,0.0,0.0,0.0,0.0,0.0,0.0,0.0,0.0,0.0,0.0,0.0,0.0,0.0,0.0,0.0,0.0,0.0,0.0,0.0,0.0,0.0,0.0,0.0,0.0,0.0,0.0,0.0,0.0,0.0,0.0,0.0,0.0,0.0,0.0,0.0,0.0,0.0,0.0,0.0,0.0,1.5065,1.487,1.4656,1.4666,1.4734,1.4359,1.3563,1.3502,1.3067,1.2141,1.1581,0.0,0.0,0.0,0.0,0.0,0.0,0.0,0.0,0.0,0.0,0.0,0.0,0.0,0.0,0.0,0.0,0.0,0.0,0.0,0.0,0.0,0.0,0.0,0.0,0.0,0.0,0.0,0.0,0.0,0.0,0.0,0.0,0.0,0.0,0.0,0.0,0.0,0.0,0.0,0.0,0.0,0.0,0.0,0.0,0.0,0.0,0.0,0.0,0.0,0.0,0.0,0.0,0.0,0.0,0.0,0.0,0.0,0.0,0.0,1.1843,1.1644,0.0,0.0,0.0,0.0,0.0,0.0,0.0,0.0,0.0,0.0,0.0,0.0,0.0,0.0,0.0,0.0,0.0,0.0,0.0,0.0,0.0,0.0,0.0,0.0,0.0,0.0,0.0,0.0,0.0,0.0,0.0,0.0,0.0,0.0,0.0,0.0,0.0,0.0,0.0,0.0,1.5763,1.5446,1.5294,1.543,1.5205,1.4911,1.4478,1.4359,1.4001,1.3358,1.2643,0.0,0.0,0.0,0.0,0.0,0.0,0.0,0.0,0.0,0.0,0.0,0.0,0.0,0.0,0.0,0.0,0.0,0.0,0.0,0.0,0.0,0.0,0.0,0.0,0.0,0.0,0.0,0.0,0.0,0.0,0.0,0.0,0.0,0.0,0.0,0.0,0.0,0.0,0.0,0.0,0.0,0.0,0.0,0.0,0.0,0.0,0.0,0.0,0.0,0.0,0.0,0.0,0.0,1.0514,1.1457,1.2722,1.2885,1.3325,1.3937,1.2922,1.2957,1.3756,1.2898,0.0,0.0,0.0,0.0,0.0,0.0,0.0,0.0,0.0,0.0,0.0,0.0,0.0,0.0,0.0,0.0,0.0,0.0,0.0,0.0,0.0,0.0,1.9131,1.9131,1.965,1.9875,1.9036,0.0,0.0,0.0,0.0,0.0,0.0,0.0,0.0,0.0,0.0,0.0,1.6517,1.6252,1.6104,1.6093,1.5768,1.5546,1.5498,1.5371,1.5158,1.4959,1.4072,1.3736,0.0,0.0,0.0,0.0,0.0,0.0,0.0,0.0,0.0,0.0,0.0,0.0,0.0,0.0,0.0,0.0,0.0,0.0,0.0,0.0,0.0,0.0,0.0,0.0,0.0,0.0,0.0,0.0,0.0,0.0,0.0,0.0,-0.6165,-0.644,0.0,0.0,0.0,0.0,0.0,0.0,0.0,0.0,0.0,0.0,0.0,0.0,0.0,0.1144,0.4713,0.6522,0.8287,1.0107,1.2001,1.3142,1.3631,1.4164,1.4693,1.5206,1.5167,0.0,1.4944,1.4625,0.0,0.0,0.0,0.0,0.0,0.0,0.0,0.0,0.0,0.0,0.0,0.0,0.0,0.0,0.0,0.0,0.0,0.0,0.0,0.0,0.0,0.0,1.9672,1.9672,1.978,2.0049,2.0864,2.0182,1.9483,1.9414,1.9034,1.8509,0.0,0.0,0.0,0.0,0.0,0.0,1.7456,1.7062,1.6888,1.7034,1.6978,1.6877,1.6786,1.6492,1.6348,1.6434,1.5735,1.5618,1.6262,1.5669,0.0,0.0,0.0,0.0,0.0,0.0,0.0,0.0,0.0,0.0,0.0,0.0,0.0,0.0,0.0,0.0,0.0,0.0,0.0,0.0,0.0,0.0,0.0,0.0,0.0,0.0,0.0,0.0,0.0,-0.6305,-0.6698,-0.6947,-0.7085,-0.7234,0.0,0.0,0.0,0.0,0.0,0.0,0.0,0.0,0.0,-0.0366,0.1232,0.3675,0.7102,0.8995,1.0676,1.2145,1.3176,1.4121,1.4843,1.4775,1.5059,1.571,1.592,1.589,1.572,1.5556,1.5702,1.5954,0.0,0.0,0.0,0.0,1.6855,1.7102,1.7591,1.8067,1.8469,1.8438,0.0,0.0,0.0,0.0,0.0,0.0,0.0,1.9546,0.0,0.0,1.978,1.978,2.0021,2.0382,2.0851,2.0831,2.0689,2.0689,2.0605,2.0297,1.9668,1.9714,0.0,0.0,0.0,1.9113,1.8633,1.8258,1.7969,1.7733,1.7424,1.7202,1.7101,1.6888,1.6832,1.6877,1.6507,1.643,1.6866,1.6459,1.6375,0.0,0.0,0.0,0.0,0.0,0.0,0.0,0.0,0.0,0.0,0.0,0.0,0.0,0.0,0.0,0.0,0.0,0.0,0.0,0.0,0.0,0.0,0.0,0.0,0.0,0.0,0.0,0.0,-0.6823,-0.7275,-0.7365,-0.7641,-0.7829,0.0,0.0,0.0,0.0,0.0,0.0,-0.6419,-0.529,-0.327,-0.032,0.3005,0.6055,0.8816,1.1294,1.3126,1.4136,1.4222,1.4775,1.572,1.541,1.5517,1.6019,1.6295,1.6372,1.6296,1.6199,1.6382,1.6683,1.6742,1.7274,1.7957,1.7912,1.811,1.8406,1.8835,1.9482,2.0072,1.9559,1.9866,2.0294,1.9673,0.0,0.0,0.0,0.0,2.0007,1.9667,1.9739,1.9812,1.9667,2.0012,2.035,2.037,2.0873,2.139,2.1548,2.1832,2.1906,2.1522,2.1257,0.0,2.0696,2.0511,2.0217,1.9506,1.9263,1.8934,1.8379,1.7929,1.7644,1.7644,1.7501,1.7457,1.7501,1.7313,1.7257,1.7501,1.7368,1.741,1.7606,0.0,0.0,0.0,0.0,0.0,0.0,0.0,0.0,0.0,0.0,0.0,0.0,0.0,0.0,0.0,0.0,0.0,0.0,0.0,0.0,0.0,0.0,0.0,0.0,0.0,0.0,0.0,0.0,0.0,-0.7241,-0.8128,0.0,0.0,0.0,0.0,-0.7565,-0.7242,-0.6429,-0.4918,-0.4987,-0.3853,-0.1125,0.3939,0.7195,0.8421,1.258,1.4922,1.5418,1.5002,1.5206,1.5796,1.6425,1.656,1.6374,1.6488,1.6658,1.6793,1.6888,1.6708,1.6472,1.668,1.6757,1.6842,1.786,1.8313,1.8518,2.005,2.0261,2.0091,2.1027,2.1074,2.0736,2.102,2.0503,0.0,0.0,2.0153,2.0192,1.9262,1.9528,1.9837,1.9209,1.9364,1.9682,1.9818,2.0563,2.1375,2.2018,2.2582,2.2958,2.3081,0.0,2.2599,2.1722,2.1461,2.0936,1.9893,1.9737,1.9576,1.8994,1.8934,1.8934,1.8934,1.8667,1.8614,1.8881,1.8667,1.8602,1.8881,1.8881,1.8762,1.8525,1.8792,0.0,0.0,0.0,0.0,0.0,0.0,0.0,0.0,0.0,0.0,0.0,0.0,0.0,0.0,0.0,0.0,0.0,0.0,0.0,0.0,0.0,0.0,0.0,0.0,0.0,0.0,0.0,0.0,-0.7599,-0.831,0.0,-0.8213,-0.8181,-0.8016,-0.7394,-0.7351,-0.7021,-0.6169,-0.5698,-0.4641,-0.3023,0.3348,0.737,0.8771,1.3792,1.6677,1.7351,1.6328,1.6077,1.6515,1.616,1.6148,1.635,1.6548,1.6787,1.7036,1.7412,1.7413,1.7101,1.7391,1.7515,1.7733,1.8633,1.8854,1.8876,1.9878,2.0349,2.0692,2.1473,2.1576,2.1319,2.1071,2.1179,2.138,2.1437,2.1179,2.0921,2.0807,2.0423,1.9985,1.9497,1.9811,2.031,2.0567,2.1176,2.1964,2.2899,2.3033,2.3147,2.3532,2.2975,2.2522,2.254,2.1896,2.126,2.0875,2.0526,2.0105,1.9552,1.9191,1.8987,1.8987,1.8881,1.8881,1.8987,1.8881,1.8881,1.8987,1.8987,1.9093,1.9251,1.9356,1.9193,0.0,0.0,0.0,0.0,0.0,0.0,0.0,0.0,0.0,0.0,0.0,0.0,0.0,0.0,0.0,0.0,0.0,0.0,0.0,0.0,0.0,0.0,0.0,0.0,0.0,-0.8362,-0.8842,-0.8215,-0.8992,-0.9285,-0.8585,-0.8611,-0.8316,-0.737,-0.7311,-0.706,-0.6597,-0.599,-0.5501,-0.5,0.1326,0.5954,0.8539,1.3318,1.6912,1.9268,1.7692,1.703,1.7201,1.6564,1.6378,1.6462,1.6831,1.7082,1.7259,1.7791,1.7878,1.7634,1.7833,1.8049,1.8324,1.9034,1.9308,1.9365,1.9929,2.033,2.074,2.1199,2.1253,2.1161,2.0955,2.1302,2.1888,2.2115,2.1953,2.1746,2.2037,2.1485,2.0719,2.0386,2.0694,2.1116,2.1081,2.1764,2.2631,2.3456,2.3516,2.3649,2.4189,2.3538,2.3009,2.3238,2.258,2.2004,2.1701,2.1476,2.1149,2.0594,2.0052,1.9731,1.9731,1.9401,1.9251,1.9408,1.9303,1.9324,1.9719,1.9494,1.9639,2.0087,1.9825,1.9977,2.0485,0.0,0.0,0.0,0.0,0.0,0.0,0.0,0.0,0.0,0.0,0.0,0.0,0.0,0.0,0.0,0.0,0.0,0.0,0.0,0.0,0.0,0.0,0.0,-0.8421,-0.9414,-0.9913,-0.9088,-1.0017,-1.0434,-0.9646,-0.9668,-0.9116,-0.7507,-0.7107,-0.6645,-0.5986,-0.592,-0.6248,-0.6972,-0.1918,0.2979,0.7657,1.1123,1.5636,2.102,1.8903,1.792,1.7912,1.776,1.7364,1.6842,1.7328,1.752,1.7567,1.8053,1.8113,1.7954,1.8049,1.819,1.8394,1.9125,1.9567,1.9901,2.0347,2.0398,2.0233,2.0258,2.0258,2.031,2.0818,2.0955,2.1176,2.2042,2.2348,2.255,2.2857,2.2571,2.2089,2.1744,2.1912,2.1976,2.1381,2.2359,2.348,2.3651,2.4038,2.4566,2.5078,2.477,2.4277,2.3779,2.3659,0.0,2.2255,2.2515,2.2583,2.2085,2.1478,2.1144,2.1144,2.0215,1.9784,2.0207,1.9836,2.0075,2.104,2.0566,2.0527,2.1106,2.0427,2.0888,2.2564,0.0,0.0,0.0,0.0,0.0,0.0,0.0,0.0,0.0,0.0,0.0,0.0,0.0,0.0,0.0,0.0,0.0,0.0,0.0,0.0,0.0,-0.9486,-0.9511,-0.8423,-0.921,-0.9655,-0.8862,-0.918,-0.9436,-0.9168,-0.8748,-0.8054,-0.7234,-0.6977,-0.6828,-0.6941,-0.712,-0.7547,-0.8331,-0.2832,0.2446,0.7314,1.1856,1.6641,2.157,1.9475,1.8422,1.8236,1.7609,1.7329,1.739,1.7873,1.8067,1.8137,1.8643,1.8826,1.8714,1.8153,1.7884,1.7944,1.8933,1.9898,2.0686,2.0775,2.0738,2.074,2.1043,2.1069,2.1068,2.1527,2.225,2.3041,2.3459,2.369,2.3838,2.4171,2.3899,2.3442,2.3084,2.3238,2.358,2.3882,2.3919,2.4121,2.484,2.4912,2.4932,2.5128,2.477,2.4338,2.4215,2.3841,2.3513,2.3242,2.2988,2.2737,2.2583,2.2056,2.1776,2.1776,2.1102,2.073,2.0835,2.073,2.0794,2.1118,2.1362,2.1535,2.155,2.2898,2.2989,0.0,0.0,0.0,0.0,0.0,0.0,0.0,0.0,0.0,0.0,0.0,0.0,0.0,0.0,0.0,0.0,0.0,0.0,0.0,0.0,0.0,0.0,-1.0048,-1.0032,-0.9277,-0.9554,-0.9652,-0.9128,-0.9225,-0.9292,-0.9172,-0.869,-0.8122,-0.7507,-0.733,-0.7379,-0.7612,-0.7849,-0.8309,-0.9135,-0.5853,-0.0461,0.7036,0.9718,1.4691,2.1911,2.0221,1.9155,1.8698,1.8004,1.7801,1.8054,1.8673,1.899,1.9045,1.978,2.0,0.0,0.0,0.0,0.0,0.0,2.0616,2.1144,2.101,2.0924,2.1027,2.1395,2.1661,2.1967,2.2525,2.3366,2.4218,2.4804,2.4967,2.5129,2.5544,2.5061,2.4341,2.3974,2.3828,2.3928,2.4498,2.4507,2.4667,2.537,2.5313,0.0,2.5143,2.4865,2.457,2.439,2.4282,2.4118,2.393,2.3817,2.3734,2.3734,2.3221,2.2865,2.2865,2.2178,0.0,0.0,0.0,2.1903,2.2365,2.2918,0.0,0.0,0.0,0.0,0.0,0.0,0.0,0.0,2.5053,2.4804,0.0,0.0,0.0,0.0,0.0,0.0,0.0,0.0,0.0,0.0,0.0,0.0,0.0,0.0,0.0,0.0,-1.0533,-1.0519,-1.0388,-1.004,-0.9762,-0.9576,-0.9656,-0.9669,-0.9431,-0.9098,-0.8627,-0.7977,-0.7891,-0.7938,-0.8066,-0.8236,0.0,0.0,0.0,-0.4667,0.5813,0.6002,1.1054,2.1041,2.066,2.0078,1.9354,1.8788,1.8674,1.8869,1.9672,1.9986,2.0084,2.1064,2.1348,2.1148,2.0356,2.0267,2.0555,2.1159,2.1403,2.1471,2.1229,0.0,0.0,2.1636,2.22,2.2801,2.3562,2.4207,2.4843,2.5686,2.5962,2.6083,2.6495,2.5734,2.4829,2.4568,2.404,2.3686,2.3999,2.4502,2.5001,2.5384,2.5508,2.5383,2.5131,2.5005,2.4892,2.4465,2.4708,2.4835,2.4408,2.4765,2.5005,2.5005,0.0,0.0,2.4218,2.3339,2.2938,2.3283,2.2951,2.3231,2.4244,2.4896,2.5181,2.51,2.4788,2.5005,2.5908,2.505,2.5702,2.7753,2.6071,2.5983,0.0,0.0,0.0,0.0,0.0,0.0,0.0,0.0,0.0,0.0,0.0,0.0,0.0,0.0,0.0,-1.1159,-1.078,-1.0499,-1.0676,-0.9463,-0.8871,-0.9621,-0.9238,-0.9009,-0.937,-0.8633,-0.8074,-0.7903,-0.7822,-0.7761,-0.7761,-0.8148,-0.8654,-0.9329,-0.9848,-0.7067,-0.0721,0.3388,0.852,1.4556,1.8964,0.0,2.0227,1.9869,1.9869,2.0154,2.0481,2.0617,2.0677,2.1365,2.1802,2.1955,2.0912,2.0734,2.1136,2.1262,2.1625,2.2044,2.2049,2.2049,2.2166,2.2785,2.3025,2.3168,2.3635,2.4204,0.0,2.4661,2.5005,2.538,2.536,2.5087,2.48,2.4751,2.4488,2.4283,2.4609,2.4759,2.498,2.5346,2.5476,2.5494,2.5439,2.5188,2.4948,2.4878,2.4948,2.4948,2.4892,2.4948,2.5005,2.5005,2.491,2.4842,2.4842,2.4176,2.3838,2.3893,2.3838,2.4311,2.5507,2.6145,2.624,2.5738,2.704,2.7133,2.5911,2.7211,2.7753,2.77,2.693,2.7213,0.0,0.0,0.0,0.0,0.0,0.0,0.0,0.0,0.0,0.0,0.0,-1.0389,-1.0754,0.0,-1.0703,-1.1279,-1.0528,-0.9979,-1.0375,-0.9373,-0.8771,-0.9295,-0.8806,-0.8622,-0.8968,-0.849,-0.8197,-0.8245,-0.817,-0.8203,-0.8262,-0.877,-0.9097,-0.9219,-0.6733,-0.2735,0.2758,0.8552,1.3917,1.8779,2.1517,2.2554,2.2147,2.1813,2.1692,2.1802,2.217,2.2217,2.2087,2.2556,2.2832,2.2873,2.2307,2.2149,2.2322,2.2248,2.2494,2.2889,2.2785,2.2725,2.2723,2.3269,2.3589,2.3876,2.421,2.4736,2.5191,2.4936,2.5096,2.5254,2.5029,2.4713,2.4418,2.437,2.3966,2.3774,2.425,2.4603,2.4946,2.534,2.5686,2.5839,2.5688,2.5578,2.5342,2.5061,2.5131,2.5188,2.5005,2.5005,2.5005,2.5005,2.5005,2.5005,2.5005,2.4734,2.4668,2.4997,2.4997,2.5398,2.6282,2.6858,2.7353,2.7706,2.831,2.8288,2.7739,2.8369,2.8856,2.9163,2.8902,2.9254,0.0,0.0,0.0,0.0,0.0,0.0,0.0,-1.1127,-1.0904,-1.0764,-1.0707,-1.0793,-1.1251,-1.0753,-1.0422,-1.105,-1.0129,-0.9477,-0.9999,-0.9394,-0.8854,-0.889,-0.8601,-0.8453,-0.8627,-0.8479,-0.8421,-0.8573,-0.8633,-0.8685,-0.8804,-0.9458,-0.9708,-0.9557,-0.3776,0.1505,0.614,1.3656,1.9374,2.3266,2.4134,2.434,2.395,2.3654,2.34,2.3234,2.3644,2.3678,2.3548,2.3891,2.3937,2.3809,2.3767,2.3752,2.3679,2.3334,2.3436,2.3696,2.3493,2.3348,2.3304,2.3638,2.4041,2.4388,2.4626,2.5002,2.5379,2.5164,2.5072,2.4978,2.4758,2.4282,2.3856,2.3749,2.3342,2.3154,2.3679,2.4425,2.5141,2.5466,2.6058,2.6443,2.6244,2.619,2.5988,2.5272,2.5411,2.5536,2.5328,2.5272,2.5272,2.5425,2.537,2.537,2.537,2.5328,2.5536,2.6042,2.6042,2.6368,2.7018,2.7523,2.8392,2.9667,2.9204,2.9231,2.9768,2.943,2.974,3.0744,3.0865,3.1268,-1.5888,-1.4531,-1.3448,-1.3672,-1.3036,-1.2361,0.0,-1.2095,-1.1764,-1.1122,-1.0951,-1.0853,-1.0611,-1.0441,-1.0358,-1.0344,-0.989,-0.9639,-0.9964,-0.9101,-0.8565,-0.8789,-0.8764,-0.8726,-0.8781,-0.8533,-0.8421,-0.8421,-0.8639,-0.8804,-0.8804,-0.9674,-1.032,-1.0701,-0.4698,-0.1215,-0.0681,1.0925,1.7096,1.7745,2.274,2.4913,2.4513,2.4303,2.4,2.365,2.3734,2.4014,2.4389,2.4648,2.4664,2.4502,2.4736,2.4879,2.4894,2.3906,2.3824,2.4219,2.4177,2.4078,2.4021,2.4317,2.4337,2.4231,2.4246,2.4149,2.4023,2.398,2.3849,2.3688,2.3541,2.3363,2.3184,2.3049,2.3186,2.3348,2.3466,2.4747,2.5909,2.5923,2.6726,2.7363,2.7312,2.7312,2.6953,2.5934,2.5839,2.5948,2.6297,2.6229,2.6322,2.682,2.6782,2.6692,2.6692,2.6573,2.652,2.6587,2.6625,2.7122,2.8351,2.8465,2.9116,3.0393,3.0335,3.0295,3.038,3.0944,3.1227,3.1344,3.1943,3.2266,-1.6363,-1.5175,-1.4281,-1.3605,-1.2906,-1.2234,-1.172,-1.1421,-1.1056,-1.028,-1.0399,-1.0508,-0.9944,-0.9783,-0.9813,-0.993,-0.9362,-0.9065,-0.9459,-0.8938,-0.8566,-0.8682,-0.8425,-0.8371,-0.8641,-0.8318,-0.8096,-0.8096,-0.7937,-0.7889,-0.8055,-0.8683,-0.7432,-0.3975,0.1959,0.6885,1.0676,1.9468,2.3777,2.3688,2.5946,2.6775,2.6338,2.611,2.5744,2.5346,2.528,2.5322,2.5406,2.5351,2.5221,2.5121,2.515,2.5281,2.5389,2.4752,2.4728,2.5052,2.491,2.4735,2.4542,2.4549,2.44,2.4234,2.4208,2.4082,2.3882,2.3839,2.3882,2.4016,2.4351,2.4442,2.4576,2.5013,2.5031,2.4957,2.5119,2.5895,2.6594,2.6594,2.7194,2.77,2.77,2.77,2.755,2.7144,2.6953,2.6849,2.6834,2.6782,2.682,2.7078,2.7027,2.7129,2.7449,2.7093,2.6953,2.7261,2.7195,2.7624,2.8679,2.9042,2.9833,3.1091,3.1121,3.1293,3.1582,3.1911,3.2023,3.2106,3.2384,3.2578,-1.6434,-1.5241,-1.4365,-1.3321,-1.2346,-1.1516,-1.0864,-1.0491,-1.0111,-0.9563,-0.9799,-0.9932,-0.948,-0.922,-0.9099,-0.918,-0.862,-0.8315,-0.8514,-0.8415,-0.8309,-0.8309,-0.8037,-0.7984,-0.8256,-0.7931,-0.7664,-0.7664,-0.7402,-0.7354,-0.7568,-0.8135,-0.5748,0.0286,0.6307,1.2436,1.8636,2.5348,2.8576,2.8336,2.8324,2.8063,2.763,2.7258,2.6922,2.6573,2.6455,2.6283,2.6142,2.5964,2.5819,2.5762,2.5746,2.5835,2.5941,2.5668,2.561,2.5642,2.547,2.5185,2.4918,2.4735,2.4549,2.4359,2.4234,2.4234,2.4177,2.4051,2.4425,2.4834,2.5002,2.5459,2.5971,2.6338,2.6383,2.6361,2.651,2.6978,2.7381,2.7287,2.7825,2.8207,2.8207,2.8207,2.8207,2.8207,2.8061,2.7799,2.7535,2.7585,2.7635,2.7585,2.7585,2.7735,2.8158,2.7881,2.79,2.8252,2.8334,2.8728,2.9565,2.9971,3.0711,3.1942,3.1973,3.2152,3.2453,3.2453,3.2523,3.2594,3.2594,3.2718,-1.5651,-1.3961,-1.2803,-1.2667,-1.1266,-0.9917,-1.002,-0.9596,-0.917,-0.9274,-0.9336,-0.9287,-0.9121,-0.8829,-0.8374,-0.7681,-0.7676,-0.7557,-0.7015,-0.7295,-0.7521,-0.7521,-0.7777,-0.7824,-0.7574,-0.73,-0.7139,-0.7139,-0.7456,-0.767,-0.767,-0.8677,-0.6833,-0.1484,0.4948,1.0862,1.6159,2.401,2.7864,2.773,2.8106,2.8119,2.7789,2.7192,2.6872,2.6774,2.6656,2.6472,2.6301,2.6556,2.6556,2.6418,2.6725,2.6792,2.6657,2.6503,2.6222,2.5844,2.5642,2.5378,2.5052,2.4958,2.4695,2.4457,2.4359,2.4508,2.4735,2.463,2.5296,2.583,2.4957,2.579,2.6639,2.5837,2.6393,2.7127,2.6934,2.7644,2.8283,2.8079,2.8602,2.9075,2.9075,2.9075,2.9075,2.9075,2.9075,2.892,2.8511,2.8826,2.8967,2.8858,2.8858,2.8858,2.8858,2.9389,2.973,2.9746,3.0219,3.0851,3.1675,3.1616,3.1958,3.285,3.2866,3.2757,3.2578,3.2578,3.2594,3.2594,3.2594,3.2718,-1.1425,-1.051,-0.9799,-0.9088,-0.8612,-0.8344,-0.8482,-0.7919,-0.7612,-0.8219,-0.7883,-0.7558,-0.7744,-0.7614,-0.7391,-0.7128,-0.7348,-0.7515,-0.73,-0.4485,-0.371,-0.7336,-0.4461,-0.3565,-0.7115,-0.7225,-0.709,-0.7017,-0.6982,-0.7043,-0.721,-0.756,-0.351,0.5785,0.8206,1.3821,2.3122,2.5807,2.7043,2.6911,2.7393,2.7441,2.707,2.7146,2.7045,2.6876,2.6836,2.6999,2.7269,2.7198,2.707,2.6923,2.6975,2.6859,2.6691,2.6606,2.6399,2.6118,2.5881,2.5567,2.5301,2.5384,2.5208,2.495,2.5153,2.523,2.5192,2.5153,2.5805,2.6597,2.6776,2.7591,2.8433,2.877,2.8887,2.8936,2.907,2.9118,2.9118,2.9029,2.9055,2.9075,2.9075,2.9075,2.9075,2.9075,2.9075,2.9029,2.8936,2.9029,2.9075,2.9029,2.9029,2.9029,2.9029,2.9579,2.9939,2.9939,3.0432,3.1119,3.1977,3.1956,3.2285,3.3043,3.3058,3.2951,3.2773,3.3124,3.3319,3.3387,3.3767,3.402,-0.704,-0.5598,-0.4307,-0.3276,-0.2647,-0.2598,-0.4036,-0.3873,-0.4031,-0.6226,-0.6396,-0.6185,-0.6357,-0.6637,-0.6637,-0.6249,-0.6524,-0.6062,-0.402,-0.0958,0.0518,-0.0995,0.1993,0.3007,-0.0094,-0.0373,-0.2223,-0.6659,-0.6929,-0.6904,-0.6996,-0.534,-0.0096,0.9178,1.1319,1.6722,2.5949,2.6284,2.6426,2.6536,2.6804,2.6752,2.6402,2.6702,2.6752,2.6576,2.6534,2.6872,2.7441,2.7138,2.7099,2.7247,2.7087,2.6957,2.6808,2.6825,2.6708,2.6556,2.6295,2.5974,2.5738,2.5905,2.5705,2.5497,2.5663,2.5721,2.5721,2.5647,2.6515,2.7487,2.7662,2.8648,2.97,3.0038,3.0061,3.0087,3.0189,2.9973,2.9738,2.9738,2.9605,2.9515,2.9589,2.9454,2.9335,2.9335,2.9335,2.9289,2.9121,2.9075,2.9075,2.9075,2.9075,2.9232,2.9485,3.0053,3.0523,3.0824,3.1318,3.1898,3.2525,3.2489,3.2694,3.315,3.315,3.3112,3.2951,3.3439,3.3716,3.3834,3.435,3.464,-0.2716,0.0272,0.2794,0.3932,0.5819,0.6448,0.2856,0.2402,0.1451,-0.3108,-0.4456,-0.4861,-0.5019,-0.555,-0.5685,-0.4656,-0.4567,-0.2764,0.2597,0.3334,0.5213,1.021,1.086,1.1221,1.2006,1.1849,0.6744,-0.5106,-0.6245,-0.6338,-0.6146,-0.1658,0.3407,0.8939,1.401,1.9207,2.467,2.5398,2.6005,2.6552,2.6341,2.6113,2.5859,2.5955,2.5973,2.5961,2.5821,2.6185,2.6828,2.6468,2.6735,2.7355,2.7181,2.7103,2.7072,2.7198,2.7181,2.7085,2.6858,2.659,2.6349,2.6419,2.6315,2.6104,2.5832,2.603,2.6295,2.6082,2.7288,2.8419,2.7644,2.8982,3.0344,2.9632,3.0013,3.0485,3.0274,3.0231,3.0231,3.0231,3.0231,3.0258,3.0477,3.014,2.9837,2.9837,2.987,2.9726,2.9307,2.9215,2.9231,2.9262,2.9262,2.9594,3.026,3.0908,3.1589,3.2269,3.2825,3.315,3.3309,3.3203,3.3203,3.3346,3.3346,3.3293,3.3203,3.3646,3.3885,3.3869,3.4447,3.4736,0.0529,0.1864,0.3291,0.5317,0.6576,0.7237,0.6916,0.7657,0.6971,0.1935,0.1133,0.0272,-0.3276,-0.086,0.1501,0.1068,0.4219,0.6981,0.7792,1.1182,1.2592,0.9931,1.3595,1.4824,1.1008,1.0963,0.9848,0.6667,0.6481,0.6319,0.5768,0.6905,0.9795,1.4716,1.6176,1.9471,2.4804,2.4829,2.5132,2.5723,2.576,2.5599,2.5302,2.5534,2.5552,2.5401,2.5203,2.5488,2.6106,2.6408,2.6694,2.6986,2.7385,2.7624,2.7742,2.7666,2.756,2.7482,2.756,2.7224,2.6791,2.6873,2.6741,2.6539,2.664,2.6691,2.6708,2.6556,2.7614,2.8686,2.839,2.9459,3.0559,3.0278,3.0542,3.0855,3.0814,3.0838,3.0885,3.0885,3.0683,3.0502,3.0584,3.0418,3.0351,3.0377,3.0823,3.11,3.0953,3.0953,3.1166,3.172,3.1785,3.1867,3.2048,3.2382,3.2595,3.2788,3.3105,3.324,3.3309,3.3642,3.3848,3.3899,3.4218,3.4399,3.435,3.4911,3.5128,3.5128,3.5644,3.5864,0.4557,0.6199,0.81,1.0227,1.1843,1.2712,1.1945,1.2778,1.2351,0.7483,0.6763,0.6242,0.3715,0.5656,0.7597,0.735,0.9634,1.2182,1.4329,1.6509,1.777,1.7512,2.0171,2.0967,1.8211,1.8258,1.8452,1.846,1.3587,1.0435,1.0068,1.1903,1.4184,1.6924,1.925,2.1909,2.4915,2.4804,2.4861,2.5145,2.5149,2.5042,2.4794,2.489,2.487,2.475,2.4587,2.4888,2.5542,2.6129,2.6613,2.7023,2.7652,2.7982,2.8065,2.8065,2.7964,2.789,2.8055,2.784,2.7439,2.7382,2.7213,2.707,2.7055,2.7007,2.6909,2.6825,2.7772,2.8774,2.8699,2.9789,3.0895,3.0814,3.1015,3.1213,3.1213,3.1235,3.1295,3.1372,3.1317,3.1184,3.0965,3.0908,3.1009,3.1345,3.1691,3.2277,3.316,3.2562,3.2237,3.2652,3.2685,3.2818,3.3167,3.3307,3.3498,3.3761,3.3891,3.3968,3.3968,3.4267,3.4415,3.4415,3.469,3.4769,3.4769,3.5345,3.5616,3.5616,3.6071,3.6301,0.8122,1.07,1.3486,1.5495,1.7847,1.9085,1.6934,1.7559,1.7371,1.3081,1.2234,1.2179,1.198,1.2392,1.2961,1.3609,1.4016,1.6061,2.1306,2.0782,2.1928,2.7466,2.7459,2.7252,2.795,2.8014,2.8017,2.8017,1.8057,1.2038,1.2184,1.5904,1.8037,1.8107,2.2548,2.4968,2.5031,2.5,2.4921,2.4804,2.4673,2.4566,2.4411,2.4321,2.4266,2.4247,2.4114,2.4417,2.5023,2.5683,2.6434,2.7175,2.7867,2.8174,2.8264,2.8448,2.8404,2.8308,2.8422,2.8388,2.8201,2.7847,2.763,2.7465,2.7198,2.712,2.7072,2.6975,2.7947,2.8977,2.8941,3.0133,3.1329,3.1252,3.1445,3.1579,3.1542,3.1596,3.1671,3.1837,3.2001,3.1965,3.1487,3.147,3.1747,3.2439,3.2605,3.3345,3.5203,3.4007,3.3044,3.3188,3.3205,3.3428,3.4096,3.4072,3.4293,3.4878,3.4833,3.4769,3.4769,3.488,3.4927,3.4927,3.4958,3.5005,3.5005,3.5481,3.5705,3.5705,3.6114,3.6301,0.7869,0.8994,1.0548,1.3569,1.5813,1.7731,1.9471,2.1065,2.1183,1.7659,1.6794,1.5762,1.2713,1.5528,1.8344,1.8467,2.2353,2.5704,2.6819,2.6714,2.6951,2.8052,2.8048,2.8014,2.8154,2.8118,2.8081,2.8074,2.5428,2.3807,2.3733,2.4466,2.4563,2.3883,2.4702,2.5149,2.516,2.5006,2.4874,2.4804,2.4775,2.4685,2.4559,2.4654,2.4636,2.4522,2.4459,0.0,2.4317,2.5059,2.5877,2.6702,2.7432,2.819,2.8934,2.8975,2.8858,2.8718,2.8902,2.8761,2.8448,2.7961,2.7659,2.7465,2.7261,2.7338,2.7461,2.7289,2.8508,2.9854,2.9673,3.0785,3.1878,3.1694,3.1841,3.2038,3.1858,3.2037,3.2196,3.2161,3.2144,3.2144,3.2073,3.202,3.2244,3.3099,3.3685,3.4415,3.5357,3.5059,3.4991,3.5608,3.5677,3.5728,3.5865,3.5518,3.5346,3.5464,3.5068,3.4769,3.4769,3.5253,3.5481,3.5481,3.5837,3.6028,3.6028,3.6114,3.6174,3.6156,3.6259,3.6301,0.8358,0.9067,1.0253,1.2707,1.4613,1.6598,1.9197,2.1218,2.2198,2.1092,2.1135,2.0886,1.9255,2.1348,2.3313,2.3389,2.6046,2.8261,2.8769,2.8437,2.832,2.8769,2.804,2.7505,2.7425,2.7004,2.6747,2.6759,2.6364,2.6287,2.6676,2.6273,2.5826,2.537,2.5321,2.5302,2.5293,2.5171,2.508,2.5019,2.4949,2.485,2.4752,2.4799,2.4752,2.4693,2.462,2.4508,2.4426,2.5227,2.608,2.6935,2.7672,2.8569,2.9397,2.9334,2.9228,2.9119,2.9188,2.8993,2.8664,2.8394,2.8129,2.7897,2.7765,2.7754,2.78,2.7666,2.8802,3.0078,2.9934,3.1124,3.2317,3.2197,3.23,3.2352,3.2179,3.2284,3.2388,3.2319,3.2301,3.2389,3.2756,3.2826,3.3228,3.4416,3.4868,3.5335,3.6085,3.6087,3.6104,3.6367,3.6343,3.6301,3.6301,3.6071,3.5985,3.5985,3.5705,3.5554,3.5554,3.5837,3.5985,3.5985,3.6174,3.6301,3.6301,3.6301,3.6301,3.6301,3.6301,3.6301,0.911,0.9621,1.0597,1.2308,1.378,1.5537,1.8152,2.0289,2.1969,2.301,2.397,2.4707,2.5023,2.5736,2.6413,2.6928,2.7593,2.8495,2.9751,2.9201,2.8972,2.9842,2.8459,2.7337,2.7046,2.6287,2.5712,2.5545,2.5525,2.5808,2.6495,2.5867,2.5486,2.5421,2.5403,2.5403,2.5401,2.5322,2.5253,2.5192,2.5088,2.5022,2.4955,2.4949,2.4924,2.493,2.4864,2.478,2.4783,2.543,2.6309,2.7301,2.786,2.876,2.9696,2.9607,2.9494,2.9412,2.9414,2.9191,2.8902,2.8929,2.8652,2.8298,2.8237,2.8201,2.812,2.8037,2.9147,3.0325,3.0234,3.1515,3.277,3.2737,3.2672,3.2573,3.2473,3.2422,3.2406,3.2406,3.2406,3.2546,3.3107,3.3335,3.3949,3.5294,3.5626,3.6011,3.6764,3.6748,3.6684,3.6585,3.6444,3.6343,3.6343,3.6301,3.6301,3.6301,3.6301,3.6301,3.6301,3.6301,3.6301,3.6301,3.6301,3.6301,3.6301,3.6301,3.6301,3.6301,3.6301,3.6301,1.0038,0.9949,1.0189,1.1974,1.3029,1.4405,1.7338,1.9361,2.1021,2.2384,2.35,2.4351,2.4685,2.4981,2.5702,2.7441,2.7829,2.8798,3.1318,3.0978,3.0769,3.1661,3.0224,2.8887,2.8138,2.7284,2.6431,2.5659,2.5582,2.5593,2.5626,2.5543,2.5505,2.5485,2.5432,2.541,2.5401,2.5265,2.5224,2.5192,2.5182,2.5186,2.5168,2.5292,2.5346,2.5332,2.5274,2.5205,0.0,2.5094,2.5988,2.7376,2.738,2.8334,2.9696,2.9753,2.9626,2.9433,2.9664,2.9531,2.9283,2.9392,2.8952,2.8376,2.8298,2.8438,2.8619,2.8492,2.9727,3.1093,3.103,3.2169,3.3274,3.3086,3.2816,3.2606,3.2573,3.2507,3.2406,3.2406,3.2406,3.2423,3.2493,3.3037,3.3774,3.467,3.5372,3.6054,3.6882,3.6869,3.6788,3.6771,3.6585,3.6502,3.6502,3.6343,3.6301,3.6301,3.6301,3.6301,3.6301,3.6301,3.6301,3.6301,3.6301,3.6301,3.6301,3.6301,3.6301,3.6301,3.6301,3.6301,1.0618,1.0766,1.1159,1.2438,1.3506,1.4918,1.7354,1.9215,2.0841,2.2306,2.3294,2.4061,2.461,2.4678,2.5158,2.6703,2.7418,2.8367,3.0036,3.0875,3.1261,3.1111,3.0521,2.9784,2.8929,2.7676,2.6543,2.5664,2.5603,2.5592,2.5565,2.5601,2.5601,2.5552,2.557,2.5552,2.5525,2.5477,2.544,2.5432,2.5447,2.5434,2.5447,2.5447,2.5434,2.5406,2.5324,2.5274,0.0,2.5111,2.6082,2.7631,2.7567,2.8569,3.0056,3.0045,2.9956,2.9823,2.9857,2.9681,2.9474,2.9492,2.927,2.8966,2.8874,2.8892,2.8929,2.8767,2.9933,3.1172,3.1111,3.232,3.353,3.3321,3.3111,3.2894,3.2654,3.2621,3.2654,3.2654,3.2816,3.3041,3.3293,3.3613,3.4234,3.551,3.5953,3.6505,3.7542,3.7413,3.7226,3.7226,3.6851,3.6602,3.6602,3.6502,3.6402,3.6402,3.6343,3.6301,3.6301,3.6301,3.6301,3.6301,3.6301,3.6301,3.6301,3.6301,3.6301,3.6301,3.6301,3.6301,1.1085,1.1306,1.1836,1.2758,1.3936,1.5389,1.7422,1.9215,2.0841,2.2306,2.3216,2.3961,2.4547,2.4526,2.4851,0.0,2.7046,2.8166,2.9721,3.0967,3.1684,3.1639,3.1439,3.0868,2.9757,2.7942,2.6487,2.5634,2.5566,2.5585,2.5605,2.5641,2.5777,2.5978,2.5808,2.5781,2.5979,2.5732,2.5593,2.5589,2.5605,2.5742,2.5979,2.5946,2.6023,2.6223,2.6178,2.601,0.0,2.5659,2.6341,2.7497,2.7681,2.8644,2.9934,3.0125,3.0166,3.0113,3.0019,2.9886,2.975,2.9662,2.9608,2.9531,2.9414,2.931,2.9181,2.9071,3.016,3.1414,3.1498,3.2674,3.3734,3.355,3.3419,3.3284,3.3001,3.2952,3.2983,3.2983,3.3154,3.3394,3.3723,3.3996,3.4515,3.5659,3.6018,3.6534,3.7597,3.7466,3.7381,3.7667,3.7243,3.6869,3.6725,3.6708,3.665,3.6502,3.6402,3.6343,3.6301,3.6301,3.6301,3.6301,3.6301,3.6301,3.6301,3.6301,3.6301,3.6301,3.6301,3.6301,1.148,1.1543,1.1836,1.2758,1.3957,1.5435,1.7448,1.9235,2.0886,2.2306,2.3348,2.4095,2.4447,2.45,2.4877,2.6025,2.6883,2.8398,3.1268,3.1688,3.2336,3.4056,3.3496,3.2312,3.0645,2.8201,2.6378,2.555,2.5498,2.5535,2.5601,2.5601,2.5996,2.6851,2.6113,2.6072,2.6888,2.6039,2.5598,2.5593,2.5593,2.6041,2.6897,2.689,2.7358,2.8164,2.8173,2.7673,0.0,2.6817,2.6757,2.6783,2.7576,2.8349,2.911,2.9914,3.0202,3.0202,3.0199,3.0147,3.0075,3.0022,2.9943,2.988,2.9799,2.9644,2.9472,2.9412,3.0546,3.1912,3.2447,3.3294,3.3947,3.3753,3.3716,3.3688,3.3688,3.3542,3.3372,3.3372,3.3332,3.3291,3.3309,3.3961,3.4485,3.4521,3.5142,3.5901,3.6729,3.6819,3.7145,3.8011,3.7721,3.7301,3.6851,3.7052,3.6995,3.6544,3.6502,3.6444,3.6301,3.6301,3.6301,3.6301,3.6301,3.6301,3.6301,3.6301,3.6301,3.6301,3.6301,3.6301,1.3211,1.357,1.4038,1.485,1.5956,1.7183,1.8427,2.0002,2.145,2.2287,2.3165,2.3899,2.4229,2.4303,2.504,2.733,2.7926,0.0,3.1724,3.2699,3.2913,3.2312,3.1609,3.0489,2.8741,2.7901,2.6901,2.5522,2.543,2.5464,2.5529,2.5531,2.5673,2.6002,2.5763,2.5777,2.6072,2.58,2.5664,2.5677,2.6266,2.6696,2.6984,2.7586,2.7988,2.8207,2.8201,2.7707,2.6909,2.6882,2.6838,2.6851,2.7711,2.8516,2.9291,3.0115,3.0413,3.04,3.0304,3.0222,3.0144,3.0047,2.9939,2.9896,2.988,2.9748,2.972,3.0167,3.1082,3.2107,3.2821,3.3682,3.4293,3.4148,3.403,3.3935,3.3742,3.376,3.3797,3.3743,3.3876,3.391,3.3662,3.3853,3.4219,3.4767,3.5042,3.5556,3.6583,3.7026,3.7314,3.7588,3.8,3.808,3.7703,3.745,3.7264,3.7129,3.7052,3.6873,3.6585,3.6544,3.6544,3.6444,3.6444,3.6402,3.6301,3.6301,3.6451,3.6719,3.6409,3.6451,1.4402,1.479,1.5419,1.5898,1.7167,1.8484,1.9271,2.0623,2.1922,2.2591,2.331,2.3899,2.4154,2.4248,2.5004,2.7114,2.7729,2.8852,3.1482,3.2669,3.3006,3.2262,3.1001,2.9639,2.8288,2.7565,2.6683,2.5446,2.5331,2.5322,2.5378,2.5412,2.5437,2.5479,2.5532,2.573,2.6071,2.5775,2.5623,2.5631,2.6503,2.7093,2.7456,2.8338,2.8906,2.9175,2.9179,2.8499,0.0,2.7379,2.7167,2.6914,2.7775,2.859,2.9394,3.0203,3.0527,3.0528,3.04,3.0367,3.0337,3.0222,3.0144,3.0089,3.0117,2.9988,2.9912,3.0373,3.1336,3.2316,3.2707,3.3721,3.4561,3.4409,3.4316,3.4227,3.4068,3.413,3.4173,3.4124,3.4245,3.4269,3.4023,3.3998,3.4138,3.461,3.471,3.5103,3.6129,3.6535,3.6934,3.7542,3.7923,3.8236,3.8455,3.8099,3.7791,3.7614,3.7505,3.7358,3.7073,3.7073,3.6974,3.6753,3.6696,3.6591,3.6402,3.6402,3.6574,3.6956,3.6736,3.6799,0.0,1.5492,1.6145,1.623,1.7717,1.9352,1.9965,2.1171,0.0,2.3117,2.3671,2.4054,2.4227,2.445,2.4923,2.5974,2.6887,2.8308,3.0803,3.1803,3.256,3.3298,3.132,2.9593,2.8834,2.721,2.5951,2.5311,2.516,2.5126,2.5182,2.5252,2.5292,2.5293,2.5414,2.5867,2.6682,2.59,2.5531,2.5599,2.6412,2.7255,2.8139,2.9006,2.9916,3.0782,3.0664,2.9706,2.8202,2.8209,2.7686,2.6988,2.7874,2.8661,2.9428,3.0222,3.0564,3.061,3.0539,3.0548,3.0591,3.053,3.0451,3.0419,3.0481,3.0285,3.0041,3.0171,3.1367,3.2547,3.2296,3.3525,3.4768,3.4561,3.4561,3.4623,3.4602,3.4539,3.4517,3.4495,3.445,3.4404,3.4316,3.4293,3.4269,3.4221,3.4269,3.4591,3.5318,3.5535,3.6149,3.7586,3.7571,3.7882,3.8925,3.8741,3.8405,3.7962,3.7928,3.7875,3.7736,3.7736,3.7596,3.7246,3.7114,3.69,3.6609,3.6609,3.6794,3.7167,3.7167,3.7301,1.7706,0.0,1.7666,1.8527,1.9294,2.0119,0.0,2.1955,2.2669,2.3084,2.3602,2.4198,2.4842,2.5207,2.6116,2.8219,2.9263,3.0234,3.1451,3.1329,3.1183,3.1428,2.9869,2.8454,2.7603,2.6669,2.5811,2.5038,2.5056,2.5099,2.5126,2.5201,2.5212,2.522,2.5243,2.5717,2.6602,2.5892,2.5816,2.6431,2.6687,2.7264,2.8111,2.8376,2.935,3.0723,2.9394,2.8574,2.8202,2.8201,2.7711,2.7121,2.8648,2.9366,2.9628,3.0437,3.0742,3.0732,3.0687,3.0662,3.0677,3.0591,3.0574,3.0539,3.052,3.0375,3.0221,3.0207,3.1408,3.2645,3.2547,3.3767,3.4983,3.4788,3.4747,3.4708,3.4623,3.4602,3.4561,3.4517,3.4495,3.4473,3.4404,3.4381,3.434,3.4293,3.434,3.4433,3.4572,3.5235,3.5795,3.6118,3.7177,3.7941,3.8154,3.8427,3.8548,3.8436,3.8455,3.8328,3.7998,3.7998,3.7929,3.7738,3.7613,3.7506,3.7397,3.7397,3.7613,3.7995,3.7702,3.7737,1.9558,1.9126,1.8835,1.9434,2.0234,2.1038,2.1724,2.2412,2.2977,2.3241,2.3682,2.4233,2.5056,2.5386,2.6412,2.8977,2.9342,2.9765,3.1032,3.0835,3.0451,3.0137,2.8669,2.7362,2.6626,2.5839,2.5208,2.4874,2.4861,2.4893,2.4968,2.5038,2.5082,2.5101,2.5149,2.5401,2.5957,2.5551,2.5597,2.6058,2.6502,2.6973,2.7466,2.794,2.8675,2.9507,2.8594,2.7982,2.767,2.8082,2.7987,2.7734,2.9081,2.9824,3.0195,3.064,3.0793,3.079,3.0716,3.07,3.0708,3.0686,3.0659,3.0644,3.0605,3.0518,3.0411,3.0356,3.1539,3.2831,3.279,3.4006,3.5187,3.5018,3.4982,3.4945,3.4793,3.4812,3.4812,3.4711,3.467,3.4628,3.4454,3.445,3.4409,3.434,3.4386,3.4427,3.434,3.4815,3.5287,3.5608,3.6429,3.7224,3.7891,3.8174,3.8477,3.8818,3.8836,3.8748,3.8566,3.8566,3.8423,3.8129,3.791,3.7789,3.7789,3.7789,3.7977,3.8392,3.818,3.8245,2.0844,2.0494,2.0111,1.9934,2.0798,2.1803,2.2169,0.0,0.0,2.3476,2.3837,2.4395,2.526,2.569,2.6714,2.9159,2.8815,2.8805,3.0469,3.0428,2.9984,2.9191,2.7746,2.6544,2.5903,2.4998,2.4513,2.467,2.4578,2.458,2.4704,2.4779,2.4842,2.4922,2.498,2.5038,2.5099,2.5157,2.5278,2.5493,2.6062,2.6438,2.668,2.7337,2.7799,2.8034,0.0,0.0,2.702,2.7885,2.8254,2.8369,2.9383,3.0187,3.0797,3.0801,3.0801,3.0781,3.0753,3.0713,3.0716,3.0781,3.0759,3.072,3.0726,3.0675,3.0644,3.0726,3.1835,3.3018,3.3172,3.4301,3.5391,3.5262,3.5212,3.5181,3.5049,3.5083,3.5064,3.4944,3.4926,3.487,3.463,3.4607,3.4586,3.4502,3.4542,3.4539,3.4476,3.4476,3.4776,3.5455,3.5642,3.6267,3.7727,3.7925,3.8327,3.9073,3.9101,3.9101,3.9101,3.9101,3.8923,3.8511,3.8227,3.8096,3.8096,3.8096,3.8245,3.8585,3.8585,3.8695,2.107,2.1805,2.2287,2.1559,2.1549,2.1919,2.2764,2.3028,2.3199,2.3602,2.4252,2.5103,2.6245,2.7405,2.8667,3.0113,3.0191,3.0431,3.1444,3.0426,2.9256,2.8402,2.7454,2.6506,2.5578,2.4746,2.421,2.4135,2.4154,2.4211,2.4302,2.4355,2.4458,2.4578,2.4588,2.4617,2.4682,2.4921,2.5468,2.6304,2.5469,2.5546,2.642,2.5828,2.6379,2.7691,0.0,2.6183,2.6812,2.7686,2.8073,2.8281,2.9893,3.0613,3.0716,3.0781,3.0791,3.0804,3.0853,3.0839,3.0786,3.0806,3.0794,3.079,3.0774,3.079,3.0919,3.1651,3.24,3.3158,3.3905,3.4801,3.547,3.5391,3.5331,3.5254,3.5181,3.513,3.5098,3.5064,3.5064,3.5047,3.4994,3.5013,3.4996,3.4905,3.487,3.4812,3.4752,3.4668,3.4617,3.4682,3.5277,3.6077,3.6976,3.7685,3.8406,3.9127,3.9129,3.9101,3.9101,3.9101,3.9073,3.8998,3.8923,3.8942,3.8942,3.8942,3.8942,3.9017,3.9017,3.8989,2.1859,2.2412,2.2897,2.3103,2.3467,2.3757,2.3745,2.4176,2.4608,2.4807,2.5206,2.5845,2.685,2.7852,2.8862,2.9917,3.0564,3.077,3.0202,2.9095,2.8007,2.7221,2.6413,2.5585,2.4737,2.4316,2.4075,2.3996,2.4018,2.4096,2.4192,2.4229,2.432,2.4442,2.4491,2.4505,2.4556,2.462,2.4978,2.5583,2.5053,2.508,2.5571,2.526,2.5557,2.6311,0.0,2.5654,2.6158,2.7457,2.8035,2.826,3.0016,3.0658,3.0587,3.0581,3.0626,3.07,3.0721,3.0735,3.0743,3.0751,3.0779,3.0801,3.08,3.0797,3.1079,3.2416,3.297,3.3358,3.4234,3.5059,3.5639,3.5593,3.5562,3.5531,3.5425,3.5412,3.5399,3.5278,3.5268,3.5243,3.513,3.5114,3.5098,3.5062,3.503,3.4997,3.498,3.4832,3.4772,3.4832,3.499,3.5462,3.6336,3.7084,3.7991,3.9136,3.9129,3.9101,3.9101,3.9101,3.9101,3.9101,3.9101,3.9101,3.9101,3.9101,3.9101,3.9101,3.9101,3.9073,2.2323,2.279,2.3258,2.4,2.4572,2.4892,2.4723,2.5141,2.5586,2.5815,2.6128,2.6531,2.7242,2.8146,2.9024,2.9846,3.0589,3.0503,2.8925,2.7985,2.709,2.6132,2.5499,2.4808,2.4008,2.3917,2.3935,2.3894,2.3873,2.3896,2.3998,2.4057,2.4097,2.4099,2.421,2.4246,2.421,2.4174,2.4352,2.4775,2.4708,2.4718,2.4818,2.4937,2.5041,2.5118,2.5254,2.5367,2.5542,2.7047,2.7823,2.8196,2.9737,3.0393,3.047,3.0414,3.047,3.0595,3.0598,3.0633,3.0684,3.0691,3.0724,3.0785,3.0771,3.0793,3.1152,3.2888,3.3331,3.3546,3.4627,3.5344,3.5782,3.5747,3.5757,3.5766,3.5669,3.5669,3.5658,3.55,3.5463,3.5418,3.5268,3.5239,3.5243,3.5243,3.5193,3.5162,3.5162,3.5032,3.4981,3.5049,3.4851,3.5148,3.6211,3.6945,3.7885,3.9189,3.9183,3.9129,3.9129,3.9101,3.9101,3.9101,3.9101,3.9101,3.9101,3.9101,3.9101,3.9101,3.9101,3.9101,2.1884,2.3098,2.4148,2.3679,2.3413,2.3746,2.5479,2.5308,2.5028,2.5913,2.6534,2.7079,2.7495,2.8798,3.0031,3.0695,3.0368,2.9733,2.8907,2.8085,2.7009,2.5458,2.5239,2.4811,2.3825,2.3714,2.3667,2.3544,2.3539,2.3476,2.3365,2.3594,2.3571,2.3212,2.3455,2.3522,2.3399,2.3369,2.383,2.4697,2.4442,2.4444,2.462,2.4704,2.4768,2.4832,2.5044,2.5156,2.5283,2.622,2.7119,2.7999,2.8871,2.9701,3.0419,3.0402,3.0472,3.0591,3.0595,3.0593,3.0626,3.0684,3.0711,3.0715,3.0704,3.0746,3.1155,3.2838,3.3299,3.3685,3.5371,3.5791,3.5791,3.5791,3.5793,3.5803,3.5794,3.5737,3.5699,3.5679,3.5669,3.5667,3.5667,3.5654,3.5662,3.5662,3.5509,3.5378,3.5378,3.5212,3.5049,3.4926,3.4997,3.5643,3.7067,3.7929,3.87,3.9439,3.9283,3.9183,3.9183,3.9129,3.9101,3.9101,3.9101,3.9101,3.9101,3.9101,3.9101,3.9101,3.9101,3.9101,2.1768,2.3098,2.4232,2.3839,2.3684,2.4025,2.5622,2.6065,2.6379,2.7294,2.7629,2.796,2.8595,2.9313,2.9827,2.995,2.944,2.8714,2.7817,2.6585,2.5512,2.4736,2.4195,2.3673,2.3116,2.3074,2.3049,2.301,2.3052,2.3052,2.3035,2.3199,2.3206,2.3091,2.32,2.3271,2.3301,2.3294,2.349,2.3908,2.3824,2.3903,2.4099,2.4174,2.4283,2.4441,2.4604,2.4741,2.4898,2.5815,2.6415,2.6924,2.8303,2.9415,3.0279,3.0228,3.0292,3.0417,3.0409,3.0442,3.0491,3.0548,3.0599,3.0644,3.0639,3.0686,3.0977,3.215,3.2881,3.3691,3.5454,3.5845,3.5807,3.5807,3.5799,3.5801,3.5801,3.5784,3.5766,3.5766,3.5728,3.5689,3.5689,3.5688,3.5697,3.5697,3.5643,3.5577,3.5577,3.5405,3.5321,3.5402,3.5816,3.6444,3.7298,3.8109,3.8896,3.9698,3.9464,3.9301,3.921,3.9183,3.9156,3.9101,3.9101,3.9101,3.9101,3.9101,3.9101,3.9101,3.9101,3.9101,2.1467,2.2698,2.3876,2.3928,2.3917,2.4268,2.5498,2.5896,2.6349,2.7404,2.7579,2.7844,2.8859,2.8649,2.8407,2.8629,2.8022,2.7199,2.6294,2.5161,2.4275,2.385,2.3292,2.2859,2.2546,2.2563,2.2537,2.2378,2.2466,2.251,2.2476,2.2599,2.2625,2.2529,2.2652,2.2729,2.2764,2.2822,2.2898,2.2972,2.2996,2.3236,2.3631,2.3663,2.3751,2.3948,2.41,2.4226,2.4402,2.5129,2.5656,2.6151,2.7929,2.9042,2.9694,2.9988,3.0171,3.0279,3.0292,3.0343,3.0406,3.0469,3.052,3.0568,3.0595,3.0625,3.0856,3.1753,3.2635,3.3641,3.5109,3.5661,3.5838,3.5834,3.5821,3.584,3.5833,3.5826,3.5834,3.5834,3.5773,3.5737,3.5737,3.5718,3.5698,3.5707,3.5697,3.5695,3.5704,3.5577,3.563,3.6041,3.6447,3.7049,3.7889,3.8461,3.9107,3.9857,3.9684,3.9483,3.9283,3.9283,3.9229,3.9129,3.9129,3.9129,3.9101,3.9101,3.9101,3.9101,3.9101,3.9101,2.0894,2.1879,2.3067,2.3815,2.4006,2.4224,2.5073,2.4555,2.4351,2.5877,2.6147,2.6509,2.7921,2.6658,2.5747,2.6783,2.6092,2.513,2.4383,2.3989,2.3515,2.2773,2.2703,2.2537,2.2124,2.2214,2.2113,2.1699,2.1819,2.1811,2.1609,2.1852,2.1782,2.1323,2.1685,2.1786,2.1582,2.1794,2.194,2.1998,2.1998,2.2449,2.33,2.3158,2.3209,2.341,2.3611,2.3737,2.3815,2.4082,2.4798,2.5889,2.7671,2.8433,2.8619,2.9703,3.0142,3.0188,3.0266,3.0349,3.041,3.0477,3.0499,3.0509,3.0579,3.0606,3.0793,3.1712,3.2603,3.3492,3.4364,3.5222,3.5893,3.5908,3.5908,3.5906,3.5896,3.5903,3.5889,3.5889,3.5857,3.5803,3.5803,3.5747,3.5699,3.5688,3.5707,3.5697,3.5695,3.5704,3.6013,3.6806,3.6794,3.7392,3.905,3.9204,3.9404,3.9878,3.9914,3.9777,3.952,3.9444,3.9346,3.921,3.921,3.9156,3.9101,3.9101,3.9101,3.9101,3.9101,3.9101,2.0651,2.1893,2.332,2.2745,2.3056,2.3425,2.3193,2.3966,2.4871,2.5248,2.538,2.5507,2.5876,2.5488,2.5142,2.523,2.4511,2.3756,2.3316,2.2664,2.2086,2.1685,2.1652,2.1519,2.1213,2.1275,2.1275,2.1149,2.129,2.1368,2.1323,2.146,2.1444,2.1291,2.1507,2.1612,2.1582,2.1794,2.194,2.1998,2.1869,2.2068,2.2591,2.2556,2.2712,2.3038,2.3153,2.331,2.3459,2.3741,2.4499,2.5616,2.671,2.7624,2.839,2.9288,2.968,2.9784,2.9851,2.9915,2.9977,3.0066,3.0142,3.0215,3.0235,3.0378,3.0578,3.0864,3.1642,3.2596,3.3526,3.4359,3.5132,3.574,3.5896,3.5906,3.5896,3.5907,3.59,3.59,3.588,3.5872,3.5872,3.5807,3.5766,3.5766,3.5728,3.5708,3.5697,3.6179,3.6598,3.6742,3.79,3.8807,3.9157,3.9758,4.0172,4.0302,4.0196,3.9935,3.952,3.9469,3.9399,3.921,3.921,3.9156,3.9101,3.9101,3.9101,3.9101,3.9101,3.9101,2.0712,2.1732,2.2897,2.2513,2.2665,2.2806,2.2361,2.3334,2.4391,2.4505,2.4298,2.4279,2.4775,2.4137,2.3608,2.3833,2.308,2.2402,2.2203,2.1657,2.1227,2.1039,2.0879,2.0651,2.0345,2.033,2.023,2.0108,2.033,2.0481,2.0481,2.0514,2.0548,2.0548,2.0731,2.0846,2.0894,2.1102,2.1228,2.129,2.1214,2.1306,2.1592,2.1878,2.2209,2.2537,2.2721,2.295,2.323,2.3399,2.3938,2.4782,2.5693,2.6643,2.7636,2.8595,2.9195,2.957,2.9661,2.9731,2.9817,2.988,2.9977,3.009,3.0095,3.0248,3.0428,3.0414,3.1128,3.2105,3.3044,3.3926,3.4792,3.5715,3.5932,3.5937,3.5937,3.5914,3.5909,3.5909,3.5907,3.5899,3.5899,3.5866,3.5823,3.5795,3.5745,3.5699,3.5708,3.6424,3.7019,3.7263,3.862,3.9598,3.9816,4.0323,4.0583,4.0523,4.0392,4.0158,3.9781,3.9684,3.9558,3.9328,3.9328,3.9256,3.9129,3.9129,3.9129,3.9101,3.9101,3.9101,2.0942,2.144,2.2019,2.2701,2.257,2.2281,2.2231,2.2698,2.3203,2.3494,2.2973,2.2846,2.4143,2.2682,2.156,2.246,2.1756,2.1038,2.0959,2.0731,2.0579,2.0579,2.0215,1.9838,1.9507,1.9368,1.917,1.8841,1.9109,1.925,1.925,1.9288,1.9288,1.9288,1.9536,1.9666,1.9666,1.9949,2.0089,2.0089,2.0208,2.0311,2.0431,2.1166,2.1678,2.1969,2.2287,2.2642,2.3028,2.3028,2.3223,2.3616,2.4708,2.5622,2.6475,2.7696,2.8652,2.9344,2.9588,2.9678,2.9767,2.9832,2.995,3.006,3.0052,3.0174,3.0273,3.029,3.0914,3.1821,3.2839,3.3724,3.4618,3.5699,3.5977,3.599,3.6007,3.595,3.5918,3.5918,3.5894,3.5899,3.5899,3.5908,3.5869,3.5813,3.5749,3.5708,3.5708,3.6464,3.7307,3.8128,3.898,3.984,4.0725,4.079,4.072,4.0554,4.0539,4.0441,4.0233,4.002,3.9777,3.9546,3.9495,3.9399,3.921,3.921,3.9183,3.9101,3.9101,3.9101,2.0644,2.1039,2.1617,2.1782,2.1691,2.1535,2.1503,2.1629,2.1722,2.1627,2.1566,2.1552,2.1744,2.1407,2.091,2.0457,2.0174,1.9783,1.9163,1.9043,1.8983,1.8983,1.8893,1.8817,1.8755,1.8535,1.8366,1.8302,1.8235,1.8221,1.8221,1.8327,1.838,1.838,1.8631,1.8792,1.8792,1.9038,1.9236,1.9339,1.9375,1.9447,1.9677,2.0548,2.1182,2.1598,2.1748,2.2022,2.2402,2.2439,2.2625,2.2927,2.4109,2.4736,2.5141,2.6982,2.7798,2.8143,2.9005,2.933,2.9351,2.9472,2.9645,2.9792,2.979,2.9956,3.0152,3.0209,3.04,3.0975,3.2608,3.318,3.3723,3.53,3.5853,3.6009,3.6001,3.5994,3.5982,3.5982,3.5936,3.5897,3.5897,3.5903,3.5892,3.5875,3.583,3.5775,3.5775,3.6493,3.7327,3.8199,3.901,3.9851,4.073,4.0803,4.0778,4.0733,4.0733,4.0646,4.0441,4.01,3.9848,3.9754,3.9577,3.9444,3.9346,3.9256,3.9183,3.9183,3.9129,3.9101,2.0312,2.0754,2.1244,2.0959,2.0812,2.0681,2.0465,2.0398,2.0379,2.0277,2.0663,2.0942,2.0698,2.0416,2.0039,1.9419,1.92,1.8991,1.8539,1.85,1.8422,1.8224,1.804,1.7841,1.7706,1.7544,1.7327,1.7053,1.7122,1.7205,1.7205,1.7259,1.73,1.73,1.7558,1.7666,1.7666,1.793,1.8218,1.8584,1.8608,1.8873,1.9419,2.0246,2.0894,2.1401,2.1493,2.1748,2.2124,2.2136,2.2313,2.2616,2.3319,2.3874,2.4448,2.5631,2.6561,2.7313,2.7973,2.8487,2.8887,2.9052,2.927,2.9472,2.9569,2.9771,2.9972,3.0,3.0085,3.0483,3.1872,3.2582,3.3253,3.4649,3.5449,3.5908,3.5904,3.5951,3.6007,3.5991,3.5964,3.5951,3.5951,3.5918,3.5906,3.5892,3.5872,3.5838,3.5838,3.6906,3.7832,3.8249,3.9411,4.0331,4.0765,4.0788,4.0796,4.0796,4.0803,4.0746,4.0646,4.0339,4.008,3.9848,3.9754,3.9607,3.9444,3.9373,3.9283,3.921,3.9156,3.9129,1.9715,2.0224,2.0622,2.0212,2.0085,1.9925,1.9603,1.9472,1.9413,1.9413,2.001,2.0478,2.0193,1.9752,1.9295,1.8907,1.8602,1.8383,1.8305,1.8226,1.804,1.7706,1.7368,1.7021,1.6659,1.6514,1.6256,1.5828,1.6003,1.6133,1.6133,1.6176,1.6188,1.6188,1.6361,1.6532,1.6672,1.6828,1.7175,1.7787,1.7881,1.838,1.9207,1.9763,2.0452,2.1166,2.1214,2.1462,2.1853,2.1853,2.2051,2.2368,2.2538,2.3111,2.3868,2.4292,2.5374,2.6623,2.6977,2.7705,2.8543,2.8718,2.8993,2.923,2.9453,2.9626,2.979,2.9808,2.9893,3.0193,3.1155,3.2058,3.301,3.3993,3.4981,3.5721,3.5755,3.5844,3.5942,3.5958,3.5988,3.5991,3.5991,3.5933,3.5898,3.5906,3.5892,3.5899,3.5889,3.7221,3.8216,3.8316,3.9723,4.0703,4.0818,4.0804,4.08,4.08,4.0796,4.0803,4.079,4.0646,4.0372,4.0,3.9958,3.9826,3.9577,3.9552,3.9432,3.9256,3.921,3.9183,1.8466,1.8806,1.9284,1.9667,1.9747,1.9711,1.953,1.9479,1.9457,1.9413,1.9487,1.9581,1.9508,1.9435,1.925,1.8731,1.8305,1.7908,1.7434,1.7018,1.6765,1.6667,1.6637,1.6411,1.5964,1.5656,1.5433,1.5389,1.5209,1.5119,1.5119,1.522,1.5277,1.5277,1.5062,1.5377,1.6262,1.6064,1.6312,1.7044,1.724,1.7707,1.8461,1.8525,1.9325,2.0613,2.0628,2.0844,2.1214,2.1294,2.1481,2.1768,2.2108,2.2409,2.277,2.3928,2.4943,2.5896,2.6728,2.7679,2.8543,2.8718,2.8993,2.923,2.9453,2.9589,2.9719,2.979,2.9825,3.0065,3.1051,3.1917,3.2787,3.3723,3.4693,3.5412,3.5591,3.565,3.5682,3.5788,3.5927,3.5991,3.5991,3.5933,3.5898,3.5898,3.5906,3.5896,3.5894,3.6701,3.7566,3.8313,3.9219,4.0073,4.0819,4.0837,4.0804,4.08,4.0788,4.0796,4.079,4.0778,4.066,4.0406,4.0251,4.006,3.9848,3.9781,3.9661,3.9469,3.9283,3.9183,1.8641,1.917,1.9596,1.9687,1.9639,1.953,1.9302,1.8988,1.8745,1.863,1.8461,1.8422,1.8745,1.8486,1.808,1.7639,1.7338,1.7102,1.685,1.665,1.6337,1.5888,1.5844,1.5567,1.488,1.4709,1.4582,1.4247,1.4258,1.4269,1.4269,1.4408,1.449,1.449,1.4444,1.4628,1.5096,1.5051,1.54,1.6175,1.668,1.7297,1.804,1.8212,1.8884,1.9904,1.9925,2.0224,2.0712,2.0794,2.1135,2.162,2.184,2.201,2.2271,2.2922,2.3715,2.4559,2.5492,2.6531,2.7486,2.8146,2.8565,2.8868,2.9052,2.9249,2.9453,2.9551,2.9682,2.9901,3.0397,3.1474,3.2572,3.302,3.4187,3.5219,3.5355,3.5481,3.563,3.5768,3.5855,3.5903,3.5988,3.5982,3.597,3.597,3.5918,3.5891,3.5903,3.7058,3.802,3.8364,3.9595,4.0524,4.0878,4.0868,4.0856,4.0865,4.0812,4.0788,4.0796,4.0803,4.0765,4.066,4.0473,4.0269,4.006,3.9935,3.9781,3.9661,3.9458,3.9328,1.8591,1.9186,1.9607,1.9536,1.9347,1.9109,1.8889,1.8425,1.8016,1.7922,1.7598,1.7475,1.7868,1.7612,1.7188,1.6811,1.6497,1.6281,1.6139,1.602,1.57,1.5119,1.504,1.4755,1.3978,1.3988,1.3894,1.3515,1.3668,1.3821,1.3858,1.3931,1.4025,1.4025,1.3978,1.4129,1.4362,1.4593,1.5051,1.5724,1.6293,1.6909,1.7544,1.7774,1.8305,1.9026,1.9347,1.9782,2.0258,2.0308,2.0712,2.134,2.1386,2.1554,2.1748,2.2032,2.2647,2.3477,2.4526,2.553,2.6597,2.7649,2.8192,2.8492,2.8743,2.8938,2.9123,2.923,2.9415,2.9626,2.9751,3.0899,3.2088,3.2421,3.365,3.4843,3.5143,3.5378,3.5581,3.5682,3.5741,3.5781,3.5927,3.5958,3.5962,3.5991,3.5968,3.5995,3.6191,3.7554,3.857,3.8741,4.0103,4.0967,4.0932,4.0898,4.0888,4.0907,4.0834,4.08,4.08,4.0796,4.079,4.079,4.066,4.0473,4.0286,4.0139,3.9979,3.9826,3.9656,3.9508,1.7468,1.7949,1.8433,1.891,1.8697,1.8344,1.8344,1.8042,1.7679,1.7557,1.7199,1.6918,1.696,1.7131,1.7133,1.6676,1.6145,1.5644,1.5163,1.4687,1.4387,1.4351,1.434,1.4165,1.3658,1.361,1.3668,1.3763,1.3763,1.3858,1.3978,1.4025,1.4025,1.4025,1.3647,1.3884,1.4858,1.5322,1.568,1.5988,1.6144,1.6392,1.6752,1.6795,1.7173,1.7948,1.8974,1.9581,1.9823,1.9823,2.0139,2.0565,2.0616,2.0764,2.1023,2.1477,2.2181,2.3112,2.4377,2.5412,2.6417,2.7621,2.8156,2.8362,2.87,2.8797,2.8845,2.8906,2.8975,2.9107,2.9437,3.0265,3.1243,3.2253,3.3194,3.4101,3.5021,3.5302,3.54,3.5412,3.551,3.5657,3.5781,3.5813,3.5855,3.5988,3.5994,3.6277,3.7031,3.793,3.8825,3.9647,4.0482,4.1007,4.1007,4.0941,4.0898,4.0907,4.0837,4.0796,4.08,4.0796,4.079,4.079,4.079,4.0693,4.0489,4.0473,4.0269,3.9892,3.9826,3.9781,1.7326,1.7496,1.7665,1.8359,1.824,1.7908,1.7948,1.7679,1.7269,1.6799,1.6429,1.6064,1.5668,1.592,1.6095,1.5908,1.5421,1.5017,1.4824,1.4652,1.4387,1.4035,1.4071,1.3884,1.3354,1.3334,1.3362,1.3409,1.3515,1.3563,1.36,1.3705,1.3752,1.3752,1.361,1.38,1.4326,1.4789,1.5062,1.5153,1.5691,1.6076,1.6343,1.6612,1.7131,1.7828,1.8305,1.8921,1.9551,1.9588,1.9965,2.0514,2.0532,2.0681,2.0958,2.1385,2.1763,2.2311,2.4177,2.5072,2.5675,2.718,2.7864,2.8136,2.8255,2.844,2.8626,2.8694,2.886,2.906,2.9254,2.9971,3.1066,3.2694,3.3883,3.4748,3.5122,3.5239,3.5307,3.5393,3.5437,3.5551,3.5767,3.5801,3.585,3.5978,3.6007,3.6309,3.7157,3.8038,3.8883,3.9705,4.0558,4.1046,4.1,4.0986,4.0949,4.0898,4.0888,4.0837,4.0796,4.08,4.0796,4.079,4.079,4.0746,4.0687,4.0569,4.0441,4.0286,4.0,3.9848,1.7359,1.7233,1.7139,1.8071,1.7718,1.7236,1.7517,1.7269,1.6808,1.6244,1.5952,1.5611,1.5085,1.5051,1.5108,1.5051,1.472,1.4387,1.4236,1.419,1.4061,1.3658,1.3695,1.3552,1.3152,1.318,1.3218,1.3266,1.3372,1.342,1.3467,1.3563,1.3621,1.3621,1.3668,1.3868,1.415,1.4523,1.4754,1.4834,1.539,1.5736,1.5908,1.6281,1.6837,1.7585,1.7707,1.8316,1.9221,1.931,1.9639,2.0139,2.0139,2.0277,2.0563,2.1007,2.1181,2.1533,2.372,2.452,2.488,2.6668,2.7461,2.776,2.7818,2.8119,2.8414,2.8456,2.8615,2.8832,2.8993,2.9965,3.1238,3.2552,3.3941,3.4964,3.5057,3.5126,3.5223,3.5316,3.5331,3.5406,3.564,3.5666,3.5733,3.5909,3.5927,3.627,3.7181,3.8063,3.891,3.9704,4.0585,4.1069,4.1013,4.1006,4.096,4.0897,4.0898,4.0877,4.0837,4.0823,4.0808,4.0815,4.0803,4.079,4.079,4.066,4.0569,4.0489,4.0233,4.008,0.0,0.0,0.0,1.7984,1.7156,1.6278,1.6985,1.682,1.6337,1.5888,1.5788,1.5611,1.5153,1.4697,1.4326,1.4222,1.4071,1.3826,1.3314,1.3208,1.3218,1.317,1.317,1.3208,1.317,1.317,1.3266,1.342,1.3409,1.3467,1.3621,1.3621,1.3621,1.3621,1.3868,1.415,1.443,1.4616,1.4834,1.5108,1.5255,1.539,1.5513,1.5614,1.6219,1.7199,1.7242,1.7841,1.8784,1.8941,1.913,1.9376,1.9376,1.9523,1.9747,2.0311,2.0514,2.0803,2.2997,2.3786,2.4116,2.6034,2.6937,2.7317,2.7452,2.7811,2.8182,2.82,2.8291,2.844,2.8646,3.0157,3.1671,3.1775,3.3245,3.4675,3.4773,3.5,3.5193,3.5209,3.5209,3.5235,3.538,3.5406,3.5496,3.5762,3.5807,3.6167,3.7178,3.8043,3.8863,3.9683,4.0542,4.1033,4.0977,4.0994,4.0967,4.0917,4.0888,4.0888,4.0907,4.0815,4.0781,4.08,4.0803,4.079,4.079,4.079,4.0706,4.0504,4.0504,4.0454,1.6749,0.0,0.0,0.0,0.0,0.0,1.6612,1.6324,1.5844,1.5412,1.5006,1.464,1.4129,1.3894,1.381,1.3752,1.3752,1.3658,1.3515,1.3467,1.3324,1.2949,1.2977,1.3025,1.29,1.2977,1.3208,0.0,1.3716,1.3868,1.3868,1.4046,1.4186,1.4186,1.4384,1.4523,1.4616,1.488,1.5074,1.5267,1.539,1.5525,1.5671,1.5748,1.6088,1.668,1.6879,1.7284,1.7868,1.8319,1.8669,1.8988,1.8988,1.9101,1.9347,2.0208,2.0514,2.074,2.2313,2.3276,2.3984,2.5146,2.6135,2.6939,2.7255,2.753,2.7754,2.8109,2.8264,2.8362,2.8525,2.9594,3.0775,3.1389,3.2511,3.3649,3.4292,3.4694,3.4963,3.5157,3.5209,3.5254,3.5391,3.5393,3.5449,3.5631,3.5741,3.6131,3.7044,3.7457,3.7985,3.8843,3.9671,4.0151,4.0135,4.0718,4.1046,4.0967,4.0376,4.0279,4.0888,4.0283,4.0223,4.08,4.0803,4.079,4.079,4.079,4.0778,4.072,4.0569,4.0454,1.6919,1.6319,1.5862,1.6413,0.0,0.0,1.6194,1.5948,1.5591,1.5365,1.4915,1.4408,1.3999,1.3763,1.3621,1.3773,1.3773,1.3773,1.3773,1.343,1.319,1.3045,1.2987,1.29,1.2715,1.2852,1.3045,1.319,1.3573,1.3915,1.415,1.4337,1.4373,1.4373,1.4616,1.4743,1.4789,1.5062,1.5255,1.539,1.5525,1.5614,1.5715,1.5748,1.6088,1.6595,1.6752,1.7089,1.7598,1.7814,1.8266,1.8822,1.8846,1.9035,1.942,2.005,2.0292,2.0469,2.1688,2.2697,2.3564,2.4486,2.5559,2.6556,2.6824,2.7098,2.7391,2.7847,2.8136,2.8327,2.8484,2.9225,3.0202,3.1031,3.2078,3.3115,3.3913,3.4379,3.4714,3.5018,3.5141,3.5223,3.5296,3.5321,3.5372,3.5504,3.5582,3.5849,3.6469,3.6932,3.7437,3.7998,3.8804,3.9285,3.9258,3.9726,3.9994,3.996,3.9447,3.937,3.9835,3.9694,3.9829,4.0292,4.0626,4.0803,4.079,4.079,4.079,4.079,4.0673,4.0598,1.7652,1.6517,1.5613,1.635,1.5652,0.0,1.574,1.5551,1.5248,1.5286,1.4823,1.4381,1.4228,1.3773,1.3538,1.3747,1.3789,1.3821,1.3915,1.3248,1.291,1.3228,1.3007,1.2735,1.248,1.2676,1.2783,1.2735,1.3286,1.3858,1.428,1.4419,1.4466,1.4373,1.4662,1.4834,1.496,1.521,1.539,1.5513,1.5614,1.5715,1.5715,1.5748,1.6088,1.6637,1.671,1.7047,1.7544,1.7325,1.7814,1.8669,1.8793,1.9132,1.9603,1.9884,2.0005,2.0152,2.1104,2.2075,2.3052,2.3866,2.5049,2.6175,2.6349,2.6657,2.7034,2.7565,2.7961,2.8282,2.8458,2.9034,2.9818,3.0785,3.178,3.2746,3.3584,3.4074,3.4423,3.4753,3.5,3.5157,3.5209,3.5209,3.5235,3.5353,3.5393,3.5485,3.5718,3.6469,3.6999,3.7125,3.7939,3.8424,3.8378,3.8457,3.8514,3.8495,3.8341,3.8311,3.8396,3.8999,3.9403,3.9607,4.0389,4.0808,4.079,4.079,4.079,4.079,4.079,4.079,1.8362,1.7806,1.7386,1.6797,1.6023,0.0,1.5296,1.4611,1.3914,1.3558,1.3119,1.2759,1.2807,1.2685,1.2556,1.2324,1.2388,1.2706,1.3276,1.342,1.319,1.2618,1.2471,1.2382,1.2323,1.2382,1.2529,1.2832,1.3525,1.3884,1.3763,1.4501,1.4789,1.4419,1.4891,1.5222,1.521,1.539,1.5525,1.5671,1.5671,1.5715,1.5792,1.5792,1.5913,1.612,1.6262,1.6436,1.668,1.6905,1.7269,1.7787,1.8252,1.8539,1.8846,1.969,2.0005,2.0056,2.0424,2.1596,2.2936,2.3115,2.4333,2.5807,2.6243,2.6436,2.6691,2.7474,2.7789,2.7961,2.8327,2.8567,2.9132,3.064,3.1166,3.1738,3.3249,3.3752,3.3975,3.4208,3.463,3.5019,3.5157,3.5209,3.5207,3.5239,3.5331,3.5412,3.5473,3.5812,3.6054,3.6098,3.6961,3.7552,3.7543,3.819,3.857,3.8495,3.7829,3.7714,3.8377,3.7877,3.8222,3.9568,4.0389,4.0808,4.079,4.079,4.079,4.079,4.079,4.079,1.867,1.7798,1.7102,1.6404,1.5605,0.0,0.0,1.4467,1.3828,1.3948,1.3226,1.2569,1.2504,1.2148,1.1853,1.176,1.2044,1.2263,1.219,1.253,1.2696,1.2442,1.2314,1.2126,1.2026,1.2126,1.2372,1.2803,1.342,1.3894,1.4035,1.4789,1.5119,1.4971,1.5255,1.5435,1.5492,1.557,1.5659,1.576,1.576,1.5748,1.5792,1.5869,1.5957,1.6088,1.6231,1.6362,1.6479,1.6791,1.7002,1.7282,1.7828,1.8226,1.8577,1.942,1.969,1.9762,2.015,2.1163,2.2319,2.2758,2.3834,2.5093,2.5822,2.6227,2.6556,2.7051,2.7474,2.7818,2.8035,2.8255,2.8855,3.0541,3.0975,3.1465,3.3107,3.3559,3.3698,3.391,3.4255,3.463,3.4982,3.5124,3.5209,3.5209,3.5266,3.5316,3.5399,3.5527,3.564,3.5693,3.6216,3.6557,3.6543,3.7015,3.7287,3.726,3.6816,3.6736,3.7142,3.7118,3.7897,3.9632,4.0014,4.0416,4.0846,4.0827,4.079,4.079,4.079,4.079,1.9162,1.7913,1.6809,1.612,1.5171,1.4536,0.0,0.0,0.0,1.4204,1.3414,1.2589,1.223,1.1557,1.1066,1.1091,1.1556,1.1648,1.0913,1.124,1.1651,1.2061,1.2098,1.1968,1.161,1.1868,1.2314,1.2812,1.3362,1.3836,1.4362,1.5017,1.5345,1.5367,1.5468,1.5614,1.5715,1.5715,1.576,1.5792,1.5792,1.5792,1.5792,1.5957,1.6088,1.62,1.6362,1.6436,1.6522,1.6791,1.6876,1.696,1.7557,1.8028,1.8422,1.9058,1.9332,1.9479,2.001,2.0806,2.1721,2.2469,2.3446,2.4551,2.5452,2.6033,2.6454,2.6641,2.71,2.7535,2.776,2.8035,2.8721,3.0486,3.0948,3.1437,3.3049,3.3452,3.353,3.3707,3.3891,3.4208,3.4773,3.5037,3.516,3.5174,3.5209,3.5239,3.5355,3.5386,3.5444,3.5549,3.5685,3.5768,3.5807,3.5899,3.5965,3.5991,3.5951,3.5918,3.5898,3.6661,3.7753,3.9176,3.9479,3.9966,4.0655,4.0768,4.0815,4.079,4.079,4.079,2.0462,1.9541,1.8544,1.686,1.5696,1.4823,1.4027,0.0,1.2834,1.2186,0.0,1.158,1.0789,0.0,0.0,0.9392,0.9558,0.9671,0.9456,0.9872,1.0218,1.0269,1.1351,1.181,1.1174,1.1701,1.2363,1.2919,1.3484,1.3873,1.4071,1.496,1.5277,1.4801,1.5379,1.5671,1.5715,1.5748,1.5792,1.5792,1.5792,1.5792,1.5792,1.5957,1.6088,1.62,1.6362,1.6436,1.6522,1.6791,1.6876,1.696,1.7557,1.7828,1.7988,1.8703,1.9132,1.9442,1.9752,2.0599,2.1643,2.1932,2.3205,2.4821,2.5631,2.5954,2.6137,2.659,2.6758,2.6971,2.7624,2.7847,2.8379,3.043,3.091,3.1372,3.3049,3.3411,3.3422,3.352,3.3698,3.4031,3.4694,3.487,3.4982,3.5157,3.5209,3.5209,3.5223,3.534,3.5399,3.5432,3.5549,3.5668,3.5781,3.5819,3.5866,3.5991,3.5996,3.5968,3.5898,3.6661,3.7191,3.7394,3.891,3.9707,3.976,4.051,4.0856,4.079,4.079,4.079,2.0694,1.9259,1.7896,1.6773,1.5344,1.4261,1.4474,1.3874,1.3083,1.2184,0.0,0.0,0.0,0.0,0.0,0.0,0.8922,0.9008,0.875,0.9019,0.9416,0.9938,1.0533,1.0931,1.0965,1.1651,1.2353,1.2967,1.3484,1.4014,1.449,1.5232,1.5513,1.5322,1.5603,1.5748,1.5748,1.5792,1.5792,1.5792,1.5792,1.5836,1.5913,1.6057,1.6188,1.6318,1.6436,1.6479,1.6522,1.6791,1.6876,1.6918,1.7323,1.7434,1.7557,1.8291,1.864,1.8831,1.9384,1.9906,2.0521,2.1812,2.3319,2.4753,2.5526,2.5864,2.599,2.6225,2.6487,2.6791,2.7068,2.7334,2.7917,2.949,3.023,3.0991,3.2394,3.3067,3.3411,3.3422,3.353,3.3752,3.4152,3.4423,3.4694,3.4982,3.5037,3.5072,3.5174,3.5254,3.5281,3.5277,3.5393,3.5508,3.5553,3.5706,3.5825,3.587,3.5958,3.5964,3.5898,3.6223,3.6645,3.7157,3.7834,3.8686,3.9716,4.0007,4.0393,4.0856,4.0827,4.079,1.9583,1.8039,1.6576,1.6077,1.4846,1.3894,1.4247,1.3721,1.2909,1.1864,1.1239,0.0,0.0,0.0,0.811,0.7847,0.0,0.8158,0.7853,0.8012,0.8484,0.9234,0.9548,1.0012,1.0661,1.1392,1.2138,1.2938,1.3521,1.4247,1.5096,1.5513,1.576,1.5792,1.5792,1.5792,1.5792,1.5792,1.5792,1.5792,1.5792,1.5869,1.5988,1.6144,1.6275,1.6392,1.6479,1.6522,1.6565,1.6791,1.6918,1.696,1.7115,1.7199,1.7282,1.7962,1.824,1.8383,1.9026,1.9362,1.9789,2.1824,2.3196,2.4261,2.535,2.5791,2.5917,2.599,2.626,2.6572,2.6674,2.6906,2.7431,2.8631,2.9667,3.0659,3.1779,3.2755,3.3393,3.3393,3.3452,3.3502,3.3698,3.4043,3.4398,3.4713,3.4831,3.4926,3.5089,3.5176,3.5209,3.5209,3.5292,3.5353,3.5406,3.5602,3.5748,3.5813,3.5951,3.5982,3.5935,3.5918,3.6211,3.6855,3.7036,3.7764,3.9088,3.9226,3.961,4.0208,4.0618,4.079,1.6757,0.0,1.5148,1.4596,1.4419,1.4025,1.2599,1.2258,1.1864,1.0517,1.0254,0.9776,0.8199,0.7723,0.7275,0.6431,0.6555,0.0,0.0,0.6655,0.7132,0.7607,0.8494,0.9287,0.9961,1.0669,1.1539,1.2811,1.3595,1.4536,1.5703,1.5792,1.5792,1.5792,1.5792,1.5792,1.5792,1.5792,1.5792,1.5792,1.5792,1.5869,1.5988,1.6144,1.6275,1.6392,1.6479,1.6565,1.6718,1.6846,1.6918,1.7002,1.7157,1.7199,1.724,1.7747,1.8055,1.8344,1.8784,1.9207,1.9927,2.1883,2.266,2.3222,2.5114,2.5791,2.5917,2.599,2.6115,2.631,2.6607,2.6725,2.7028,2.8224,2.9421,3.0556,3.1431,3.2559,3.3393,3.3393,3.3393,3.3422,3.3509,3.3788,3.4087,3.4398,3.4632,3.4831,3.4889,3.5072,3.5209,3.5209,3.519,3.5266,3.5393,3.5463,3.5611,3.5878,3.5955,3.5994,3.5994,3.5934,3.5935,3.6033,3.6797,3.7239,3.7296,3.8124,3.8483,3.8412,4.0056,4.079,0.0,0.0,1.3527,1.3685,0.0,0.0,1.1352,1.1179,1.0391,0.7546,0.7459,0.7512,0.6382,0.6119,0.61,0.6195,0.6144,0.6088,0.0,0.6021,0.6074,0.6022,0.7339,0.8748,0.9887,1.0998,1.2229,1.3548,1.4577,0.0,1.576,1.6128,1.6152,1.5804,1.5792,1.5792,1.5792,1.5792,1.5792,1.5792,1.5869,1.6001,1.6144,1.6275,1.6392,1.6479,1.6479,1.6522,1.6565,1.6791,1.6918,1.696,1.7115,1.7199,1.724,1.772,1.7963,1.8095,1.8503,1.8936,1.9524,2.0677,2.1645,2.2561,2.3709,2.4687,2.5362,2.5438,2.5754,2.6099,2.6329,2.6364,2.6553,2.7197,2.8111,2.9084,3.0176,3.1351,3.2378,3.288,3.3208,3.3411,3.3422,3.352,3.3707,3.4087,3.4232,3.4458,3.4773,3.4926,3.5054,3.5193,3.5209,3.5223,3.5247,3.5418,3.56,3.5827,3.5899,3.5947,3.5991,3.5982,3.5982,3.5994,3.6262,3.6698,3.7265,3.7512,3.7917,3.8444,3.8924,3.9428,1.3635,1.2276,0.0,1.1885,1.1395,0.0,0.9236,0.0,0.8985,0.5714,0.6072,0.6663,0.5556,0.5383,0.5425,0.5609,0.5453,0.5336,0.0,0.5289,0.5253,0.5473,0.6762,0.8182,0.9524,1.0706,1.2227,1.4111,1.496,1.5679,0.0,1.6546,1.6428,1.608,1.5933,1.5869,1.5869,1.5925,1.5925,1.5925,1.6013,1.6144,1.6275,1.6362,1.6436,1.6522,1.6522,1.6565,1.665,1.6833,1.6918,1.7002,1.7157,1.7199,1.724,1.772,1.8003,1.8163,1.84,1.8697,1.9098,2.0006,2.084,2.1697,2.2836,2.3818,2.4618,2.5073,2.546,2.5864,2.6132,2.622,2.6274,2.6504,2.7318,2.8271,2.9332,3.0512,3.1661,3.2588,3.2988,3.3208,3.3364,3.3393,3.3509,3.378,3.3947,3.4179,3.4524,3.4772,3.4964,3.5072,3.5176,3.5209,3.5226,3.5378,3.5527,3.5682,3.5795,3.588,3.5955,3.5988,3.5991,3.5991,3.6001,3.628,3.6832,3.6796,3.704,3.7572,3.7492,3.7872]}]]